Darstellungsparameter: Aktuell verwendete Einstellungen:
Skalierung der Graphiken ... ?
xyx+y,   Skalierungsfaktor:      Skalierung: Modus: x, Faktor: 1
Darstellungszeitraum ... ?
Vom - - bis: - -   Zeitraum: 05.02.2015 - 04.08.2015
Min/Max/Avg-Anzeige ... ?
Zeige MMA aktuell
Zeige MMA Monat
Zeige MMA alles
Zeige --A aktuell
Zeige --A Monat
Zeige --A alles
Keine MMA-Anzeige
MMA:
Average (ber die Originaldaten)
MMA-Basis: 23.02.2003 - 03.08.2020
Quicknavigation für Darstellung... ?
Tage:      1T, 2T, 3T, 5T -1T -2T -3T -5T +1T +2T +3T +5T
Wochen: 1W, 2W, 3W -1W -2W -3W +1W +2W +3W
Monate: 1M, 3M, 6M -1M -3M -6M +1M +3M +6M
Jahre:    1J, 3J, 5J, 10J -1J -3J -5J -10J +1J +3J +5J +10J
Nutze für die Darstellung ... ?
Originaldaten oder ...
Mittelwerte Minima Maxima auf...
Stundenbasis Tagesbasis Wochenbasis
Monatsbasis Jahresbasis      Datenbasis: Mittelwerte auf Stundenbasis
Darstellen als:
Statistik (Auto) Statistik J:M      Darstellung:
Zur Graphik,    zurück zur Übersicht aller Sensoren.
 
Tabellarische Datenbersicht: ?
 
Sensor: Nr:Datum:Temp:Abs-Feuchte:Windchill:Wind:
Aussen-T/F 1 05-02-2015 00:00:00 -2.86667 C 3.73 g/m*3 -2.87 C 1.46667 km/h
2 05-02-2015 01:00:00 -3.39167 C 3.62 g/m*3 -3.39 C 0.26667 km/h
3 05-02-2015 02:00:00 -3.70833 C 3.55 g/m*3 -3.71 C 1.46667 km/h
4 05-02-2015 03:00:00 -3.76667 C 3.49 g/m*3 -3.77 C 2.8 km/h
5 05-02-2015 04:00:00 -4.19167 C 3.38 g/m*3 -4.19 C 2.53333 km/h
6 05-02-2015 05:00:00 -4.35 C 3.33 g/m*3 -4.35 C 1.2 km/h
7 05-02-2015 06:00:00 -4.56667 C 3.29 g/m*3 -4.57 C 0.13333 km/h
8 05-02-2015 07:00:00 -3.9 C 3.48 g/m*3 -3.9 C 0.66667 km/h
9 05-02-2015 17:00:00 0.81667 C 3.63 g/m*3 -3.32 C 14.5 km/h
10 05-02-2015 18:00:00 0.65833 C 3.67 g/m*3 -3.38 C 13.83333 km/h
11 05-02-2015 19:00:00 0.49167 C 3.7 g/m*3 -3.2 C 11.96667 km/h
12 05-02-2015 20:00:00 0.625 C 3.57 g/m*3 -3.4 C 13.7 km/h
13 05-02-2015 21:00:00 0.325 C 3.49 g/m*3 -3.71 C 13.43333 km/h
14 05-02-2015 22:00:00 0.00833 C 3.47 g/m*3 -3.56 C 11.025 km/h
15 05-02-2015 23:00:00 -0.2 C 3.53 g/m*3 -3.36 C 9.275 km/h
16 06-02-2015 00:00:00 -0.08333 C 3.56 g/m*3 -3.29 C 9.55 km/h
17 06-02-2015 01:00:00 -0.06667 C 3.57 g/m*3 -4.32 C 14.09167 km/h
18 06-02-2015 02:00:00 -0.10833 C 3.59 g/m*3 -3.6 C 10.625 km/h
19 06-02-2015 03:00:00 -0.55 C 3.46 g/m*3 -4.02 C 10.19167 km/h
20 06-02-2015 04:00:00 -0.55833 C 3.47 g/m*3 -3.49 C 8.31667 km/h
21 06-02-2015 05:00:00 -0.40833 C 3.49 g/m*3 -3.71 C 9.66667 km/h
22 06-02-2015 06:00:00 -0.63333 C 3.45 g/m*3 -3.91 C 9.41667 km/h
23 06-02-2015 07:00:00 -0.64167 C 3.46 g/m*3 -3.96 C 9.55 km/h
24 06-02-2015 08:00:00 -0.25833 C 3.5 g/m*3 -4.2 C 12.36667 km/h
25 06-02-2015 09:00:00 0.06667 C 3.53 g/m*3 -3.8 C 12.35833 km/h
Sensor: Nr:Datum:Temp:Abs-Feuchte:Windchill:Wind:
Aussen-T/F 26 06-02-2015 10:00:00 0.28333 C 3.51 g/m*3 -4.05 C 14.90833 km/h
27 06-02-2015 11:00:00 0.61667 C 3.53 g/m*3 -3.78 C 15.7 km/h
28 06-02-2015 12:00:00 1.50833 C 3.54 g/m*3 -2.42 C 14.23333 km/h
29 06-02-2015 13:00:00 2.51667 C 3.55 g/m*3 -1.76 C 17.83333 km/h
30 06-02-2015 14:00:00 3.35 C 3.55 g/m*3 -0.67 C 17.45 km/h
31 06-02-2015 15:00:00 3.75833 C 3.41 g/m*3 1.41 C 9 km/h
32 06-02-2015 16:00:00 2.95 C 3.29 g/m*3 -0.27 C 12.2 km/h
33 06-02-2015 17:00:00 1.41667 C 3.34 g/m*3 -0.88 C 7.38333 km/h
34 06-02-2015 18:00:00 0.20833 C 3.35 g/m*3 -1.4 C 5.09167 km/h
35 06-02-2015 19:00:00 -0.35 C 3.39 g/m*3 -0.35 C 2.8 km/h
36 06-02-2015 20:00:00 -0.45833 C 3.42 g/m*3 -0.46 C 4.00833 km/h
37 06-02-2015 21:00:00 -0.46667 C 3.41 g/m*3 -0.47 C 4.69167 km/h
38 06-02-2015 22:00:00 -0.88333 C 3.41 g/m*3 -3.06 C 6.04167 km/h
39 06-02-2015 23:00:00 -1.09167 C 3.31 g/m*3 -4 C 7.925 km/h
40 07-02-2015 00:00:00 -1.31667 C 3.26 g/m*3 -4.91 C 10.08333 km/h
41 07-02-2015 01:00:00 -1.71667 C 3.21 g/m*3 -3.71 C 5.35833 km/h
42 07-02-2015 02:00:00 -3.00833 C 3.18 g/m*3 -3.01 C 4.13333 km/h
43 07-02-2015 03:00:00 -3.43333 C 3.17 g/m*3 -3.43 C 4.8 km/h
44 07-02-2015 04:00:00 -3.65 C 3.1 g/m*3 -3.65 C 4.26667 km/h
45 07-02-2015 05:00:00 -3.81667 C 3.1 g/m*3 -3.82 C 4.93333 km/h
46 07-02-2015 06:00:00 -3.89167 C 3.07 g/m*3 -3.89 C 4.53333 km/h
47 07-02-2015 07:00:00 -4.63333 C 3.01 g/m*3 -4.63 C 0 km/h
48 07-02-2015 08:00:00 -4.95 C 3.01 g/m*3 -4.95 C 0.4 km/h
49 07-02-2015 09:00:00 -4.40833 C 3.12 g/m*3 -4.41 C 1.2 km/h
50 07-02-2015 10:00:00 -3.25833 C 3.27 g/m*3 -3.26 C 2.66667 km/h
Sensor: Nr:Datum:Temp:Abs-Feuchte:Windchill:Wind:
Aussen-T/F 51 07-02-2015 11:00:00 -2.2 C 3.46 g/m*3 -2.2 C 4.00833 km/h
52 07-02-2015 12:00:00 -0.93333 C 3.61 g/m*3 -0.93 C 3.06667 km/h
53 07-02-2015 13:00:00 -0.04167 C 3.8 g/m*3 -0.04 C 3.6 km/h
54 07-02-2015 14:00:00 1.73333 C 4.05 g/m*3 1.73 C 4 km/h
55 07-02-2015 15:00:00 2.48333 C 4.09 g/m*3 2.48 C 4.13333 km/h
56 07-02-2015 16:00:00 3.525 C 3.74 g/m*3 0.64 C 11.15 km/h
57 07-02-2015 17:00:00 2.38333 C 3.83 g/m*3 2.38 C 4.28333 km/h
58 07-02-2015 18:00:00 2.01667 C 4.2 g/m*3 2.02 C 3.06667 km/h
59 07-02-2015 19:00:00 2.69167 C 4.42 g/m*3 2.69 C 4.675 km/h
60 07-02-2015 20:00:00 2.675 C 4.88 g/m*3 0.85 C 6.575 km/h
61 07-02-2015 21:00:00 2.64167 C 5.29 g/m*3 1.26 C 5.35 km/h
62 07-02-2015 22:00:00 2.75833 C 5.49 g/m*3 1.34 C 5.48333 km/h
63 07-02-2015 23:00:00 3.19167 C 5.68 g/m*3 0.41 C 10.36667 km/h
64 08-02-2015 00:00:00 3.48333 C 5.77 g/m*3 1.23 C 8.45833 km/h
65 08-02-2015 01:00:00 3.875 C 5.87 g/m*3 1.21 C 10.48333 km/h
66 08-02-2015 02:00:00 3.96667 C 5.85 g/m*3 1.9 C 8.06667 km/h
67 08-02-2015 03:00:00 3.68333 C 5.8 g/m*3 1.85 C 7.10833 km/h
68 08-02-2015 04:00:00 4.15 C 5.71 g/m*3 1.08 C 12.76667 km/h
69 08-02-2015 05:00:00 4.29167 C 5.53 g/m*3 1 C 14.23333 km/h
70 08-02-2015 06:00:00 4.25833 C 5.39 g/m*3 1.44 C 11.55833 km/h
71 08-02-2015 07:00:00 3.625 C 5.38 g/m*3 0.68 C 11.55 km/h
72 08-02-2015 08:00:00 3.26667 C 5.17 g/m*3 0.64 C 9.79167 km/h
73 08-02-2015 09:00:00 3.55833 C 5.07 g/m*3 0.83 C 10.475 km/h
74 08-02-2015 10:00:00 3.325 C 5.27 g/m*3 -0.19 C 14.23333 km/h
75 08-02-2015 11:00:00 3.93333 C 5.07 g/m*3 -0.24 C 19.7 km/h
Sensor: Nr:Datum:Temp:Abs-Feuchte:Windchill:Wind:
Aussen-T/F 76 08-02-2015 12:00:00 4.11667 C 4.85 g/m*3 0.31 C 17.3 km/h
77 08-02-2015 13:00:00 4.71667 C 4.52 g/m*3 0.95 C 18.1 km/h
78 08-02-2015 14:00:00 4.89167 C 4.42 g/m*3 1.02 C 19.3 km/h
79 08-02-2015 15:00:00 4.80833 C 4.13 g/m*3 1.14 C 17.56667 km/h
80 08-02-2015 16:00:00 4.225 C 3.91 g/m*3 0.96 C 13.95833 km/h
81 08-02-2015 17:00:00 3.125 C 4.17 g/m*3 3.13 C 4.95 km/h
82 08-02-2015 18:00:00 1.46667 C 4.25 g/m*3 1.47 C 3.06667 km/h
83 08-02-2015 19:00:00 1.19167 C 4.26 g/m*3 1.19 C 3.46667 km/h
84 08-02-2015 20:00:00 0.65 C 4.23 g/m*3 0.65 C 2.8 km/h
85 08-02-2015 21:00:00 0.13333 C 4.3 g/m*3 0.13 C 2.4 km/h
86 08-02-2015 22:00:00 0.65 C 4.47 g/m*3 0.65 C 2.13333 km/h
87 08-02-2015 23:00:00 1.275 C 4.65 g/m*3 1.27 C 3.46667 km/h
88 09-02-2015 00:00:00 1.425 C 4.68 g/m*3 1.43 C 1.46667 km/h
89 09-02-2015 01:00:00 1.50833 C 4.8 g/m*3 1.51 C 1.33333 km/h
90 09-02-2015 02:00:00 1.7 C 4.9 g/m*3 1.7 C 1.2 km/h
91 09-02-2015 03:00:00 1.825 C 4.96 g/m*3 1.83 C 2.4 km/h
92 09-02-2015 04:00:00 2.41667 C 5.23 g/m*3 2.42 C 3.46667 km/h
93 09-02-2015 05:00:00 2.35833 C 5.27 g/m*3 2.36 C 2.53333 km/h
94 09-02-2015 06:00:00 2.725 C 5.34 g/m*3 2.73 C 2.8 km/h
95 09-02-2015 07:00:00 3.375 C 5.51 g/m*3 1.66 C 6.58333 km/h
96 09-02-2015 08:00:00 4.30833 C 5.7 g/m*3 1.7 C 10.61667 km/h
97 09-02-2015 09:00:00 4.65833 C 5.61 g/m*3 2.64 C 8.34167 km/h
98 09-02-2015 10:00:00 4.84167 C 5.8 g/m*3 2.97 C 7.925 km/h
99 09-02-2015 11:00:00 4.75 C 6.03 g/m*3 3.13 C 6.975 km/h
100 09-02-2015 12:00:00 5.54167 C 6.24 g/m*3 3.62 C 8.59167 km/h
Sensor: Nr:Datum:Temp:Abs-Feuchte:Windchill:Wind:
Aussen-T/F 101 09-02-2015 13:00:00 5.825 C 6.36 g/m*3 3.54 C 10.48333 km/h
102 09-02-2015 14:00:00 5.53333 C 6.34 g/m*3 4.04 C 6.98333 km/h
103 09-02-2015 15:00:00 5.25 C 6.33 g/m*3 3.96 C 6.16667 km/h
104 09-02-2015 16:00:00 5.09167 C 6.36 g/m*3 5.09 C 4.54167 km/h
105 09-02-2015 17:00:00 4.91667 C 6.3 g/m*3 4.92 C 3.73333 km/h
106 09-02-2015 18:00:00 5.075 C 6.35 g/m*3 5.08 C 4.81667 km/h
107 09-02-2015 19:00:00 5.075 C 6.38 g/m*3 5.08 C 3.60833 km/h
108 09-02-2015 20:00:00 5 C 6.35 g/m*3 5 C 1.86667 km/h
109 09-02-2015 21:00:00 4.98333 C 6.4 g/m*3 4.98 C 2 km/h
110 09-02-2015 22:00:00 4.7 C 6.37 g/m*3 4.7 C 1.73333 km/h
111 09-02-2015 23:00:00 4.7 C 6.39 g/m*3 4.7 C 2.66667 km/h
112 10-02-2015 00:00:00 4.51667 C 6.28 g/m*3 4.52 C 1.06667 km/h
113 10-02-2015 01:00:00 4.24167 C 6.21 g/m*3 4.24 C 0.8 km/h
114 10-02-2015 02:00:00 4.2 C 6.2 g/m*3 4.2 C 2.13333 km/h
115 10-02-2015 03:00:00 4.28333 C 6.23 g/m*3 4.28 C 1.33333 km/h
116 10-02-2015 04:00:00 4.26667 C 6.26 g/m*3 4.27 C 0.8 km/h
117 10-02-2015 05:00:00 4.275 C 6.28 g/m*3 4.28 C 0.26667 km/h
118 10-02-2015 06:00:00 4.23333 C 6.26 g/m*3 4.23 C 0.13333 km/h
119 10-02-2015 07:00:00 4.39167 C 6.33 g/m*3 4.39 C 0.93333 km/h
120 10-02-2015 08:00:00 4.41667 C 6.34 g/m*3 4.42 C 1.06667 km/h
121 10-02-2015 09:00:00 4.66667 C 6.45 g/m*3 4.67 C 0.13333 km/h
122 10-02-2015 10:00:00 5.10833 C 6.63 g/m*3 5.11 C 1.46667 km/h
123 10-02-2015 11:00:00 5.70833 C 6.72 g/m*3 5.71 C 1.6 km/h
124 10-02-2015 12:00:00 6.05 C 6.44 g/m*3 3.92 C 9.95 km/h
125 10-02-2015 13:00:00 6.31667 C 6.33 g/m*3 4.73 C 7.8 km/h
Sensor: Nr:Datum:Temp:Abs-Feuchte:Windchill:Wind:
Aussen-T/F 126 10-02-2015 14:00:00 6.2 C 6.31 g/m*3 6.2 C 4.53333 km/h
127 10-02-2015 15:00:00 6.10833 C 6.21 g/m*3 6.11 C 4.80833 km/h
128 10-02-2015 16:00:00 5.85 C 6.07 g/m*3 4.48 C 6.70833 km/h
129 10-02-2015 17:00:00 5.65 C 6.01 g/m*3 4.64 C 5.49167 km/h
130 10-02-2015 18:00:00 5.45 C 6 g/m*3 5.45 C 4.00833 km/h
131 10-02-2015 19:00:00 5.23333 C 6 g/m*3 5.23 C 2.675 km/h
132 10-02-2015 20:00:00 4.94167 C 5.87 g/m*3 4.94 C 2.4 km/h
133 10-02-2015 21:00:00 4.675 C 5.86 g/m*3 4.68 C 0.53333 km/h
134 10-02-2015 22:00:00 4.28333 C 5.92 g/m*3 4.28 C 0 km/h
135 10-02-2015 23:00:00 4.1 C 5.89 g/m*3 4.1 C 0 km/h
136 11-02-2015 00:00:00 3.95 C 5.88 g/m*3 3.95 C 0 km/h
137 11-02-2015 01:00:00 3.9 C 5.86 g/m*3 3.9 C 0.4 km/h
138 11-02-2015 02:00:00 3.9 C 5.8 g/m*3 3.9 C 0.4 km/h
139 11-02-2015 03:00:00 3.85833 C 5.71 g/m*3 3.86 C 0.4 km/h
140 11-02-2015 04:00:00 3.825 C 5.6 g/m*3 3.83 C 1.46667 km/h
141 11-02-2015 05:00:00 3.74167 C 5.58 g/m*3 3.74 C 0.8 km/h
142 11-02-2015 06:00:00 3.68333 C 5.49 g/m*3 3.68 C 3.6 km/h
143 11-02-2015 07:00:00 3.475 C 5.38 g/m*3 3.48 C 2.66667 km/h
144 11-02-2015 08:00:00 3.4 C 5.37 g/m*3 3.4 C 1.86667 km/h
145 11-02-2015 09:00:00 3.50833 C 5.4 g/m*3 3.51 C 2.8 km/h
146 11-02-2015 10:00:00 3.675 C 5.37 g/m*3 3.68 C 4.28333 km/h
147 11-02-2015 11:00:00 4.03333 C 5.42 g/m*3 2.9 C 5.21667 km/h
148 11-02-2015 12:00:00 4.33333 C 5.44 g/m*3 3.14 C 5.48333 km/h
149 11-02-2015 13:00:00 4.775 C 5.55 g/m*3 3 C 7.525 km/h
150 11-02-2015 14:00:00 5.26667 C 5.61 g/m*3 3.77 C 6.85 km/h
Sensor: Nr:Datum:Temp:Abs-Feuchte:Windchill:Wind:
Aussen-T/F 151 11-02-2015 15:00:00 5.29167 C 5.62 g/m*3 4.29 C 5.33333 km/h
152 11-02-2015 16:00:00 4.825 C 5.53 g/m*3 4.83 C 3.475 km/h
153 11-02-2015 17:00:00 4.03333 C 5.42 g/m*3 4.03 C 1.6 km/h
154 11-02-2015 18:00:00 3.34167 C 5.32 g/m*3 3.34 C 2.13333 km/h
155 11-02-2015 19:00:00 3.15833 C 5.24 g/m*3 3.16 C 3.60833 km/h
156 11-02-2015 20:00:00 3.10833 C 5.24 g/m*3 3.11 C 1.6 km/h
157 11-02-2015 21:00:00 3.05 C 5.23 g/m*3 3.05 C 3.60833 km/h
158 11-02-2015 22:00:00 2.95 C 5.2 g/m*3 2.95 C 2.94167 km/h
159 11-02-2015 23:00:00 2.81667 C 5.22 g/m*3 2.82 C 1.2 km/h
160 12-02-2015 00:00:00 2.8 C 5.26 g/m*3 2.8 C 1.06667 km/h
161 12-02-2015 01:00:00 2.86667 C 5.3 g/m*3 2.87 C 0.53333 km/h
162 12-02-2015 02:00:00 2.84167 C 5.29 g/m*3 2.84 C 0.26667 km/h
163 12-02-2015 03:00:00 2.8 C 5.27 g/m*3 2.8 C 0.66667 km/h
164 12-02-2015 04:00:00 2.775 C 5.26 g/m*3 2.78 C 1.86667 km/h
165 12-02-2015 05:00:00 2.69167 C 5.23 g/m*3 2.69 C 1.46667 km/h
166 12-02-2015 06:00:00 2.58333 C 5.18 g/m*3 2.58 C 1.46667 km/h
167 12-02-2015 07:00:00 2.44167 C 5.14 g/m*3 2.44 C 0.53333 km/h
168 12-02-2015 08:00:00 2.4 C 5.14 g/m*3 2.4 C 0.93333 km/h
169 12-02-2015 09:00:00 2.525 C 5.18 g/m*3 2.53 C 2.26667 km/h
170 12-02-2015 10:00:00 2.65833 C 5.22 g/m*3 2.66 C 4.14167 km/h
171 12-02-2015 11:00:00 2.93333 C 5.26 g/m*3 1.7 C 5.08333 km/h
172 12-02-2015 12:00:00 3.30833 C 5.33 g/m*3 2.07 C 5.225 km/h
173 12-02-2015 13:00:00 3.89167 C 5.45 g/m*3 2.79 C 5.08333 km/h
174 12-02-2015 14:00:00 4.98333 C 5.68 g/m*3 3.88 C 5.49167 km/h
175 12-02-2015 15:00:00 5.3 C 5.67 g/m*3 3.58 C 7.65 km/h
Sensor: Nr:Datum:Temp:Abs-Feuchte:Windchill:Wind:
Aussen-T/F 176 12-02-2015 16:00:00 4.64167 C 5.54 g/m*3 4.64 C 4.4 km/h
177 12-02-2015 17:00:00 3.44167 C 5.31 g/m*3 1.44 C 7.50833 km/h
178 12-02-2015 18:00:00 2.30833 C 5.11 g/m*3 0.93 C 5.225 km/h
179 12-02-2015 19:00:00 1.35833 C 4.87 g/m*3 1.36 C 1.46667 km/h
180 12-02-2015 20:00:00 0.73333 C 4.79 g/m*3 0.73 C 0.8 km/h
181 12-02-2015 21:00:00 1.1 C 4.92 g/m*3 1.1 C 0.13333 km/h
182 12-02-2015 22:00:00 1.2 C 4.96 g/m*3 1.2 C 0.53333 km/h
183 12-02-2015 23:00:00 1.55 C 5.08 g/m*3 1.55 C 0.26667 km/h
184 13-02-2015 00:00:00 1.73333 C 5.07 g/m*3 1.73 C 0.13333 km/h
185 13-02-2015 01:00:00 1.675 C 5.05 g/m*3 1.68 C 0 km/h
186 13-02-2015 02:00:00 1.675 C 5.05 g/m*3 1.68 C 0.4 km/h
187 13-02-2015 03:00:00 1.8 C 5.07 g/m*3 1.8 C 1.6 km/h
188 13-02-2015 04:00:00 1.78333 C 5.04 g/m*3 1.78 C 2.00833 km/h
189 13-02-2015 05:00:00 1.675 C 4.96 g/m*3 1.68 C 1.46667 km/h
190 13-02-2015 06:00:00 1.6 C 4.94 g/m*3 1.6 C 3.73333 km/h
191 13-02-2015 07:00:00 1.53333 C 4.95 g/m*3 1.53 C 2.14167 km/h
192 13-02-2015 08:00:00 1.55 C 4.93 g/m*3 1.55 C 2.80833 km/h
193 13-02-2015 09:00:00 1.80833 C 4.99 g/m*3 1.81 C 3.33333 km/h
194 13-02-2015 10:00:00 2.225 C 5.04 g/m*3 2.23 C 4.94167 km/h
195 13-02-2015 11:00:00 2.45833 C 5 g/m*3 0.84 C 5.89167 km/h
196 13-02-2015 12:00:00 3.31667 C 5.18 g/m*3 3.32 C 4.53333 km/h
197 13-02-2015 13:00:00 4.9 C 5.51 g/m*3 3.6 C 6.025 km/h
198 13-02-2015 14:00:00 5.80833 C 5.68 g/m*3 4.56 C 6.29167 km/h
199 13-02-2015 15:00:00 5.73333 C 5.61 g/m*3 4.47 C 6.30833 km/h
200 13-02-2015 16:00:00 4.825 C 5.41 g/m*3 3.34 C 6.55 km/h
Sensor: Nr:Datum:Temp:Abs-Feuchte:Windchill:Wind:
Aussen-T/F 201 13-02-2015 17:00:00 3.54167 C 5.16 g/m*3 1.72 C 6.975 km/h
202 13-02-2015 18:00:00 1.78333 C 4.87 g/m*3 1.78 C 1.6 km/h
203 13-02-2015 19:00:00 0.80833 C 4.73 g/m*3 0.81 C 1.6 km/h
204 13-02-2015 20:00:00 0.95833 C 4.81 g/m*3 0.96 C 2.675 km/h
205 13-02-2015 21:00:00 0.73333 C 4.73 g/m*3 0.73 C 3.46667 km/h
206 13-02-2015 22:00:00 0.39167 C 4.68 g/m*3 0.39 C 2.66667 km/h
207 13-02-2015 23:00:00 0.25833 C 4.67 g/m*3 0.26 C 2.4 km/h
208 14-02-2015 00:00:00 0.18333 C 4.66 g/m*3 0.18 C 3.73333 km/h
209 14-02-2015 01:00:00 0.4 C 4.73 g/m*3 0.4 C 2.26667 km/h
210 14-02-2015 02:00:00 0.05 C 4.62 g/m*3 0.05 C 3.33333 km/h
211 14-02-2015 03:00:00 -0.19167 C 4.54 g/m*3 -0.19 C 2.13333 km/h
212 14-02-2015 04:00:00 -0.13333 C 4.58 g/m*3 -0.13 C 3.34167 km/h
213 14-02-2015 05:00:00 1.075 C 4.9 g/m*3 1.08 C 2.93333 km/h
214 14-02-2015 06:00:00 2.46667 C 5.09 g/m*3 0.61 C 6.55833 km/h
215 14-02-2015 07:00:00 2.6 C 5.03 g/m*3 1.06 C 5.74167 km/h
216 14-02-2015 08:00:00 2.725 C 5.06 g/m*3 1.15 C 5.88333 km/h
217 14-02-2015 09:00:00 3.575 C 5.13 g/m*3 1.81 C 6.825 km/h
218 14-02-2015 10:00:00 4.275 C 5.31 g/m*3 1.93 C 9.40833 km/h
219 14-02-2015 11:00:00 5.19167 C 5.57 g/m*3 5.19 C 3.86667 km/h
220 14-02-2015 12:00:00 6.43333 C 5.87 g/m*3 4.87 C 7.78333 km/h
221 14-02-2015 13:00:00 6.875 C 5.85 g/m*3 5.75 C 6.43333 km/h
222 14-02-2015 14:00:00 7.925 C 6.12 g/m*3 7.93 C 4.26667 km/h
223 14-02-2015 15:00:00 9.00833 C 6.27 g/m*3 8.04 C 7.11667 km/h
224 14-02-2015 16:00:00 8.59167 C 6.4 g/m*3 8.59 C 3.46667 km/h
225 14-02-2015 17:00:00 5.94167 C 6.06 g/m*3 5.94 C 4.4 km/h
Sensor: Nr:Datum:Temp:Abs-Feuchte:Windchill:Wind:
Aussen-T/F 226 14-02-2015 18:00:00 4.50833 C 5.85 g/m*3 4.51 C 3.2 km/h
227 14-02-2015 19:00:00 4.68333 C 5.91 g/m*3 4.68 C 2.93333 km/h
228 14-02-2015 20:00:00 4.1 C 5.67 g/m*3 4.1 C 4.8 km/h
229 14-02-2015 21:00:00 2.825 C 5.36 g/m*3 2.83 C 4.8 km/h
230 14-02-2015 22:00:00 3.175 C 5.5 g/m*3 3.18 C 1.73333 km/h
231 14-02-2015 23:00:00 3.34167 C 5.59 g/m*3 3.34 C 0.8 km/h
232 15-02-2015 00:00:00 2.26667 C 5.15 g/m*3 2.27 C 2.66667 km/h
233 15-02-2015 01:00:00 1.64167 C 4.91 g/m*3 1.64 C 4.53333 km/h
234 15-02-2015 02:00:00 0.36667 C 4.62 g/m*3 0.37 C 3.46667 km/h
235 15-02-2015 03:00:00 -0.10833 C 4.52 g/m*3 -0.11 C 3.2 km/h
236 15-02-2015 04:00:00 -0.525 C 4.42 g/m*3 -0.53 C 3.46667 km/h
237 15-02-2015 05:00:00 -0.78333 C 4.34 g/m*3 -0.78 C 1.73333 km/h
238 15-02-2015 06:00:00 -1.20833 C 4.21 g/m*3 -1.21 C 0.53333 km/h
239 15-02-2015 07:00:00 -1.475 C 4.15 g/m*3 -1.48 C 0.13333 km/h
240 15-02-2015 08:00:00 -1.425 C 4.18 g/m*3 -1.43 C 0 km/h
241 15-02-2015 09:00:00 -0.99167 C 4.34 g/m*3 -0.99 C 0 km/h
242 15-02-2015 10:00:00 0.05 C 4.63 g/m*3 0.05 C 2 km/h
243 15-02-2015 11:00:00 1.45833 C 4.9 g/m*3 1.46 C 2.53333 km/h
244 15-02-2015 12:00:00 2.775 C 5.18 g/m*3 2.78 C 2.4 km/h
245 15-02-2015 13:00:00 5.70833 C 5.46 g/m*3 5.71 C 4.95833 km/h
246 15-02-2015 14:00:00 6.75 C 5.71 g/m*3 6.75 C 4.66667 km/h
247 15-02-2015 15:00:00 6.81667 C 5.92 g/m*3 6.82 C 1.06667 km/h
248 15-02-2015 16:00:00 5.98333 C 5.84 g/m*3 5.98 C 4.4 km/h
249 15-02-2015 17:00:00 4.88333 C 5.49 g/m*3 3.54 C 6.13333 km/h
250 15-02-2015 18:00:00 3.33333 C 5.15 g/m*3 1.53 C 6.83333 km/h
Sensor: Nr:Datum:Temp:Abs-Feuchte:Windchill:Wind:
Aussen-T/F 251 15-02-2015 19:00:00 2.65 C 5.1 g/m*3 1.17 C 5.6 km/h
252 15-02-2015 20:00:00 1.95833 C 5 g/m*3 1.96 C 4.26667 km/h
253 15-02-2015 21:00:00 1.15833 C 4.78 g/m*3 1.16 C 4 km/h
254 15-02-2015 22:00:00 0.33333 C 4.59 g/m*3 0.33 C 1.2 km/h
255 15-02-2015 23:00:00 -0.15 C 4.5 g/m*3 -0.15 C 2.13333 km/h
256 16-02-2015 00:00:00 -0.64167 C 4.36 g/m*3 -0.64 C 1.46667 km/h
257 16-02-2015 01:00:00 -0.9 C 4.3 g/m*3 -0.9 C 0.13333 km/h
258 16-02-2015 02:00:00 -0.70833 C 4.38 g/m*3 -0.71 C 0.13333 km/h
259 16-02-2015 03:00:00 -0.49167 C 4.45 g/m*3 -0.49 C 0 km/h
260 16-02-2015 04:00:00 -0.19167 C 4.54 g/m*3 -0.19 C 0 km/h
261 16-02-2015 05:00:00 0.15 C 4.65 g/m*3 0.15 C 0 km/h
262 16-02-2015 06:00:00 0.55 C 4.75 g/m*3 0.55 C 0.4 km/h
263 16-02-2015 07:00:00 0.875 C 4.85 g/m*3 0.88 C 0.53333 km/h
264 16-02-2015 08:00:00 1.3 C 4.92 g/m*3 1.3 C 0.4 km/h
265 16-02-2015 09:00:00 2 C 4.94 g/m*3 2 C 1.06667 km/h
266 16-02-2015 10:00:00 2.53333 C 4.95 g/m*3 2.53 C 3.33333 km/h
267 16-02-2015 11:00:00 2.9 C 5 g/m*3 1.3 C 6.025 km/h
268 16-02-2015 12:00:00 3.18333 C 5.05 g/m*3 1.1 C 7.65833 km/h
269 16-02-2015 13:00:00 3.60833 C 5.15 g/m*3 1.8 C 6.975 km/h
270 16-02-2015 14:00:00 4.15833 C 5.25 g/m*3 2.66 C 6.29167 km/h
271 16-02-2015 15:00:00 4.00833 C 5.19 g/m*3 4.01 C 4.66667 km/h
272 16-02-2015 16:00:00 3.86667 C 5.17 g/m*3 3.87 C 4.4 km/h
273 16-02-2015 17:00:00 3.45 C 5.07 g/m*3 3.45 C 4.14167 km/h
274 16-02-2015 18:00:00 2.775 C 5 g/m*3 2.78 C 3.075 km/h
275 16-02-2015 19:00:00 2.50833 C 4.93 g/m*3 2.51 C 1.86667 km/h
Sensor: Nr:Datum:Temp:Abs-Feuchte:Windchill:Wind:
Aussen-T/F 276 16-02-2015 20:00:00 2.4 C 4.91 g/m*3 2.4 C 1.33333 km/h
277 16-02-2015 21:00:00 2.4 C 4.92 g/m*3 2.4 C 0.68571 km/h
278 16-02-2015 22:00:00 2.35 C 4.93 g/m*3 2.35 C 2.26667 km/h
279 16-02-2015 23:00:00 2.3 C 4.93 g/m*3 2.3 C 1.86667 km/h
280 17-02-2015 00:00:00 2.30833 C 4.94 g/m*3 2.31 C 1.6 km/h
281 17-02-2015 01:00:00 2.40833 C 4.99 g/m*3 2.41 C 0.8 km/h
282 17-02-2015 02:00:00 2.38333 C 5.03 g/m*3 2.38 C 0.53333 km/h
283 17-02-2015 03:00:00 2.3 C 4.93 g/m*3 2.3 C 2.14167 km/h
284 17-02-2015 04:00:00 2.125 C 4.89 g/m*3 2.13 C 3.075 km/h
285 17-02-2015 05:00:00 1.93333 C 4.9 g/m*3 1.93 C 4.26667 km/h
286 17-02-2015 06:00:00 1.9 C 4.95 g/m*3 1.9 C 4.13333 km/h
287 17-02-2015 07:00:00 1.9 C 4.95 g/m*3 1.9 C 4.80833 km/h
288 17-02-2015 08:00:00 1.95 C 4.93 g/m*3 0.58 C 5.09167 km/h
289 17-02-2015 09:00:00 2.15833 C 5 g/m*3 0.5 C 5.88333 km/h
290 17-02-2015 10:00:00 2.48333 C 5.11 g/m*3 2.48 C 3.46667 km/h
291 17-02-2015 11:00:00 2.925 C 5.25 g/m*3 2.93 C 3.6 km/h
292 17-02-2015 12:00:00 3.475 C 5.43 g/m*3 3.48 C 3.46667 km/h
293 17-02-2015 13:00:00 4.475 C 5.58 g/m*3 4.47 C 2.53333 km/h
294 17-02-2015 14:00:00 4.75833 C 5.59 g/m*3 4.76 C 4.41667 km/h
295 17-02-2015 15:00:00 4.86667 C 5.66 g/m*3 4.87 C 2.8 km/h
296 17-02-2015 16:00:00 4.875 C 5.68 g/m*3 4.88 C 1.86667 km/h
297 17-02-2015 17:00:00 4.68333 C 5.72 g/m*3 4.68 C 0 km/h
298 17-02-2015 18:00:00 4.33333 C 5.8 g/m*3 4.33 C 0.4 km/h
299 17-02-2015 19:00:00 4.2 C 5.83 g/m*3 4.2 C 0 km/h
300 17-02-2015 20:00:00 4.3 C 5.91 g/m*3 4.3 C 0.13333 km/h
Sensor: Nr:Datum:Temp:Abs-Feuchte:Windchill:Wind:
Aussen-T/F 301 17-02-2015 21:00:00 4.24167 C 5.95 g/m*3 4.24 C 0.13333 km/h
302 17-02-2015 22:00:00 4.23333 C 6.01 g/m*3 4.23 C 0.13333 km/h
303 17-02-2015 23:00:00 4.25833 C 6.02 g/m*3 4.26 C 0.13333 km/h
304 18-02-2015 00:00:00 4.25 C 5.93 g/m*3 4.25 C 2 km/h
305 18-02-2015 01:00:00 4.18333 C 5.88 g/m*3 4.18 C 0.26667 km/h
306 18-02-2015 02:00:00 4.1 C 5.89 g/m*3 4.1 C 2.26667 km/h
307 18-02-2015 03:00:00 4.1 C 5.95 g/m*3 4.1 C 0.4 km/h
308 18-02-2015 04:00:00 4.1 C 5.95 g/m*3 4.1 C 0.13333 km/h
309 18-02-2015 05:00:00 4 C 5.94 g/m*3 4 C 0 km/h
310 18-02-2015 06:00:00 3.63333 C 5.82 g/m*3 3.63 C 0 km/h
311 18-02-2015 07:00:00 3.71667 C 5.93 g/m*3 3.72 C 0 km/h
312 18-02-2015 08:00:00 3.9 C 6 g/m*3 3.9 C 1.33333 km/h
313 18-02-2015 09:00:00 4.14167 C 6.04 g/m*3 4.14 C 0.13333 km/h
314 18-02-2015 10:00:00 5.01667 C 6.25 g/m*3 5.02 C 2.13333 km/h
315 18-02-2015 11:00:00 5.73333 C 6.34 g/m*3 5.73 C 2.8 km/h
316 18-02-2015 12:00:00 6.01667 C 6.31 g/m*3 6.02 C 3.06667 km/h
317 18-02-2015 13:00:00 6.74167 C 6.29 g/m*3 6.74 C 4.53333 km/h
318 18-02-2015 14:00:00 6.83333 C 6.13 g/m*3 6.83 C 4 km/h
319 18-02-2015 15:00:00 6.88333 C 6.07 g/m*3 6.88 C 2.13333 km/h
320 18-02-2015 16:00:00 6.70833 C 5.92 g/m*3 6.71 C 1.33333 km/h
321 18-02-2015 17:00:00 6.13333 C 5.57 g/m*3 6.13 C 1.86667 km/h
322 18-02-2015 18:00:00 3.9 C 5.38 g/m*3 3.9 C 3.06667 km/h
323 18-02-2015 19:00:00 1.90833 C 4.96 g/m*3 1.91 C 3.86667 km/h
324 18-02-2015 20:00:00 1.29167 C 4.83 g/m*3 1.29 C 4.66667 km/h
325 18-02-2015 21:00:00 0.64167 C 4.69 g/m*3 0.64 C 2.8 km/h
Sensor: Nr:Datum:Temp:Abs-Feuchte:Windchill:Wind:
Aussen-T/F 326 18-02-2015 22:00:00 0.54167 C 4.65 g/m*3 0.54 C 3.46667 km/h
327 18-02-2015 23:00:00 -0.2 C 4.43 g/m*3 -0.2 C 0.66667 km/h
328 19-02-2015 00:00:00 -0.76667 C 4.32 g/m*3 -0.77 C 1.33333 km/h
329 19-02-2015 01:00:00 -1.24167 C 4.21 g/m*3 -1.24 C 0.66667 km/h
330 19-02-2015 02:00:00 -1.45 C 4.16 g/m*3 -1.45 C 0.26667 km/h
331 19-02-2015 03:00:00 -1.65833 C 4.12 g/m*3 -1.66 C 0.13333 km/h
332 19-02-2015 04:00:00 -1.18333 C 4.28 g/m*3 -1.18 C 0 km/h
333 19-02-2015 05:00:00 -0.38333 C 4.53 g/m*3 -0.38 C 1.6 km/h
334 19-02-2015 06:00:00 0.29167 C 4.7 g/m*3 0.29 C 2.14167 km/h
335 19-02-2015 07:00:00 0.64167 C 4.66 g/m*3 0.64 C 1.86667 km/h
336 19-02-2015 08:00:00 0.64167 C 4.58 g/m*3 0.64 C 4.675 km/h
337 19-02-2015 09:00:00 0.7 C 4.55 g/m*3 -0.95 C 5.35 km/h
338 19-02-2015 10:00:00 0.83333 C 4.5 g/m*3 -1.74 C 7.93333 km/h
339 19-02-2015 11:00:00 1.36667 C 4.57 g/m*3 -1.27 C 8.46667 km/h
340 19-02-2015 12:00:00 2.025 C 4.7 g/m*3 -0.49 C 8.46667 km/h
341 19-02-2015 13:00:00 2.20833 C 4.71 g/m*3 -0.12 C 7.91667 km/h
342 19-02-2015 14:00:00 2.53333 C 4.73 g/m*3 0.46 C 7.25833 km/h
343 19-02-2015 15:00:00 2.75833 C 4.74 g/m*3 0.34 C 8.59167 km/h
344 19-02-2015 16:00:00 2.55833 C 4.72 g/m*3 0.17 C 8.325 km/h
345 19-02-2015 17:00:00 2.575 C 4.77 g/m*3 2.58 C 4.54167 km/h
346 19-02-2015 18:00:00 2.33333 C 4.72 g/m*3 2.33 C 3.06667 km/h
347 19-02-2015 19:00:00 2.2 C 4.67 g/m*3 2.2 C 4.55 km/h
348 19-02-2015 20:00:00 1.94167 C 4.59 g/m*3 1.94 C 3.475 km/h
349 19-02-2015 21:00:00 1.45833 C 4.54 g/m*3 1.46 C 1.875 km/h
350 19-02-2015 22:00:00 1.1 C 4.53 g/m*3 1.1 C 2.66667 km/h
Sensor: Nr:Datum:Temp:Abs-Feuchte:Windchill:Wind:
Aussen-T/F 351 19-02-2015 23:00:00 1.28333 C 4.6 g/m*3 1.28 C 0.53333 km/h
352 20-02-2015 00:00:00 0.85 C 4.62 g/m*3 0.85 C 0 km/h
353 20-02-2015 01:00:00 1.375 C 4.73 g/m*3 1.38 C 0.66667 km/h
354 20-02-2015 02:00:00 1.79167 C 4.88 g/m*3 1.79 C 0.8 km/h
355 20-02-2015 03:00:00 3.825 C 5.35 g/m*3 1.7 C 8.20833 km/h
356 20-02-2015 04:00:00 4.43333 C 5.37 g/m*3 3.2 C 5.63333 km/h
357 20-02-2015 05:00:00 3.875 C 5.37 g/m*3 3.88 C 2.66667 km/h
358 20-02-2015 06:00:00 3.475 C 5.45 g/m*3 3.48 C 1.46667 km/h
359 20-02-2015 07:00:00 3.31667 C 5.47 g/m*3 3.32 C 1.06667 km/h
360 20-02-2015 08:00:00 4.61667 C 5.8 g/m*3 4.62 C 2.53333 km/h
361 20-02-2015 09:00:00 6.65 C 6.09 g/m*3 5.49 C 6.425 km/h
362 20-02-2015 10:00:00 7.375 C 6.27 g/m*3 6.75 C 5.08333 km/h
363 20-02-2015 11:00:00 8.90833 C 6.56 g/m*3 6.67 C 14.225 km/h
364 20-02-2015 12:00:00 9.54167 C 6.56 g/m*3 7.28 C 15.56667 km/h
365 20-02-2015 13:00:00 9.81667 C 6.48 g/m*3 7.32 C 18.25 km/h
366 20-02-2015 14:00:00 9.80833 C 6.5 g/m*3 8.66 C 8.6 km/h
367 20-02-2015 15:00:00 10.55833 C 6.46 g/m*3 9.62 C 8.19167 km/h
368 20-02-2015 16:00:00 11.60833 C 6.24 g/m*3 11.61 C 10.225 km/h
369 20-02-2015 17:00:00 11.21667 C 6.22 g/m*3 11.22 C 4.41667 km/h
370 20-02-2015 18:00:00 9.45 C 6.45 g/m*3 9.45 C 2.66667 km/h
371 20-02-2015 19:00:00 9.11667 C 6.39 g/m*3 9.12 C 2.94167 km/h
372 20-02-2015 20:00:00 9.78333 C 6.33 g/m*3 8.83 C 7.64167 km/h
373 20-02-2015 21:00:00 9.49167 C 6.63 g/m*3 8.71 C 6.7 km/h
374 20-02-2015 22:00:00 8.31667 C 6.78 g/m*3 8.32 C 4.68333 km/h
375 20-02-2015 23:00:00 7.93333 C 6.69 g/m*3 7.93 C 2.53333 km/h
Sensor: Nr:Datum:Temp:Abs-Feuchte:Windchill:Wind:
Aussen-T/F 376 21-02-2015 00:00:00 7.21667 C 6.73 g/m*3 7.22 C 2.53333 km/h
377 21-02-2015 01:00:00 7.44167 C 6.67 g/m*3 7.44 C 3.6 km/h
378 21-02-2015 02:00:00 7.425 C 6.57 g/m*3 6.76 C 5.21667 km/h
379 21-02-2015 03:00:00 6.94167 C 6.59 g/m*3 6.94 C 3.34167 km/h
380 21-02-2015 04:00:00 7.325 C 6.57 g/m*3 6.05 C 7.24167 km/h
381 21-02-2015 05:00:00 6.71667 C 6.63 g/m*3 5.69 C 6.025 km/h
382 21-02-2015 06:00:00 6.5 C 6.67 g/m*3 5.12 C 7.11667 km/h
383 21-02-2015 07:00:00 6.36667 C 6.55 g/m*3 4.22 C 10.35 km/h
384 21-02-2015 08:00:00 5.29167 C 5.8 g/m*3 2.91 C 10.475 km/h
385 21-02-2015 09:00:00 4.66667 C 5.76 g/m*3 3.67 C 5.08333 km/h
386 21-02-2015 10:00:00 4.85833 C 5.87 g/m*3 3.84 C 5.225 km/h
387 21-02-2015 11:00:00 5.28333 C 5.97 g/m*3 5.28 C 4.81667 km/h
388 21-02-2015 12:00:00 5.7 C 6.04 g/m*3 4.15 C 7.25833 km/h
389 21-02-2015 13:00:00 5.8 C 6.2 g/m*3 4.91 C 5.20833 km/h
390 21-02-2015 14:00:00 6.73333 C 6.14 g/m*3 4.79 C 9.68333 km/h
391 21-02-2015 15:00:00 6.33333 C 5.8 g/m*3 4.38 C 9.39167 km/h
392 21-02-2015 16:00:00 6.28333 C 5.52 g/m*3 4.73 C 7.65 km/h
393 21-02-2015 17:00:00 5.55833 C 5.41 g/m*3 5.56 C 4.275 km/h
394 21-02-2015 18:00:00 4.33333 C 5.41 g/m*3 4.33 C 3.86667 km/h
395 21-02-2015 19:00:00 3.1 C 5.31 g/m*3 3.1 C 3.06667 km/h
396 21-02-2015 20:00:00 2.35 C 5.22 g/m*3 2.35 C 1.46667 km/h
397 21-02-2015 21:00:00 1.75 C 5.08 g/m*3 1.75 C 0.26667 km/h
398 21-02-2015 22:00:00 1.3 C 4.96 g/m*3 1.3 C 0 km/h
399 21-02-2015 23:00:00 1.33333 C 5.01 g/m*3 1.33 C 0 km/h
400 22-02-2015 00:00:00 1.61667 C 5.13 g/m*3 1.62 C 1.33333 km/h
Sensor: Nr:Datum:Temp:Abs-Feuchte:Windchill:Wind:
Aussen-T/F 401 22-02-2015 01:00:00 1.68333 C 5.17 g/m*3 1.68 C 0 km/h
402 22-02-2015 02:00:00 2.10833 C 5.33 g/m*3 2.11 C 0.13333 km/h
403 22-02-2015 03:00:00 2.38333 C 5.46 g/m*3 2.38 C 0 km/h
404 22-02-2015 04:00:00 2.55 C 5.48 g/m*3 2.55 C 0.53333 km/h
405 22-02-2015 05:00:00 2.73333 C 5.53 g/m*3 2.73 C 0 km/h
406 22-02-2015 06:00:00 2.8 C 5.57 g/m*3 2.8 C 0.66667 km/h
407 22-02-2015 07:00:00 2.94167 C 5.54 g/m*3 2.94 C 2.4 km/h
408 22-02-2015 08:00:00 3.09167 C 5.5 g/m*3 3.09 C 2 km/h
409 22-02-2015 09:00:00 3.66667 C 5.51 g/m*3 3.67 C 0.8 km/h
410 22-02-2015 10:00:00 4.45 C 5.57 g/m*3 4.45 C 3.33333 km/h
411 22-02-2015 11:00:00 5.05 C 5.44 g/m*3 5.05 C 1.86667 km/h
412 22-02-2015 12:00:00 6.16667 C 5.25 g/m*3 6.17 C 4.54167 km/h
413 22-02-2015 13:00:00 7.73333 C 5.09 g/m*3 6.7 C 6.575 km/h
414 22-02-2015 14:00:00 7.525 C 4.62 g/m*3 6.36 C 6.96667 km/h
415 22-02-2015 15:00:00 7.70833 C 4.64 g/m*3 6.95 C 5.63333 km/h
416 22-02-2015 16:00:00 7.51667 C 4.71 g/m*3 6.53 C 6.30833 km/h
417 22-02-2015 17:00:00 6.39167 C 4.83 g/m*3 5.31 C 6.03333 km/h
418 22-02-2015 18:00:00 3.13333 C 4.78 g/m*3 3.13 C 2.53333 km/h
419 22-02-2015 19:00:00 1.95833 C 4.67 g/m*3 1.96 C 4 km/h
420 22-02-2015 20:00:00 1.51667 C 4.62 g/m*3 1.52 C 4.13333 km/h
421 22-02-2015 21:00:00 1.2 C 4.58 g/m*3 1.2 C 3.73333 km/h
422 22-02-2015 22:00:00 1.2 C 4.55 g/m*3 1.2 C 3.6 km/h
423 22-02-2015 23:00:00 2.175 C 4.66 g/m*3 0.67 C 5.49167 km/h
424 23-02-2015 00:00:00 2.96667 C 4.71 g/m*3 2.97 C 3.75 km/h
425 23-02-2015 01:00:00 3.675 C 4.63 g/m*3 2.49 C 5.225 km/h
Sensor: Nr:Datum:Temp:Abs-Feuchte:Windchill:Wind:
Aussen-T/F 426 23-02-2015 02:00:00 3.99167 C 4.67 g/m*3 3.99 C 4.275 km/h
427 23-02-2015 03:00:00 4.19167 C 4.63 g/m*3 4.19 C 2.94167 km/h
428 23-02-2015 04:00:00 4.36667 C 4.54 g/m*3 2.53 C 7.50833 km/h
429 23-02-2015 05:00:00 4.28333 C 4.62 g/m*3 2.07 C 8.86667 km/h
430 23-02-2015 06:00:00 3.59167 C 4.89 g/m*3 3.59 C 4.41667 km/h
431 23-02-2015 07:00:00 1.875 C 5.01 g/m*3 1.88 C 0.4 km/h
432 23-02-2015 08:00:00 1.13333 C 4.92 g/m*3 1.13 C 0 km/h
433 23-02-2015 09:00:00 1.075 C 4.96 g/m*3 1.08 C 0 km/h
434 23-02-2015 10:00:00 1.1 C 4.98 g/m*3 1.1 C 0.13333 km/h
435 23-02-2015 11:00:00 1.24167 C 5.07 g/m*3 1.24 C 0 km/h
436 23-02-2015 12:00:00 1.83333 C 5.3 g/m*3 1.83 C 0.26667 km/h
437 23-02-2015 13:00:00 3.01667 C 5.77 g/m*3 3.02 C 2.40833 km/h
438 23-02-2015 14:00:00 4.21667 C 6.22 g/m*3 4.22 C 3.08333 km/h
439 23-02-2015 15:00:00 5.075 C 6.5 g/m*3 3.79 C 6.05 km/h
440 23-02-2015 16:00:00 5.61667 C 6.58 g/m*3 3.91 C 7.79167 km/h
441 23-02-2015 17:00:00 5.55 C 6.61 g/m*3 5.55 C 3.60833 km/h
442 23-02-2015 18:00:00 4.74167 C 6.32 g/m*3 4.74 C 3.2 km/h
443 23-02-2015 19:00:00 4.74167 C 6.4 g/m*3 3.24 C 6.56667 km/h
444 23-02-2015 20:00:00 4.825 C 6.34 g/m*3 4.83 C 4 km/h
445 23-02-2015 21:00:00 3.74167 C 5.98 g/m*3 3.74 C 2.93333 km/h
446 23-02-2015 22:00:00 3.30833 C 5.84 g/m*3 3.31 C 2.93333 km/h
447 23-02-2015 23:00:00 3.10833 C 5.81 g/m*3 3.11 C 2 km/h
448 24-02-2015 00:00:00 2.96667 C 5.75 g/m*3 2.97 C 1.2 km/h
449 24-02-2015 01:00:00 2.4 C 5.54 g/m*3 2.4 C 1.46667 km/h
450 24-02-2015 02:00:00 2.01667 C 5.4 g/m*3 2.02 C 2.13333 km/h
Sensor: Nr:Datum:Temp:Abs-Feuchte:Windchill:Wind:
Aussen-T/F 451 24-02-2015 03:00:00 3.31667 C 5.76 g/m*3 1.98 C 5.475 km/h
452 24-02-2015 04:00:00 4.29167 C 5.59 g/m*3 1.77 C 10.20833 km/h
453 24-02-2015 05:00:00 3.975 C 5.42 g/m*3 1.85 C 8.31667 km/h
454 24-02-2015 06:00:00 3.74167 C 5.36 g/m*3 2.27 C 6.025 km/h
455 24-02-2015 07:00:00 4.075 C 5.37 g/m*3 2.14 C 7.65 km/h
456 24-02-2015 08:00:00 4.15 C 5.34 g/m*3 1.01 C 13.15 km/h
457 24-02-2015 09:00:00 4.475 C 5.44 g/m*3 0.82 C 16.9 km/h
458 24-02-2015 10:00:00 5.20833 C 5.65 g/m*3 1.64 C 17.56667 km/h
459 24-02-2015 11:00:00 5.81667 C 5.78 g/m*3 2.13 C 19.70833 km/h
460 24-02-2015 12:00:00 6.675 C 5.96 g/m*3 3.32 C 18.76667 km/h
461 24-02-2015 13:00:00 6.9 C 5.97 g/m*3 3.98 C 15.83333 km/h
462 24-02-2015 14:00:00 7.10833 C 6 g/m*3 4.66 C 12.9 km/h
463 24-02-2015 15:00:00 7.05 C 5.96 g/m*3 4.53 C 13.3 km/h
464 24-02-2015 16:00:00 7.175 C 6.06 g/m*3 5.32 C 9.68333 km/h
465 24-02-2015 17:00:00 6.85833 C 6.03 g/m*3 5.47 C 7.39167 km/h
466 24-02-2015 18:00:00 5.58333 C 5.91 g/m*3 4.62 C 5.34167 km/h
467 24-02-2015 19:00:00 5.225 C 5.91 g/m*3 4.26 C 5.20833 km/h
468 24-02-2015 20:00:00 5.575 C 5.89 g/m*3 4.25 C 6.43333 km/h
469 24-02-2015 21:00:00 5.275 C 5.9 g/m*3 3.66 C 7.25 km/h
470 24-02-2015 22:00:00 4.19167 C 5.69 g/m*3 3.08 C 5.21667 km/h
471 24-02-2015 23:00:00 3.21667 C 5.52 g/m*3 3.22 C 4.81667 km/h
472 25-02-2015 00:00:00 3.50833 C 5.62 g/m*3 3.51 C 4.40833 km/h
473 25-02-2015 01:00:00 2.93333 C 5.51 g/m*3 2.93 C 3.06667 km/h
474 25-02-2015 02:00:00 3.025 C 5.57 g/m*3 3.03 C 1.06667 km/h
475 25-02-2015 03:00:00 2.78333 C 5.53 g/m*3 2.78 C 1.33333 km/h
Sensor: Nr:Datum:Temp:Abs-Feuchte:Windchill:Wind:
Aussen-T/F 476 25-02-2015 04:00:00 2.58333 C 5.43 g/m*3 2.58 C 1.46667 km/h
477 25-02-2015 05:00:00 2.14167 C 5.3 g/m*3 2.14 C 2.13333 km/h
478 25-02-2015 06:00:00 1.4 C 5.05 g/m*3 1.4 C 1.2 km/h
479 25-02-2015 07:00:00 0.925 C 4.91 g/m*3 0.93 C 0.53333 km/h
480 25-02-2015 08:00:00 1.49167 C 5.16 g/m*3 1.49 C 2.8 km/h
481 25-02-2015 09:00:00 2.90833 C 5.52 g/m*3 0.27 C 9.55 km/h
482 25-02-2015 10:00:00 4.38333 C 5.69 g/m*3 1.37 C 12.76667 km/h
483 25-02-2015 11:00:00 5.25833 C 5.73 g/m*3 2.92 C 10.225 km/h
484 25-02-2015 12:00:00 7.00833 C 5.98 g/m*3 5.18 C 9.40833 km/h
485 25-02-2015 13:00:00 7.83333 C 5.99 g/m*3 5.72 C 11.83333 km/h
486 25-02-2015 14:00:00 7.925 C 5.88 g/m*3 5.68 C 12.76667 km/h
487 25-02-2015 15:00:00 7.89167 C 5.8 g/m*3 5.68 C 12.5 km/h
488 25-02-2015 16:00:00 7.25 C 5.77 g/m*3 5.41 C 9.68333 km/h
489 25-02-2015 17:00:00 5.99167 C 6.24 g/m*3 5.99 C 2.00833 km/h
490 25-02-2015 18:00:00 4.75 C 6.28 g/m*3 4.75 C 1.46667 km/h
491 25-02-2015 19:00:00 4.21667 C 6.17 g/m*3 4.22 C 0.13333 km/h
492 25-02-2015 20:00:00 4.10833 C 6.15 g/m*3 4.11 C 0 km/h
493 25-02-2015 21:00:00 4.14167 C 6.23 g/m*3 4.14 C 0.26667 km/h
494 25-02-2015 22:00:00 4.15833 C 6.23 g/m*3 4.16 C 0 km/h
495 25-02-2015 23:00:00 4.2 C 6.25 g/m*3 4.2 C 0 km/h
496 26-02-2015 00:00:00 4.2 C 6.25 g/m*3 4.2 C 0 km/h
497 26-02-2015 01:00:00 4.29167 C 6.29 g/m*3 4.29 C 1.33333 km/h
498 26-02-2015 02:00:00 4.19167 C 6.25 g/m*3 4.19 C 1.06667 km/h
499 26-02-2015 03:00:00 3.58333 C 6 g/m*3 3.58 C 0.8 km/h
500 26-02-2015 04:00:00 3.4 C 5.96 g/m*3 3.4 C 0 km/h
Sensor: Nr:Datum:Temp:Abs-Feuchte:Windchill:Wind:
Aussen-T/F 501 26-02-2015 05:00:00 3.5 C 6.01 g/m*3 3.5 C 0 km/h
502 26-02-2015 06:00:00 3.525 C 6.03 g/m*3 3.53 C 0 km/h
503 26-02-2015 07:00:00 3.25833 C 5.93 g/m*3 3.26 C 0 km/h
504 26-02-2015 08:00:00 3.35833 C 5.97 g/m*3 3.36 C 0.13333 km/h
505 26-02-2015 09:00:00 4.46667 C 6.43 g/m*3 4.47 C 3.46667 km/h
506 26-02-2015 10:00:00 6.40833 C 7.13 g/m*3 6.41 C 4.68333 km/h
507 26-02-2015 11:00:00 8.04167 C 7.12 g/m*3 8.04 C 4.14167 km/h
508 26-02-2015 12:00:00 8.45833 C 6.89 g/m*3 8.46 C 4.95 km/h
509 26-02-2015 13:00:00 8.85 C 6.85 g/m*3 8.85 C 4.54167 km/h
510 26-02-2015 14:00:00 9.225 C 6.83 g/m*3 9.23 C 4.26667 km/h
511 26-02-2015 15:00:00 9.575 C 6.66 g/m*3 8.74 C 6.975 km/h
512 26-02-2015 16:00:00 9.21667 C 6.59 g/m*3 8.42 C 6.58333 km/h
513 26-02-2015 17:00:00 8.45 C 6.65 g/m*3 8.45 C 1.73333 km/h
514 26-02-2015 18:00:00 7.1 C 6.77 g/m*3 7.1 C 0.66667 km/h
515 26-02-2015 19:00:00 6.49167 C 6.73 g/m*3 6.49 C 1.86667 km/h
516 26-02-2015 20:00:00 6.4 C 6.71 g/m*3 6.4 C 1.06667 km/h
517 26-02-2015 21:00:00 6.43333 C 6.73 g/m*3 6.43 C 0.8 km/h
518 26-02-2015 22:00:00 6.60833 C 6.73 g/m*3 6.61 C 3.46667 km/h
519 26-02-2015 23:00:00 6.49167 C 6.86 g/m*3 6.49 C 0.4 km/h
520 27-02-2015 00:00:00 5.9 C 6.87 g/m*3 5.9 C 0 km/h
521 27-02-2015 01:00:00 5.79167 C 6.88 g/m*3 5.79 C 0.4 km/h
522 27-02-2015 02:00:00 5.65833 C 6.87 g/m*3 5.66 C 0 km/h
523 27-02-2015 03:00:00 5.69167 C 6.9 g/m*3 5.69 C 0 km/h
524 27-02-2015 04:00:00 5.61667 C 6.87 g/m*3 5.62 C 0 km/h
525 27-02-2015 05:00:00 5.56667 C 6.84 g/m*3 5.57 C 0 km/h
Sensor: Nr:Datum:Temp:Abs-Feuchte:Windchill:Wind:
Aussen-T/F 526 27-02-2015 06:00:00 5.45 C 6.82 g/m*3 5.45 C 0 km/h
527 27-02-2015 07:00:00 5.53333 C 6.89 g/m*3 5.53 C 4.425 km/h
528 27-02-2015 08:00:00 4.91667 C 6.41 g/m*3 1.81 C 13.96667 km/h
529 27-02-2015 09:00:00 4.29167 C 6.07 g/m*3 0.81 C 15.44167 km/h
530 27-02-2015 10:00:00 4.99167 C 6.24 g/m*3 1.57 C 16.1 km/h
531 27-02-2015 11:00:00 5.45 C 6.4 g/m*3 3.42 C 9 km/h
532 27-02-2015 12:00:00 6.11667 C 6.52 g/m*3 3.55 C 12.36667 km/h
533 27-02-2015 13:00:00 6.15833 C 6.36 g/m*3 3.92 C 10.61667 km/h
534 27-02-2015 14:00:00 5.91667 C 6.14 g/m*3 3.76 C 9.96667 km/h
535 27-02-2015 15:00:00 5.96667 C 6.16 g/m*3 4 C 9.15 km/h
536 27-02-2015 16:00:00 5.90833 C 5.96 g/m*3 4.05 C 8.6 km/h
537 27-02-2015 17:00:00 5.83333 C 5.89 g/m*3 5.83 C 4.68333 km/h
538 27-02-2015 18:00:00 5.11667 C 5.92 g/m*3 5.12 C 1.73333 km/h
539 27-02-2015 19:00:00 4.25 C 5.75 g/m*3 4.25 C 3.33333 km/h
540 27-02-2015 20:00:00 3.13333 C 5.46 g/m*3 3.13 C 3.06667 km/h
541 27-02-2015 21:00:00 2.70833 C 5.38 g/m*3 2.71 C 0.93333 km/h
542 27-02-2015 22:00:00 2.40833 C 5.28 g/m*3 2.41 C 1.73333 km/h
543 27-02-2015 23:00:00 2.04167 C 5.13 g/m*3 2.04 C 2 km/h
544 28-02-2015 00:00:00 2.39167 C 5.2 g/m*3 2.39 C 2.8 km/h
545 28-02-2015 01:00:00 1.2 C 4.86 g/m*3 1.2 C 0.26667 km/h
546 28-02-2015 02:00:00 0.33333 C 4.69 g/m*3 0.33 C 1.06667 km/h
547 28-02-2015 03:00:00 0.01667 C 4.63 g/m*3 0.02 C 0.53333 km/h
548 28-02-2015 04:00:00 -0.29167 C 4.55 g/m*3 -0.29 C 0.53333 km/h
549 28-02-2015 05:00:00 -0.76667 C 4.41 g/m*3 -0.77 C 0.4 km/h
550 28-02-2015 06:00:00 -1.00833 C 4.34 g/m*3 -1.01 C 0 km/h
Sensor: Nr:Datum:Temp:Abs-Feuchte:Windchill:Wind:
Aussen-T/F 551 28-02-2015 07:00:00 -1.10833 C 4.34 g/m*3 -1.11 C 0.4 km/h
552 28-02-2015 08:00:00 -1.03333 C 4.37 g/m*3 -1.03 C 1.2 km/h
553 28-02-2015 09:00:00 -0.475 C 4.56 g/m*3 -0.48 C 0.93333 km/h
554 28-02-2015 10:00:00 0.28333 C 4.82 g/m*3 0.28 C 1.2 km/h
555 28-02-2015 11:00:00 1.15833 C 5.14 g/m*3 1.16 C 1.73333 km/h
556 28-02-2015 12:00:00 4.24167 C 5.57 g/m*3 1.86 C 9.53333 km/h
557 28-02-2015 13:00:00 6.69167 C 5.12 g/m*3 4.27 C 12.23333 km/h
558 28-02-2015 14:00:00 7.48333 C 5.2 g/m*3 5.1 C 13.03333 km/h
559 28-02-2015 15:00:00 8.39167 C 4.94 g/m*3 6.74 C 9.81667 km/h
560 28-02-2015 16:00:00 7.88333 C 4.7 g/m*3 6.16 C 9.68333 km/h
561 28-02-2015 17:00:00 5.825 C 5.23 g/m*3 5.83 C 3.06667 km/h
562 28-02-2015 18:00:00 3.33333 C 5.1 g/m*3 2.06 C 5.33333 km/h
563 28-02-2015 19:00:00 2.24167 C 4.93 g/m*3 0.65 C 5.73333 km/h
564 28-02-2015 20:00:00 1.85833 C 4.82 g/m*3 1.86 C 4.8 km/h
565 28-02-2015 21:00:00 1.84167 C 4.79 g/m*3 1.84 C 4.8 km/h
566 28-02-2015 22:00:00 2.46667 C 4.85 g/m*3 2.47 C 3.6 km/h
567 28-02-2015 23:00:00 3.96667 C 4.81 g/m*3 3.97 C 3.75 km/h
568 01-03-2015 00:00:00 4.11667 C 4.91 g/m*3 4.12 C 2.13333 km/h
569 01-03-2015 01:00:00 4.56667 C 4.84 g/m*3 4.57 C 3.74167 km/h
570 01-03-2015 02:00:00 5.20833 C 4.8 g/m*3 5.21 C 4.275 km/h
571 01-03-2015 03:00:00 5.15833 C 5.17 g/m*3 5.16 C 4.81667 km/h
572 01-03-2015 04:00:00 4.19167 C 5.83 g/m*3 4.19 C 1.6 km/h
573 01-03-2015 05:00:00 3.80833 C 5.89 g/m*3 3.81 C 0.66667 km/h
574 01-03-2015 06:00:00 4.10833 C 6.01 g/m*3 4.11 C 2.8 km/h
575 01-03-2015 07:00:00 4.49167 C 6.21 g/m*3 4.49 C 2.53333 km/h
Sensor: Nr:Datum:Temp:Abs-Feuchte:Windchill:Wind:
Aussen-T/F 576 01-03-2015 08:00:00 5.48333 C 6.61 g/m*3 3.9 C 7.24167 km/h
577 01-03-2015 09:00:00 6.99167 C 6.99 g/m*3 5.13 C 9.54167 km/h
578 01-03-2015 10:00:00 7.78333 C 7.35 g/m*3 6.21 C 8.875 km/h
579 01-03-2015 11:00:00 8.94167 C 7.58 g/m*3 7.08 C 11.7 km/h
580 01-03-2015 12:00:00 10.29167 C 7.93 g/m*3 8.62 C 12.36667 km/h
581 01-03-2015 13:00:00 11.425 C 7.27 g/m*3 11.43 C 23.05833 km/h
582 01-03-2015 14:00:00 11.56667 C 6.57 g/m*3 11.57 C 15.3 km/h
583 01-03-2015 15:00:00 11.8 C 6.92 g/m*3 11.8 C 13.95833 km/h
584 01-03-2015 16:00:00 11.85833 C 7.09 g/m*3 11.86 C 16.36667 km/h
585 01-03-2015 17:00:00 10.50833 C 7.16 g/m*3 9.29 C 9.675 km/h
586 01-03-2015 18:00:00 8.175 C 7.23 g/m*3 8.18 C 3.73333 km/h
587 01-03-2015 19:00:00 7.68333 C 7.04 g/m*3 7.68 C 2.93333 km/h
588 01-03-2015 20:00:00 8.45833 C 6.9 g/m*3 8.46 C 4.15 km/h
589 01-03-2015 21:00:00 9.125 C 6.92 g/m*3 9.13 C 4.14167 km/h
590 01-03-2015 22:00:00 9.39167 C 7.14 g/m*3 7.94 C 9.8 km/h
591 01-03-2015 23:00:00 10.025 C 7.16 g/m*3 8.58 C 10.48333 km/h
592 02-03-2015 00:00:00 9.69167 C 7.25 g/m*3 8.09 C 11.025 km/h
593 02-03-2015 01:00:00 9.06667 C 7.62 g/m*3 7.53 C 9.925 km/h
594 02-03-2015 02:00:00 9.2 C 7.47 g/m*3 6.86 C 15.56667 km/h
595 02-03-2015 03:00:00 7.86667 C 6.49 g/m*3 5.39 C 14.23333 km/h
596 02-03-2015 04:00:00 7.21667 C 6.21 g/m*3 6 C 6.96667 km/h
597 02-03-2015 05:00:00 6.78333 C 6.18 g/m*3 6.07 C 5.09167 km/h
598 02-03-2015 06:00:00 6.51667 C 5.86 g/m*3 4.93 C 7.93333 km/h
599 02-03-2015 07:00:00 5.84167 C 5.91 g/m*3 3.88 C 8.99167 km/h
600 02-03-2015 08:00:00 5.26667 C 5.85 g/m*3 2.71 C 11.29167 km/h
Sensor: Nr:Datum:Temp:Abs-Feuchte:Windchill:Wind:
Aussen-T/F 601 02-03-2015 09:00:00 5.05 C 5.91 g/m*3 2.18 C 12.75 km/h
602 02-03-2015 10:00:00 5.63333 C 5.92 g/m*3 5.63 C 4.41667 km/h
603 02-03-2015 11:00:00 6.90833 C 5.75 g/m*3 5.56 C 7.25 km/h
604 02-03-2015 12:00:00 8.58333 C 5.36 g/m*3 5.99 C 16.36667 km/h
605 02-03-2015 13:00:00 9.375 C 5.02 g/m*3 6.68 C 19.04167 km/h
606 02-03-2015 14:00:00 9.55833 C 4.74 g/m*3 7.11 C 17.16667 km/h
607 02-03-2015 15:00:00 9.475 C 4.6 g/m*3 6.85 C 18.63333 km/h
608 02-03-2015 16:00:00 5.98333 C 5.7 g/m*3 2.5 C 18.375 km/h
609 02-03-2015 17:00:00 4.675 C 5.74 g/m*3 1.01 C 17.30833 km/h
610 02-03-2015 18:00:00 3.30833 C 5.31 g/m*3 -0.02 C 13.16667 km/h
611 02-03-2015 19:00:00 2.74167 C 5.31 g/m*3 1.21 C 5.76667 km/h
612 02-03-2015 20:00:00 2.33333 C 5.27 g/m*3 -1.05 C 12.35833 km/h
613 02-03-2015 21:00:00 2.33333 C 5.16 g/m*3 -0.83 C 11.3 km/h
614 02-03-2015 22:00:00 2.23333 C 5.2 g/m*3 0.69 C 5.625 km/h
615 02-03-2015 23:00:00 1.875 C 5.12 g/m*3 0.44 C 5.21667 km/h
616 03-03-2015 00:00:00 2.225 C 5.08 g/m*3 0.06 C 7.38333 km/h
617 03-03-2015 01:00:00 3.225 C 5.06 g/m*3 0.64 C 9.55833 km/h
618 03-03-2015 02:00:00 3.15833 C 4.96 g/m*3 0.8 C 8.60833 km/h
619 03-03-2015 03:00:00 2.31667 C 4.88 g/m*3 0.39 C 6.70833 km/h
620 03-03-2015 04:00:00 1.70833 C 4.84 g/m*3 0.15 C 5.475 km/h
621 03-03-2015 05:00:00 2.45833 C 4.98 g/m*3 1.16 C 5.09167 km/h
622 03-03-2015 06:00:00 2.8 C 5.01 g/m*3 1.14 C 6.15833 km/h
623 03-03-2015 07:00:00 2.775 C 4.99 g/m*3 0.42 C 8.34167 km/h
624 03-03-2015 08:00:00 2.64167 C 5.02 g/m*3 0.76 C 6.71667 km/h
625 03-03-2015 09:00:00 3.39167 C 5.21 g/m*3 1.19 C 8.2 km/h
Sensor: Nr:Datum:Temp:Abs-Feuchte:Windchill:Wind:
Aussen-T/F 626 03-03-2015 10:00:00 5.475 C 5.51 g/m*3 2.47 C 14.1 km/h
627 03-03-2015 11:00:00 7.375 C 5.51 g/m*3 4.62 C 15.43333 km/h
628 03-03-2015 12:00:00 8.575 C 5.53 g/m*3 5.75 C 18.36667 km/h
629 03-03-2015 13:00:00 9.575 C 5.43 g/m*3 6.83 C 20.10833 km/h
630 03-03-2015 14:00:00 10.61667 C 5.52 g/m*3 8.01 C 21.575 km/h
631 03-03-2015 15:00:00 10.65 C 5.5 g/m*3 8.16 C 20.36667 km/h
632 03-03-2015 16:00:00 10.44167 C 5.45 g/m*3 8.12 C 18.1 km/h
633 03-03-2015 17:00:00 9.40833 C 5.61 g/m*3 7.16 C 15.16667 km/h
634 03-03-2015 18:00:00 8.425 C 5.98 g/m*3 5.48 C 19.175 km/h
635 03-03-2015 19:00:00 5.89167 C 6.34 g/m*3 3.5 C 11.14167 km/h
636 03-03-2015 20:00:00 5.325 C 6.29 g/m*3 4.32 C 5.34167 km/h
637 03-03-2015 21:00:00 5.63333 C 6.23 g/m*3 3.73 C 8.59167 km/h
638 03-03-2015 22:00:00 4.84167 C 5.92 g/m*3 2.55 C 9.65833 km/h
639 03-03-2015 23:00:00 3.74167 C 5.63 g/m*3 1.29 C 9.40833 km/h
640 04-03-2015 00:00:00 3.64167 C 5.64 g/m*3 2.2 C 5.9 km/h
641 04-03-2015 01:00:00 3.85 C 5.59 g/m*3 1.55 C 8.875 km/h
642 04-03-2015 02:00:00 3.38333 C 5.5 g/m*3 1.3 C 7.76667 km/h
643 04-03-2015 03:00:00 2.975 C 5.5 g/m*3 1.54 C 5.61667 km/h
644 04-03-2015 04:00:00 2.26667 C 5.32 g/m*3 2.27 C 3.2 km/h
645 04-03-2015 05:00:00 1.675 C 5.13 g/m*3 1.68 C 3.60833 km/h
646 04-03-2015 06:00:00 1.525 C 5.11 g/m*3 1.53 C 3.73333 km/h
647 04-03-2015 07:00:00 1.43333 C 5.04 g/m*3 1.43 C 3.6 km/h
648 04-03-2015 08:00:00 2.20833 C 5.17 g/m*3 0.3 C 6.58333 km/h
649 04-03-2015 09:00:00 3.55 C 5.23 g/m*3 0.33 C 12.9 km/h
650 04-03-2015 10:00:00 4.35 C 5.39 g/m*3 1.26 C 13.15833 km/h
Sensor: Nr:Datum:Temp:Abs-Feuchte:Windchill:Wind:
Aussen-T/F 651 04-03-2015 11:00:00 5.71667 C 5.57 g/m*3 2.65 C 14.9 km/h
652 04-03-2015 12:00:00 7.05833 C 5.58 g/m*3 4.28 C 15.03333 km/h
653 04-03-2015 13:00:00 8.20833 C 5.47 g/m*3 5.75 C 14.63333 km/h
654 04-03-2015 14:00:00 8.01667 C 5.21 g/m*3 5.59 C 14.09167 km/h
655 04-03-2015 15:00:00 7.81667 C 5 g/m*3 5.49 C 13.16667 km/h
656 04-03-2015 16:00:00 7.60833 C 5.15 g/m*3 5.68 C 10.49167 km/h
657 04-03-2015 17:00:00 6.63333 C 5.45 g/m*3 4.44 C 10.85 km/h
658 04-03-2015 18:00:00 4.675 C 5.78 g/m*3 2.81 C 7.79167 km/h
659 04-03-2015 19:00:00 3.8 C 5.53 g/m*3 3.8 C 4.4 km/h
660 04-03-2015 20:00:00 3.70833 C 5.45 g/m*3 2.43 C 5.46667 km/h
661 04-03-2015 21:00:00 4.78333 C 5.44 g/m*3 2.9 C 7.925 km/h
662 04-03-2015 22:00:00 4.84167 C 5.64 g/m*3 2.61 C 9.39167 km/h
663 04-03-2015 23:00:00 4.7 C 5.75 g/m*3 2.73 C 8.2 km/h
664 05-03-2015 00:00:00 4.85 C 5.7 g/m*3 2.68 C 9.13333 km/h
665 05-03-2015 01:00:00 4.3 C 5.53 g/m*3 2.09 C 8.86667 km/h
666 05-03-2015 02:00:00 4.475 C 5.61 g/m*3 2.57 C 7.79167 km/h
667 05-03-2015 03:00:00 3.91667 C 5.5 g/m*3 2.2 C 6.84167 km/h
668 05-03-2015 04:00:00 3.375 C 5.39 g/m*3 3.38 C 4.40833 km/h
669 05-03-2015 05:00:00 3.71667 C 5.48 g/m*3 3.72 C 3.6 km/h
670 05-03-2015 06:00:00 3.21667 C 5.39 g/m*3 3.22 C 3.74167 km/h
671 05-03-2015 07:00:00 2.525 C 5.26 g/m*3 2.53 C 3.60833 km/h
672 05-03-2015 08:00:00 3.05 C 5.48 g/m*3 3.05 C 2.53333 km/h
673 05-03-2015 09:00:00 4.20833 C 5.68 g/m*3 2.71 C 6.3 km/h
674 05-03-2015 10:00:00 5.24167 C 5.8 g/m*3 3.44 C 7.93333 km/h
675 05-03-2015 11:00:00 5.75833 C 5.83 g/m*3 3.94 C 8.34167 km/h
Sensor: Nr:Datum:Temp:Abs-Feuchte:Windchill:Wind:
Aussen-T/F 676 05-03-2015 12:00:00 6.55 C 5.95 g/m*3 4.36 C 10.76667 km/h
677 05-03-2015 13:00:00 7.575 C 5.97 g/m*3 5.72 C 10.08333 km/h
678 05-03-2015 14:00:00 7.68333 C 5.75 g/m*3 5.51 C 11.95833 km/h
679 05-03-2015 15:00:00 8.25833 C 5.62 g/m*3 6.34 C 11.16667 km/h
680 05-03-2015 16:00:00 8.15833 C 5.64 g/m*3 6.65 C 8.88333 km/h
681 05-03-2015 17:00:00 7.55833 C 5.48 g/m*3 6.82 C 5.5 km/h
682 05-03-2015 18:00:00 6.25833 C 5.89 g/m*3 6.26 C 1.6 km/h
683 05-03-2015 19:00:00 5.41667 C 5.96 g/m*3 5.42 C 3.33333 km/h
684 05-03-2015 20:00:00 5.15833 C 5.99 g/m*3 5.16 C 0.8 km/h
685 05-03-2015 21:00:00 4.41667 C 5.8 g/m*3 4.42 C 2.26667 km/h
686 05-03-2015 22:00:00 3.64167 C 5.53 g/m*3 3.64 C 3.2 km/h
687 05-03-2015 23:00:00 2.775 C 5.35 g/m*3 2.78 C 0.8 km/h
688 06-03-2015 00:00:00 2.08333 C 5.14 g/m*3 2.08 C 0.26667 km/h
689 06-03-2015 01:00:00 1.60833 C 5.03 g/m*3 1.61 C 0.8 km/h
690 06-03-2015 02:00:00 1.15 C 4.89 g/m*3 1.15 C 0.26667 km/h
691 06-03-2015 03:00:00 1.11667 C 4.92 g/m*3 1.12 C 0 km/h
692 06-03-2015 04:00:00 0.45833 C 4.7 g/m*3 0.46 C 0.13333 km/h
693 06-03-2015 05:00:00 -0.01667 C 4.59 g/m*3 -0.02 C 0.13333 km/h
694 06-03-2015 06:00:00 -0.41667 C 4.48 g/m*3 -0.42 C 0.13333 km/h
695 06-03-2015 07:00:00 -0.44167 C 4.51 g/m*3 -0.44 C 0.93333 km/h
696 06-03-2015 08:00:00 -0.03333 C 4.64 g/m*3 -0.03 C 0.26667 km/h
697 06-03-2015 09:00:00 1.11667 C 5.02 g/m*3 1.12 C 1.2 km/h
698 06-03-2015 10:00:00 3.45 C 5.69 g/m*3 3.45 C 2.81667 km/h
699 06-03-2015 11:00:00 6.8 C 6.14 g/m*3 5.67 C 6.41667 km/h
700 06-03-2015 12:00:00 9.00833 C 5.98 g/m*3 8.56 C 5.21667 km/h
Sensor: Nr:Datum:Temp:Abs-Feuchte:Windchill:Wind:
Aussen-T/F 701 06-03-2015 13:00:00 9.30833 C 5.96 g/m*3 9.31 C 4.54167 km/h
702 06-03-2015 14:00:00 9.88333 C 5.98 g/m*3 9.52 C 5.33333 km/h
703 06-03-2015 15:00:00 10.05 C 5.65 g/m*3 10.05 C 3.73333 km/h
704 06-03-2015 16:00:00 10.11667 C 5.65 g/m*3 10.12 C 3.60833 km/h
705 06-03-2015 17:00:00 9.56667 C 6 g/m*3 9.57 C 3.34167 km/h
706 06-03-2015 18:00:00 6.95 C 6.1 g/m*3 6.95 C 3.2 km/h
707 06-03-2015 19:00:00 5.23333 C 5.8 g/m*3 5.23 C 3.73333 km/h
708 06-03-2015 20:00:00 4.625 C 5.67 g/m*3 4.63 C 3.33333 km/h
709 06-03-2015 21:00:00 3.65 C 5.43 g/m*3 3.65 C 1.33333 km/h
710 06-03-2015 22:00:00 2.53333 C 5.16 g/m*3 2.53 C 0 km/h
711 06-03-2015 23:00:00 1.78333 C 4.98 g/m*3 1.78 C 0 km/h
712 07-03-2015 00:00:00 1.35 C 4.89 g/m*3 1.35 C 0.26667 km/h
713 07-03-2015 01:00:00 0.70833 C 4.71 g/m*3 0.71 C 0.26667 km/h
714 07-03-2015 02:00:00 0.3 C 4.64 g/m*3 0.3 C 0.13333 km/h
715 07-03-2015 03:00:00 0.03333 C 4.56 g/m*3 0.03 C 0.4 km/h
716 07-03-2015 04:00:00 -0.35 C 4.47 g/m*3 -0.35 C 0 km/h
717 07-03-2015 05:00:00 -0.6 C 4.42 g/m*3 -0.6 C 0 km/h
718 07-03-2015 06:00:00 -0.675 C 4.4 g/m*3 -0.68 C 0.66667 km/h
719 07-03-2015 07:00:00 -0.49167 C 4.5 g/m*3 -0.49 C 0.26667 km/h
720 07-03-2015 08:00:00 0.15 C 4.7 g/m*3 0.15 C 0.53333 km/h
721 07-03-2015 09:00:00 1.33333 C 5.07 g/m*3 1.33 C 0.53333 km/h
722 07-03-2015 10:00:00 3.43333 C 5.5 g/m*3 3.43 C 2.53333 km/h
723 07-03-2015 11:00:00 5.56667 C 5.86 g/m*3 5.57 C 2.26667 km/h
724 07-03-2015 12:00:00 8.71667 C 6.54 g/m*3 8.72 C 2.8 km/h
725 07-03-2015 13:00:00 12.10833 C 6.71 g/m*3 12.11 C 2.53333 km/h
Sensor: Nr:Datum:Temp:Abs-Feuchte:Windchill:Wind:
Aussen-T/F 726 07-03-2015 14:00:00 13.65833 C 6.12 g/m*3 13.66 C 4.53333 km/h
727 07-03-2015 15:00:00 13.66667 C 6.02 g/m*3 13.67 C 5.21667 km/h
728 07-03-2015 16:00:00 12.75833 C 6.06 g/m*3 12.76 C 4.68333 km/h
729 07-03-2015 17:00:00 11.575 C 6.02 g/m*3 11.58 C 6.85 km/h
730 07-03-2015 18:00:00 9.71667 C 6.13 g/m*3 8.75 C 7.65833 km/h
731 07-03-2015 19:00:00 8.125 C 6.01 g/m*3 6.82 C 7.93333 km/h
732 07-03-2015 20:00:00 6.11667 C 5.91 g/m*3 6.12 C 3.33333 km/h
733 07-03-2015 21:00:00 4.69167 C 5.74 g/m*3 4.69 C 3.73333 km/h
734 07-03-2015 22:00:00 3.93333 C 5.57 g/m*3 3.93 C 0.8 km/h
735 07-03-2015 23:00:00 3.21667 C 5.39 g/m*3 3.22 C 0.8 km/h
736 08-03-2015 00:00:00 2.525 C 5.22 g/m*3 2.53 C 0.13333 km/h
737 08-03-2015 01:00:00 2.01667 C 5.12 g/m*3 2.02 C 0 km/h
738 08-03-2015 02:00:00 1.75 C 5.08 g/m*3 1.75 C 0 km/h
739 08-03-2015 03:00:00 1.18333 C 4.89 g/m*3 1.18 C 0 km/h
740 08-03-2015 04:00:00 0.68333 C 4.77 g/m*3 0.68 C 0.13333 km/h
741 08-03-2015 05:00:00 0.11667 C 4.61 g/m*3 0.12 C 0 km/h
742 08-03-2015 06:00:00 -0.2 C 4.54 g/m*3 -0.2 C 0.13333 km/h
743 08-03-2015 07:00:00 -0.35833 C 4.52 g/m*3 -0.36 C 0 km/h
744 08-03-2015 08:00:00 -0.05833 C 4.63 g/m*3 -0.06 C 0 km/h
745 08-03-2015 09:00:00 0.95833 C 4.97 g/m*3 0.96 C 0.13333 km/h
746 08-03-2015 10:00:00 3.20833 C 5.74 g/m*3 3.21 C 0.13333 km/h
747 08-03-2015 11:00:00 5.93333 C 6.51 g/m*3 5.93 C 0.13333 km/h
748 08-03-2015 12:00:00 9.68333 C 7.56 g/m*3 9.68 C 1.73333 km/h
749 08-03-2015 13:00:00 12.83333 C 7.9 g/m*3 12.83 C 0.53333 km/h
750 08-03-2015 14:00:00 15.7 C 7.3 g/m*3 15.7 C 2.26667 km/h
Sensor: Nr:Datum:Temp:Abs-Feuchte:Windchill:Wind:
Aussen-T/F 751 08-03-2015 15:00:00 16.7 C 7.47 g/m*3 16.7 C 2.93333 km/h
752 08-03-2015 16:00:00 15.55 C 7.61 g/m*3 15.55 C 3.2 km/h
753 08-03-2015 17:00:00 13.75833 C 7.32 g/m*3 13.76 C 4.28333 km/h
754 08-03-2015 18:00:00 10.16667 C 7.01 g/m*3 9.92 C 5.06667 km/h
755 08-03-2015 19:00:00 8.35 C 6.66 g/m*3 8.35 C 3.73333 km/h
756 08-03-2015 20:00:00 7.275 C 6.47 g/m*3 7.28 C 2.26667 km/h
757 08-03-2015 21:00:00 6.61667 C 6.31 g/m*3 6.62 C 2.8 km/h
758 08-03-2015 22:00:00 5.98333 C 6.11 g/m*3 5.98 C 1.73333 km/h
759 08-03-2015 23:00:00 4.975 C 5.86 g/m*3 4.97 C 1.33333 km/h
760 09-03-2015 00:00:00 4.51667 C 5.82 g/m*3 4.52 C 1.86667 km/h
761 09-03-2015 01:00:00 3.85833 C 5.64 g/m*3 3.86 C 1.86667 km/h
762 09-03-2015 02:00:00 3.3 C 5.55 g/m*3 3.3 C 2.26667 km/h
763 09-03-2015 03:00:00 3.5 C 5.67 g/m*3 3.5 C 2 km/h
764 09-03-2015 04:00:00 3.15833 C 5.59 g/m*3 3.16 C 0.4 km/h
765 09-03-2015 05:00:00 3.65833 C 5.83 g/m*3 3.66 C 0.66667 km/h
766 09-03-2015 06:00:00 4.13333 C 5.97 g/m*3 4.13 C 0.4 km/h
767 09-03-2015 07:00:00 4.50833 C 6.08 g/m*3 4.51 C 0 km/h
768 09-03-2015 08:00:00 5.28333 C 6.28 g/m*3 5.28 C 0.13333 km/h
769 09-03-2015 09:00:00 6.53333 C 6.62 g/m*3 6.53 C 0.4 km/h
770 09-03-2015 10:00:00 7.975 C 7.11 g/m*3 7.98 C 0.66667 km/h
771 09-03-2015 11:00:00 9.725 C 7.68 g/m*3 9.73 C 3.2 km/h
772 09-03-2015 12:00:00 12.55 C 8.23 g/m*3 12.55 C 5.75833 km/h
773 09-03-2015 13:00:00 14.26667 C 8.49 g/m*3 14.27 C 7.65 km/h
774 09-03-2015 14:00:00 15.03333 C 8.43 g/m*3 15.03 C 6.3 km/h
775 09-03-2015 15:00:00 15.69167 C 8.44 g/m*3 15.69 C 7.10833 km/h
Sensor: Nr:Datum:Temp:Abs-Feuchte:Windchill:Wind:
Aussen-T/F 776 09-03-2015 16:00:00 14.55833 C 8.15 g/m*3 14.56 C 6.84167 km/h
777 09-03-2015 17:00:00 12.53333 C 8.24 g/m*3 12.53 C 2.13333 km/h
778 09-03-2015 18:00:00 9.925 C 7.75 g/m*3 9.93 C 4.13333 km/h
779 09-03-2015 19:00:00 8.31667 C 7.32 g/m*3 8.32 C 2.26667 km/h
780 09-03-2015 20:00:00 7.46667 C 7.12 g/m*3 7.47 C 0.66667 km/h
781 09-03-2015 21:00:00 6.55 C 6.82 g/m*3 6.55 C 0.13333 km/h
782 09-03-2015 22:00:00 5.66667 C 6.56 g/m*3 5.67 C 0.13333 km/h
783 09-03-2015 23:00:00 4.81667 C 6.29 g/m*3 4.82 C 0.13333 km/h
784 10-03-2015 00:00:00 4.29167 C 6.16 g/m*3 4.29 C 0.4 km/h
785 10-03-2015 01:00:00 3.94167 C 6.06 g/m*3 3.94 C 0.26667 km/h
786 10-03-2015 02:00:00 3.53333 C 5.92 g/m*3 3.53 C 0.13333 km/h
787 10-03-2015 03:00:00 3.28333 C 5.82 g/m*3 3.28 C 0.8 km/h
788 10-03-2015 04:00:00 2.55 C 5.55 g/m*3 2.55 C 0.13333 km/h
789 10-03-2015 05:00:00 2.31667 C 5.51 g/m*3 2.32 C 0.53333 km/h
790 10-03-2015 06:00:00 2.9 C 5.73 g/m*3 2.9 C 0.4 km/h
791 10-03-2015 07:00:00 3.53333 C 5.98 g/m*3 3.53 C 1.33333 km/h
792 10-03-2015 08:00:00 4.04167 C 6.19 g/m*3 4.04 C 0.8 km/h
793 10-03-2015 09:00:00 4.61667 C 6.43 g/m*3 4.62 C 0 km/h
794 10-03-2015 10:00:00 5.2 C 6.68 g/m*3 5.2 C 0.53333 km/h
795 10-03-2015 11:00:00 5.74167 C 6.92 g/m*3 5.74 C 0 km/h
796 10-03-2015 12:00:00 6.45833 C 7.29 g/m*3 6.46 C 0 km/h
797 10-03-2015 13:00:00 7.40833 C 7.8 g/m*3 7.41 C 0.13333 km/h
798 10-03-2015 14:00:00 8.10833 C 8.12 g/m*3 8.11 C 1.2 km/h
799 10-03-2015 15:00:00 8.625 C 8.41 g/m*3 8.63 C 0.53333 km/h
800 10-03-2015 16:00:00 8.9 C 8.51 g/m*3 8.9 C 1.33333 km/h
Sensor: Nr:Datum:Temp:Abs-Feuchte:Windchill:Wind:
Aussen-T/F 801 10-03-2015 17:00:00 9.25833 C 8.65 g/m*3 9.26 C 1.33333 km/h
802 10-03-2015 18:00:00 7.96667 C 7.87 g/m*3 7.97 C 3.86667 km/h
803 10-03-2015 19:00:00 6.79167 C 7.37 g/m*3 6.79 C 1.6 km/h
804 10-03-2015 20:00:00 6.225 C 7.15 g/m*3 6.23 C 0.8 km/h
805 10-03-2015 21:00:00 5.68333 C 6.91 g/m*3 5.68 C 0 km/h
806 10-03-2015 22:00:00 6.10833 C 7.16 g/m*3 6.11 C 0.4 km/h
807 10-03-2015 23:00:00 6.03333 C 7.13 g/m*3 6.03 C 0.53333 km/h
808 11-03-2015 00:00:00 5.25 C 6.75 g/m*3 5.25 C 0 km/h
809 11-03-2015 01:00:00 3.54167 C 5.99 g/m*3 3.54 C 2.8 km/h
810 11-03-2015 02:00:00 2.825 C 5.74 g/m*3 2.83 C 2.4 km/h
811 11-03-2015 03:00:00 2.03333 C 5.43 g/m*3 2.03 C 0.26667 km/h
812 11-03-2015 04:00:00 1.18333 C 5.11 g/m*3 1.18 C 0 km/h
813 11-03-2015 05:00:00 1.13333 C 5.13 g/m*3 1.13 C 0 km/h
814 11-03-2015 06:00:00 2.025 C 5.45 g/m*3 2.03 C 1.46667 km/h
815 11-03-2015 07:00:00 2.18333 C 5.51 g/m*3 2.18 C 2.13333 km/h
816 11-03-2015 08:00:00 2.26667 C 5.54 g/m*3 2.27 C 1.86667 km/h
817 11-03-2015 09:00:00 2.63333 C 5.68 g/m*3 2.63 C 2.13333 km/h
818 11-03-2015 10:00:00 3.075 C 5.85 g/m*3 3.08 C 1.86667 km/h
819 11-03-2015 11:00:00 3.64167 C 5.92 g/m*3 3.64 C 1.2 km/h
820 11-03-2015 12:00:00 6.64167 C 6.21 g/m*3 6.64 C 2.93333 km/h
821 11-03-2015 13:00:00 9.20833 C 6.12 g/m*3 9.21 C 3.33333 km/h
822 11-03-2015 14:00:00 9.55833 C 5.73 g/m*3 9.56 C 4.68333 km/h
823 11-03-2015 15:00:00 10.69167 C 5.71 g/m*3 10.48 C 5.21667 km/h
824 11-03-2015 16:00:00 9.96667 C 5.35 g/m*3 9.97 C 4 km/h
825 11-03-2015 17:00:00 8.44167 C 6.05 g/m*3 8.44 C 3.06667 km/h
Sensor: Nr:Datum:Temp:Abs-Feuchte:Windchill:Wind:
Aussen-T/F 826 11-03-2015 18:00:00 6.10833 C 5.93 g/m*3 6.11 C 4.94167 km/h
827 11-03-2015 19:00:00 4.45 C 5.61 g/m*3 4.45 C 2.4 km/h
828 11-03-2015 20:00:00 3.35 C 5.38 g/m*3 3.35 C 0 km/h
829 11-03-2015 21:00:00 2.53333 C 5.15 g/m*3 2.53 C 0 km/h
830 11-03-2015 22:00:00 1.675 C 4.88 g/m*3 1.68 C 0 km/h
831 11-03-2015 23:00:00 1.075 C 4.74 g/m*3 1.08 C 0 km/h
832 12-03-2015 00:00:00 0.44167 C 4.61 g/m*3 0.44 C 0 km/h
833 12-03-2015 01:00:00 -0.1 C 4.48 g/m*3 -0.1 C 0 km/h
834 12-03-2015 02:00:00 -0.46667 C 4.42 g/m*3 -0.47 C 0 km/h
835 12-03-2015 03:00:00 -0.66667 C 4.4 g/m*3 -0.67 C 0.26667 km/h
836 12-03-2015 04:00:00 -0.84167 C 4.34 g/m*3 -0.84 C 0 km/h
837 12-03-2015 05:00:00 -1.15833 C 4.25 g/m*3 -1.16 C 0.13333 km/h
838 12-03-2015 06:00:00 -1.41667 C 4.2 g/m*3 -1.42 C 0 km/h
839 12-03-2015 07:00:00 -1.40833 C 4.22 g/m*3 -1.41 C 0 km/h
840 12-03-2015 08:00:00 -1.11667 C 4.31 g/m*3 -1.12 C 0 km/h
841 12-03-2015 09:00:00 -0.075 C 4.67 g/m*3 -0.08 C 0 km/h
842 12-03-2015 10:00:00 1.85 C 5.29 g/m*3 1.85 C 0.93333 km/h
843 12-03-2015 11:00:00 4.38333 C 6.07 g/m*3 4.38 C 0.93333 km/h
844 12-03-2015 12:00:00 9.625 C 6.61 g/m*3 8.64 C 7.65 km/h
845 12-03-2015 13:00:00 11.60833 C 6.2 g/m*3 11.61 C 6.7 km/h
846 12-03-2015 14:00:00 11.74167 C 5.88 g/m*3 11.74 C 7.38333 km/h
847 12-03-2015 15:00:00 12.59167 C 5.6 g/m*3 12.59 C 8.99167 km/h
848 12-03-2015 16:00:00 11.9 C 5.35 g/m*3 11.9 C 6.99167 km/h
849 12-03-2015 17:00:00 11.05833 C 5.53 g/m*3 11.06 C 5.9 km/h
850 12-03-2015 18:00:00 7.4 C 5.86 g/m*3 6.56 C 5.73333 km/h
Sensor: Nr:Datum:Temp:Abs-Feuchte:Windchill:Wind:
Aussen-T/F 851 12-03-2015 19:00:00 5.44167 C 5.64 g/m*3 3.93 C 6.96667 km/h
852 12-03-2015 20:00:00 4.4 C 5.53 g/m*3 4.4 C 0.66667 km/h
853 12-03-2015 21:00:00 3.46667 C 5.32 g/m*3 3.47 C 0 km/h
854 12-03-2015 22:00:00 3.05 C 5.19 g/m*3 3.05 C 3.46667 km/h
855 12-03-2015 23:00:00 2.425 C 4.9 g/m*3 2.42 C 3.6 km/h
856 13-03-2015 00:00:00 2.21667 C 4.86 g/m*3 2.22 C 3.46667 km/h
857 13-03-2015 01:00:00 2.25833 C 4.88 g/m*3 2.26 C 3.73333 km/h
858 13-03-2015 02:00:00 2.14167 C 4.85 g/m*3 2.14 C 3.6 km/h
859 13-03-2015 03:00:00 1.275 C 4.68 g/m*3 1.27 C 2.4 km/h
860 13-03-2015 04:00:00 0.49167 C 4.54 g/m*3 0.49 C 2.66667 km/h
861 13-03-2015 05:00:00 0.14167 C 4.5 g/m*3 0.14 C 3.6 km/h
862 13-03-2015 06:00:00 -0.06667 C 4.49 g/m*3 -0.07 C 3.33333 km/h
863 13-03-2015 07:00:00 -0.09167 C 4.5 g/m*3 -0.09 C 1.33333 km/h
864 13-03-2015 08:00:00 0.325 C 4.66 g/m*3 0.33 C 1.33333 km/h
865 13-03-2015 09:00:00 1.88333 C 5.07 g/m*3 1.88 C 4.41667 km/h
866 13-03-2015 10:00:00 4.825 C 5.17 g/m*3 2.98 C 7.80833 km/h
867 13-03-2015 11:00:00 6.09167 C 5.17 g/m*3 3.94 C 10.09167 km/h
868 13-03-2015 12:00:00 7.58333 C 5.03 g/m*3 5.46 C 11.56667 km/h
869 13-03-2015 13:00:00 7.9 C 4.78 g/m*3 6.13 C 9.94167 km/h
870 13-03-2015 14:00:00 7.78333 C 4.68 g/m*3 5.7 C 11.55 km/h
871 13-03-2015 15:00:00 7.81667 C 4.55 g/m*3 6.55 C 7.53333 km/h
872 13-03-2015 16:00:00 7.43333 C 4.56 g/m*3 6.21 C 7.11667 km/h
873 13-03-2015 17:00:00 7.01667 C 4.71 g/m*3 7.02 C 4.00833 km/h
874 13-03-2015 18:00:00 6.3 C 4.84 g/m*3 6.3 C 2.53333 km/h
875 13-03-2015 19:00:00 5.99167 C 5.01 g/m*3 5.99 C 3.2 km/h
Sensor: Nr:Datum:Temp:Abs-Feuchte:Windchill:Wind:
Aussen-T/F 876 13-03-2015 20:00:00 5.48333 C 5.11 g/m*3 5.48 C 2.13333 km/h
877 13-03-2015 21:00:00 5.24167 C 5.14 g/m*3 5.24 C 2.95 km/h
878 13-03-2015 22:00:00 4.84167 C 5.07 g/m*3 4.84 C 3.06667 km/h
879 13-03-2015 23:00:00 4.6 C 5.06 g/m*3 4.6 C 2.675 km/h
880 14-03-2015 00:00:00 4.225 C 4.98 g/m*3 4.22 C 2.4 km/h
881 14-03-2015 01:00:00 3.90833 C 4.9 g/m*3 3.91 C 1.33333 km/h
882 14-03-2015 02:00:00 3.83333 C 4.87 g/m*3 3.83 C 0.93333 km/h
883 14-03-2015 03:00:00 3.69167 C 4.88 g/m*3 3.69 C 0.8 km/h
884 14-03-2015 04:00:00 3.15 C 4.83 g/m*3 3.15 C 1.86667 km/h
885 14-03-2015 05:00:00 2.425 C 4.73 g/m*3 2.42 C 2.13333 km/h
886 14-03-2015 06:00:00 1.45833 C 4.61 g/m*3 1.46 C 2.66667 km/h
887 14-03-2015 07:00:00 2.06667 C 4.84 g/m*3 2.07 C 0.13333 km/h
888 14-03-2015 08:00:00 3.15833 C 4.97 g/m*3 3.16 C 1.73333 km/h
889 14-03-2015 09:00:00 4.25833 C 5.09 g/m*3 4.26 C 3.73333 km/h
890 14-03-2015 10:00:00 5.20833 C 5.21 g/m*3 3.51 C 7.525 km/h
891 14-03-2015 11:00:00 5.575 C 5.32 g/m*3 3.56 C 9.01667 km/h
892 14-03-2015 12:00:00 5.96667 C 5.49 g/m*3 4.18 C 8.35 km/h
893 14-03-2015 13:00:00 7.09167 C 5.81 g/m*3 4.96 C 11.025 km/h
894 14-03-2015 14:00:00 7.33333 C 5.85 g/m*3 5.71 C 8.725 km/h
895 14-03-2015 15:00:00 7.55833 C 5.97 g/m*3 6.09 C 8.20833 km/h
896 14-03-2015 16:00:00 6.84167 C 6.27 g/m*3 6.84 C 3.06667 km/h
897 14-03-2015 17:00:00 5.81667 C 6.39 g/m*3 5.82 C 0.8 km/h
898 14-03-2015 18:00:00 5.06667 C 6.3 g/m*3 5.07 C 0.8 km/h
899 14-03-2015 19:00:00 4.625 C 6.2 g/m*3 4.63 C 1.73333 km/h
900 14-03-2015 20:00:00 4.175 C 5.94 g/m*3 4.18 C 1.46667 km/h
Sensor: Nr:Datum:Temp:Abs-Feuchte:Windchill:Wind:
Aussen-T/F 901 14-03-2015 21:00:00 3.975 C 5.87 g/m*3 3.98 C 1.86667 km/h
902 14-03-2015 22:00:00 4.025 C 5.84 g/m*3 4.03 C 1.6 km/h
903 14-03-2015 23:00:00 3.875 C 5.75 g/m*3 3.88 C 1.33333 km/h
904 15-03-2015 00:00:00 3.9 C 5.73 g/m*3 3.9 C 1.33333 km/h
905 15-03-2015 01:00:00 3.74167 C 5.68 g/m*3 3.74 C 0.66667 km/h
906 15-03-2015 02:00:00 3.66667 C 5.72 g/m*3 3.67 C 0.26667 km/h
907 15-03-2015 03:00:00 3.78333 C 5.78 g/m*3 3.78 C 0.53333 km/h
908 15-03-2015 04:00:00 3.7 C 5.86 g/m*3 3.7 C 0.53333 km/h
909 15-03-2015 05:00:00 3.675 C 5.91 g/m*3 3.68 C 0.93333 km/h
910 15-03-2015 06:00:00 3.60833 C 5.9 g/m*3 3.61 C 0.66667 km/h
911 15-03-2015 07:00:00 3.7 C 5.98 g/m*3 3.7 C 0.93333 km/h
912 15-03-2015 08:00:00 4.00833 C 6.11 g/m*3 4.01 C 1.06667 km/h
913 15-03-2015 09:00:00 4.625 C 6.26 g/m*3 4.63 C 1.2 km/h
914 15-03-2015 10:00:00 5.34167 C 6.3 g/m*3 4.15 C 5.89167 km/h
915 15-03-2015 11:00:00 5.84167 C 6.25 g/m*3 5.84 C 4.8 km/h
916 15-03-2015 12:00:00 6.30833 C 6.22 g/m*3 4.79 C 7.525 km/h
917 15-03-2015 13:00:00 6.89167 C 6.33 g/m*3 5.41 C 7.78333 km/h
918 15-03-2015 14:00:00 7.225 C 6.29 g/m*3 6.08 C 6.70833 km/h
919 15-03-2015 15:00:00 7.06667 C 6.21 g/m*3 7.07 C 4.69167 km/h
920 15-03-2015 16:00:00 6.99167 C 6.21 g/m*3 6.99 C 4 km/h
921 15-03-2015 17:00:00 6.725 C 6.15 g/m*3 6.73 C 3.46667 km/h
922 15-03-2015 18:00:00 6.175 C 6.15 g/m*3 6.18 C 1.6 km/h
923 15-03-2015 19:00:00 4.68333 C 5.86 g/m*3 3.7 C 5.06667 km/h
924 15-03-2015 20:00:00 3.28333 C 5.51 g/m*3 1.85 C 5.73333 km/h
925 15-03-2015 21:00:00 2.56667 C 5.38 g/m*3 2.57 C 2.93333 km/h
Sensor: Nr:Datum:Temp:Abs-Feuchte:Windchill:Wind:
Aussen-T/F 926 15-03-2015 22:00:00 1.85833 C 5.17 g/m*3 1.86 C 0.8 km/h
927 15-03-2015 23:00:00 1.28333 C 5.01 g/m*3 1.28 C 0.93333 km/h
928 16-03-2015 00:00:00 0.85833 C 4.89 g/m*3 0.86 C 0.26667 km/h
929 16-03-2015 01:00:00 0.43333 C 4.78 g/m*3 0.43 C 0 km/h
930 16-03-2015 02:00:00 0.025 C 4.66 g/m*3 0.03 C 0 km/h
931 16-03-2015 03:00:00 -0.28333 C 4.56 g/m*3 -0.28 C 0 km/h
932 16-03-2015 04:00:00 -0.64167 C 4.45 g/m*3 -0.64 C 0 km/h
933 16-03-2015 05:00:00 -0.875 C 4.41 g/m*3 -0.88 C 0.13333 km/h
934 16-03-2015 06:00:00 -0.8 C 4.45 g/m*3 -0.8 C 0 km/h
935 16-03-2015 07:00:00 -0.85 C 4.43 g/m*3 -0.85 C 0.26667 km/h
936 16-03-2015 08:00:00 0.03333 C 4.72 g/m*3 0.03 C 0.13333 km/h
937 16-03-2015 09:00:00 1.975 C 5.44 g/m*3 1.98 C 0 km/h
938 16-03-2015 10:00:00 3.56667 C 6.04 g/m*3 3.57 C 0 km/h
939 16-03-2015 11:00:00 5.95 C 6.49 g/m*3 4.85 C 5.90833 km/h
940 16-03-2015 12:00:00 9.05 C 6.59 g/m*3 7.66 C 9.13333 km/h
941 16-03-2015 13:00:00 11.00833 C 6.74 g/m*3 11.01 C 9.55833 km/h
942 16-03-2015 14:00:00 12.14167 C 6.9 g/m*3 12.14 C 7.53333 km/h
943 16-03-2015 15:00:00 12.91667 C 6.92 g/m*3 12.92 C 8.46667 km/h
944 16-03-2015 16:00:00 12.96667 C 6.83 g/m*3 12.97 C 5.21667 km/h
945 16-03-2015 17:00:00 11.58333 C 7.52 g/m*3 11.58 C 1.33333 km/h
946 16-03-2015 18:00:00 8.7 C 7.04 g/m*3 8.7 C 4.00833 km/h
947 16-03-2015 19:00:00 6.68333 C 6.48 g/m*3 6.68 C 3.86667 km/h
948 16-03-2015 20:00:00 5.5 C 6.19 g/m*3 5.5 C 1.6 km/h
949 16-03-2015 21:00:00 4.8 C 6.03 g/m*3 4.8 C 0 km/h
950 16-03-2015 22:00:00 4.2 C 5.86 g/m*3 4.2 C 0.26667 km/h
Sensor: Nr:Datum:Temp:Abs-Feuchte:Windchill:Wind:
Aussen-T/F 951 16-03-2015 23:00:00 3.46667 C 5.64 g/m*3 3.47 C 0 km/h
952 17-03-2015 00:00:00 2.76667 C 5.48 g/m*3 2.77 C 0 km/h
953 17-03-2015 01:00:00 2.21667 C 5.31 g/m*3 2.22 C 0 km/h
954 17-03-2015 02:00:00 1.65 C 5.15 g/m*3 1.65 C 0 km/h
955 17-03-2015 03:00:00 1.25833 C 5.05 g/m*3 1.26 C 0 km/h
956 17-03-2015 04:00:00 0.83333 C 4.93 g/m*3 0.83 C 0 km/h
957 17-03-2015 05:00:00 0.59167 C 4.84 g/m*3 0.59 C 0 km/h
958 17-03-2015 06:00:00 0.4 C 4.8 g/m*3 0.4 C 0 km/h
959 17-03-2015 07:00:00 0.56667 C 4.89 g/m*3 0.57 C 0 km/h
960 17-03-2015 08:00:00 1.025 C 5.04 g/m*3 1.02 C 0.26667 km/h
961 17-03-2015 09:00:00 2.175 C 5.48 g/m*3 2.17 C 0 km/h
962 17-03-2015 10:00:00 5.10833 C 6.7 g/m*3 5.11 C 0.13333 km/h
963 17-03-2015 11:00:00 8.13333 C 7.46 g/m*3 8.13 C 0.93333 km/h
964 17-03-2015 12:00:00 12.975 C 7.82 g/m*3 12.98 C 3.46667 km/h
965 17-03-2015 13:00:00 15.45833 C 7.44 g/m*3 15.46 C 6.41667 km/h
966 17-03-2015 14:00:00 16.76667 C 7.57 g/m*3 16.77 C 7.65833 km/h
967 17-03-2015 15:00:00 18.23333 C 7.27 g/m*3 18.23 C 7.65833 km/h
968 17-03-2015 16:00:00 17.48333 C 6.8 g/m*3 17.48 C 5.89167 km/h
969 17-03-2015 17:00:00 15.44167 C 7.85 g/m*3 15.44 C 3.46667 km/h
970 17-03-2015 18:00:00 12.29167 C 7.73 g/m*3 12.29 C 6.7 km/h
971 17-03-2015 19:00:00 10.28333 C 7.37 g/m*3 9.59 C 6.84167 km/h
972 17-03-2015 20:00:00 8.9 C 7.19 g/m*3 8.9 C 3.60833 km/h
973 17-03-2015 21:00:00 7.79167 C 6.87 g/m*3 7.79 C 0.93333 km/h
974 17-03-2015 22:00:00 6.46667 C 6.53 g/m*3 6.47 C 0.26667 km/h
975 17-03-2015 23:00:00 5.575 C 6.32 g/m*3 5.58 C 0 km/h
Sensor: Nr:Datum:Temp:Abs-Feuchte:Windchill:Wind:
Aussen-T/F 976 18-03-2015 00:00:00 4.98333 C 6.19 g/m*3 4.98 C 0.13333 km/h
977 18-03-2015 01:00:00 4.175 C 5.93 g/m*3 4.18 C 0.13333 km/h
978 18-03-2015 02:00:00 3.66667 C 5.83 g/m*3 3.67 C 0.26667 km/h
979 18-03-2015 03:00:00 3.21667 C 5.72 g/m*3 3.22 C 0 km/h
980 18-03-2015 04:00:00 2.81667 C 5.58 g/m*3 2.82 C 0.13333 km/h
981 18-03-2015 05:00:00 2.375 C 5.44 g/m*3 2.38 C 0.13333 km/h
982 18-03-2015 06:00:00 1.81667 C 5.27 g/m*3 1.82 C 0 km/h
983 18-03-2015 07:00:00 1.94167 C 5.31 g/m*3 1.94 C 0 km/h
984 18-03-2015 08:00:00 2.50833 C 5.58 g/m*3 2.51 C 0.13333 km/h
985 18-03-2015 09:00:00 4.21667 C 6.26 g/m*3 4.22 C 0.13333 km/h
986 18-03-2015 10:00:00 7.29167 C 7.35 g/m*3 7.29 C 0.13333 km/h
987 18-03-2015 11:00:00 10.49167 C 8.08 g/m*3 10.49 C 0.53333 km/h
988 18-03-2015 12:00:00 14.78333 C 8.67 g/m*3 14.78 C 2.8 km/h
989 18-03-2015 13:00:00 17.19167 C 8.39 g/m*3 17.19 C 4.66667 km/h
990 18-03-2015 14:00:00 17.61667 C 8.17 g/m*3 17.62 C 10.9 km/h
991 18-03-2015 15:00:00 17.4 C 8.13 g/m*3 17.4 C 14.23333 km/h
992 18-03-2015 16:00:00 16.83333 C 7.71 g/m*3 16.83 C 13.7 km/h
993 18-03-2015 17:00:00 16.30833 C 7.87 g/m*3 16.31 C 9.425 km/h
994 18-03-2015 18:00:00 14.26667 C 8.04 g/m*3 14.27 C 4.54167 km/h
995 18-03-2015 19:00:00 12.04167 C 7.8 g/m*3 12.04 C 4.95 km/h
996 18-03-2015 20:00:00 12.30833 C 7.74 g/m*3 12.31 C 7.65833 km/h
997 18-03-2015 21:00:00 11.25833 C 8.08 g/m*3 11.26 C 5.76667 km/h
998 18-03-2015 22:00:00 9.64167 C 7.95 g/m*3 9.64 C 4.95 km/h
999 18-03-2015 23:00:00 8.99167 C 7.85 g/m*3 7.84 C 7.925 km/h
1000 19-03-2015 00:00:00 8.73333 C 7.76 g/m*3 7.89 C 6.45 km/h
Sensor: Nr:Datum:Temp:Abs-Feuchte:Windchill:Wind:
Aussen-T/F 1001 19-03-2015 01:00:00 8.35833 C 7.71 g/m*3 6.84 C 9.13333 km/h
1002 19-03-2015 02:00:00 7.95833 C 7.62 g/m*3 6.39 C 9.00833 km/h
1003 19-03-2015 03:00:00 7.54167 C 7.51 g/m*3 6.27 C 7.38333 km/h
1004 19-03-2015 04:00:00 7.225 C 7.46 g/m*3 5.67 C 8.35 km/h
1005 19-03-2015 05:00:00 6.99167 C 7.36 g/m*3 5.53 C 7.78333 km/h
1006 19-03-2015 06:00:00 6.86667 C 7.35 g/m*3 5.41 C 7.66667 km/h
1007 19-03-2015 07:00:00 6.8 C 7.32 g/m*3 5.37 C 7.51667 km/h
1008 19-03-2015 08:00:00 6.825 C 7.27 g/m*3 5.54 C 6.975 km/h
1009 19-03-2015 09:00:00 7.13333 C 7.27 g/m*3 7.13 C 3.86667 km/h
1010 19-03-2015 10:00:00 7.53333 C 7.31 g/m*3 7.53 C 4.4 km/h
1011 19-03-2015 11:00:00 7.48333 C 7.31 g/m*3 6 C 8.2 km/h
1012 19-03-2015 12:00:00 7.56667 C 7.4 g/m*3 6.2 C 7.8 km/h
1013 19-03-2015 13:00:00 7.625 C 7.42 g/m*3 6.05 C 8.74167 km/h
1014 19-03-2015 14:00:00 7.725 C 7.44 g/m*3 6 C 9.56667 km/h
1015 19-03-2015 15:00:00 8.11667 C 7.53 g/m*3 6.6 C 8.88333 km/h
1016 19-03-2015 16:00:00 8.175 C 7.57 g/m*3 6.67 C 8.89167 km/h
1017 19-03-2015 17:00:00 8.075 C 7.52 g/m*3 6.96 C 7.125 km/h
1018 19-03-2015 18:00:00 8.06667 C 7.47 g/m*3 6.98 C 6.98333 km/h
1019 19-03-2015 19:00:00 7.9 C 7.39 g/m*3 6.9 C 6.575 km/h
1020 19-03-2015 20:00:00 7.75 C 7.3 g/m*3 6.54 C 7.26667 km/h
1021 19-03-2015 21:00:00 7.625 C 7.26 g/m*3 6.81 C 5.75833 km/h
1022 19-03-2015 22:00:00 7.525 C 7.22 g/m*3 7.53 C 4.80833 km/h
1023 19-03-2015 23:00:00 7.38333 C 7.2 g/m*3 7.38 C 4 km/h
1024 20-03-2015 00:00:00 7.3 C 7.11 g/m*3 7.3 C 2.13333 km/h
1025 20-03-2015 01:00:00 7.15833 C 7.05 g/m*3 7.16 C 1.46667 km/h
Sensor: Nr:Datum:Temp:Abs-Feuchte:Windchill:Wind:
Aussen-T/F 1026 20-03-2015 02:00:00 6.94167 C 6.95 g/m*3 6.94 C 3.06667 km/h
1027 20-03-2015 03:00:00 6.775 C 6.83 g/m*3 6.78 C 4.80833 km/h
1028 20-03-2015 04:00:00 6.59167 C 6.71 g/m*3 6.59 C 3.86667 km/h
1029 20-03-2015 05:00:00 6.30833 C 6.64 g/m*3 6.31 C 2.8 km/h
1030 20-03-2015 06:00:00 6.13333 C 6.59 g/m*3 6.13 C 3.06667 km/h
1031 20-03-2015 07:00:00 6.13333 C 6.59 g/m*3 6.13 C 3.2 km/h
1032 20-03-2015 08:00:00 6.39167 C 6.62 g/m*3 6.39 C 4.4 km/h
1033 20-03-2015 09:00:00 6.725 C 6.62 g/m*3 6.73 C 4.4 km/h
1034 20-03-2015 10:00:00 6.79167 C 6.54 g/m*3 6.79 C 2.53333 km/h
1035 20-03-2015 11:00:00 7.08333 C 6.62 g/m*3 7.08 C 3.6 km/h
1036 20-03-2015 12:00:00 9.01667 C 7.05 g/m*3 8.53 C 5.35 km/h
1037 20-03-2015 13:00:00 11.075 C 7.21 g/m*3 11.08 C 4.81667 km/h
1038 20-03-2015 14:00:00 12.425 C 7.38 g/m*3 12.43 C 4.675 km/h
1039 20-03-2015 15:00:00 14.075 C 7.19 g/m*3 14.08 C 4.66667 km/h
1040 20-03-2015 16:00:00 13.83333 C 6.77 g/m*3 13.83 C 4.53333 km/h
1041 20-03-2015 17:00:00 13.28333 C 6.87 g/m*3 13.28 C 8.33333 km/h
1042 20-03-2015 18:00:00 10.53333 C 7.11 g/m*3 9.73 C 7.51667 km/h
1043 20-03-2015 19:00:00 8.175 C 6.78 g/m*3 7.61 C 5.225 km/h
1044 20-03-2015 20:00:00 6.31667 C 6.45 g/m*3 6.32 C 3.73333 km/h
1045 20-03-2015 21:00:00 5.1 C 6.21 g/m*3 5.1 C 2.8 km/h
1046 20-03-2015 22:00:00 4.55 C 6.12 g/m*3 4.55 C 2 km/h
1047 20-03-2015 23:00:00 5.075 C 6.39 g/m*3 5.08 C 1.33333 km/h
1048 21-03-2015 00:00:00 5.39167 C 6.47 g/m*3 5.39 C 0.93333 km/h
1049 21-03-2015 01:00:00 5.53333 C 6.48 g/m*3 5.53 C 0.53333 km/h
1050 21-03-2015 02:00:00 5.49167 C 6.43 g/m*3 5.49 C 4.13333 km/h
Sensor: Nr:Datum:Temp:Abs-Feuchte:Windchill:Wind:
Aussen-T/F 1051 21-03-2015 03:00:00 5.33333 C 6.37 g/m*3 5.33 C 4.81667 km/h
1052 21-03-2015 04:00:00 5.24167 C 6.32 g/m*3 3.58 C 7.39167 km/h
1053 21-03-2015 05:00:00 4.85833 C 6.19 g/m*3 3.89 C 5.075 km/h
1054 21-03-2015 06:00:00 4.64167 C 6.01 g/m*3 4.64 C 4.825 km/h
1055 21-03-2015 07:00:00 4.79167 C 5.95 g/m*3 4.79 C 2.13333 km/h
1056 21-03-2015 08:00:00 5.13333 C 6.04 g/m*3 5.13 C 1.06667 km/h
1057 21-03-2015 09:00:00 5.5 C 6.2 g/m*3 4.62 C 5.06667 km/h
1058 21-03-2015 10:00:00 5.29167 C 6.29 g/m*3 5.29 C 3.06667 km/h
1059 21-03-2015 11:00:00 5.45833 C 6.49 g/m*3 5.46 C 4.15833 km/h
1060 21-03-2015 12:00:00 6.38333 C 6.46 g/m*3 4.88 C 7.51667 km/h
1061 21-03-2015 13:00:00 7.49167 C 6.39 g/m*3 7.49 C 4.41667 km/h
1062 21-03-2015 14:00:00 7.65833 C 6.19 g/m*3 6.34 C 7.65833 km/h
1063 21-03-2015 15:00:00 7.54167 C 6.36 g/m*3 6.81 C 5.475 km/h
1064 21-03-2015 16:00:00 6.175 C 6.61 g/m*3 5.34 C 5.2 km/h
1065 21-03-2015 17:00:00 6.225 C 6.7 g/m*3 5.39 C 5.23333 km/h
1066 21-03-2015 18:00:00 6.10833 C 6.7 g/m*3 6.11 C 4.675 km/h
1067 21-03-2015 19:00:00 5.98333 C 6.6 g/m*3 5.98 C 2.80833 km/h
1068 21-03-2015 20:00:00 5.35833 C 6.58 g/m*3 5.36 C 2.53333 km/h
1069 21-03-2015 21:00:00 4.88333 C 6.44 g/m*3 4.88 C 2.93333 km/h
1070 21-03-2015 22:00:00 4.975 C 6.53 g/m*3 4.97 C 1.6 km/h
1071 21-03-2015 23:00:00 5.15833 C 6.65 g/m*3 5.16 C 0 km/h
1072 22-03-2015 00:00:00 5.36667 C 6.75 g/m*3 5.37 C 1.46667 km/h
1073 22-03-2015 01:00:00 5.35833 C 6.68 g/m*3 5.36 C 0 km/h
1074 22-03-2015 02:00:00 5.10833 C 6.57 g/m*3 5.11 C 0.26667 km/h
1075 22-03-2015 03:00:00 4.85 C 6.46 g/m*3 4.85 C 0.93333 km/h
Sensor: Nr:Datum:Temp:Abs-Feuchte:Windchill:Wind:
Aussen-T/F 1076 22-03-2015 04:00:00 5.13333 C 6.55 g/m*3 5.13 C 0.66667 km/h
1077 22-03-2015 05:00:00 5.25 C 6.46 g/m*3 5.25 C 4.025 km/h
1078 22-03-2015 06:00:00 5.10833 C 6.13 g/m*3 5.11 C 4.00833 km/h
1079 22-03-2015 07:00:00 4.96667 C 5.84 g/m*3 3.15 C 7.78333 km/h
1080 22-03-2015 08:00:00 5.01667 C 5.53 g/m*3 2.69 C 9.94167 km/h
1081 22-03-2015 09:00:00 5.3 C 5.47 g/m*3 2.35 C 13.56667 km/h
1082 22-03-2015 10:00:00 6.13333 C 5.61 g/m*3 3.28 C 14.1 km/h
1083 22-03-2015 11:00:00 6.75 C 5.7 g/m*3 4.1 C 13.7 km/h
1084 22-03-2015 12:00:00 8.01667 C 5.87 g/m*3 5.43 C 15.3 km/h
1085 22-03-2015 13:00:00 7.99167 C 5.74 g/m*3 5.52 C 14.36667 km/h
1086 22-03-2015 14:00:00 7.15833 C 5.5 g/m*3 4.48 C 14.5 km/h
1087 22-03-2015 15:00:00 7.00833 C 5.43 g/m*3 4.28 C 14.63333 km/h
1088 22-03-2015 16:00:00 7.33333 C 5.4 g/m*3 5.07 C 12.1 km/h
1089 22-03-2015 17:00:00 7.65833 C 5.38 g/m*3 5.69 C 10.75833 km/h
1090 22-03-2015 18:00:00 6.175 C 5.19 g/m*3 6.18 C 4.29167 km/h
1091 22-03-2015 19:00:00 3.65833 C 4.99 g/m*3 3.66 C 1.73333 km/h
1092 22-03-2015 20:00:00 2.15833 C 4.83 g/m*3 2.16 C 4.8 km/h
1093 22-03-2015 21:00:00 1.56667 C 4.71 g/m*3 1.57 C 4.26667 km/h
1094 22-03-2015 22:00:00 1.14167 C 4.64 g/m*3 1.14 C 3.06667 km/h
1095 22-03-2015 23:00:00 0.54167 C 4.54 g/m*3 0.54 C 3.46667 km/h
1096 23-03-2015 00:00:00 0.08333 C 4.45 g/m*3 0.08 C 3.06667 km/h
1097 23-03-2015 01:00:00 -0.34167 C 4.36 g/m*3 -0.34 C 2.66667 km/h
1098 23-03-2015 02:00:00 -0.68333 C 4.29 g/m*3 -0.68 C 2.13333 km/h
1099 23-03-2015 03:00:00 -0.875 C 4.26 g/m*3 -0.88 C 0.66667 km/h
1100 23-03-2015 04:00:00 -1.23333 C 4.18 g/m*3 -1.23 C 0 km/h
Sensor: Nr:Datum:Temp:Abs-Feuchte:Windchill:Wind:
Aussen-T/F 1101 23-03-2015 05:00:00 -1.24167 C 4.2 g/m*3 -1.24 C 0.8 km/h
1102 23-03-2015 06:00:00 -1.54167 C 4.13 g/m*3 -1.54 C 0 km/h
1103 23-03-2015 07:00:00 -1.25833 C 4.22 g/m*3 -1.26 C 2 km/h
1104 23-03-2015 08:00:00 -0.61667 C 4.45 g/m*3 -0.62 C 3.33333 km/h
1105 23-03-2015 09:00:00 0.575 C 4.81 g/m*3 0.57 C 1.86667 km/h
1106 23-03-2015 10:00:00 2.68333 C 5.18 g/m*3 2.68 C 2.13333 km/h
1107 23-03-2015 11:00:00 5.03333 C 5.73 g/m*3 5.03 C 1.73333 km/h
1108 23-03-2015 12:00:00 7.31667 C 6.24 g/m*3 7.32 C 3.2 km/h
1109 23-03-2015 13:00:00 9.575 C 6.41 g/m*3 8.7 C 7.11667 km/h
1110 23-03-2015 14:00:00 10.04167 C 6.34 g/m*3 9.16 C 7.50833 km/h
1111 23-03-2015 15:00:00 10.95 C 6.6 g/m*3 10.36 C 6.84167 km/h
1112 23-03-2015 16:00:00 10.50833 C 6.29 g/m*3 10.51 C 4.54167 km/h
1113 23-03-2015 17:00:00 9.99167 C 6.22 g/m*3 9.99 C 4.40833 km/h
1114 23-03-2015 18:00:00 9.20833 C 6.12 g/m*3 9.21 C 3.2 km/h
1115 23-03-2015 19:00:00 7.34167 C 6.03 g/m*3 6.29 C 6.43333 km/h
1116 23-03-2015 20:00:00 5.95 C 5.96 g/m*3 4.89 C 5.775 km/h
1117 23-03-2015 21:00:00 4.65833 C 5.77 g/m*3 4.66 C 0.26667 km/h
1118 23-03-2015 22:00:00 3.65 C 5.57 g/m*3 3.65 C 0 km/h
1119 23-03-2015 23:00:00 2.75 C 5.35 g/m*3 2.75 C 0 km/h
1120 24-03-2015 00:00:00 2.1 C 5.19 g/m*3 2.1 C 0 km/h
1121 24-03-2015 01:00:00 1.8 C 5.13 g/m*3 1.8 C 0 km/h
1122 24-03-2015 02:00:00 1.78333 C 5.16 g/m*3 1.78 C 0 km/h
1123 24-03-2015 03:00:00 2.25 C 5.37 g/m*3 2.25 C 0 km/h
1124 24-03-2015 04:00:00 2.75833 C 5.48 g/m*3 2.76 C 0.53333 km/h
1125 24-03-2015 05:00:00 2.93333 C 5.5 g/m*3 2.93 C 0.26667 km/h
Sensor: Nr:Datum:Temp:Abs-Feuchte:Windchill:Wind:
Aussen-T/F 1126 24-03-2015 06:00:00 2.94167 C 5.48 g/m*3 2.94 C 0.8 km/h
1127 24-03-2015 07:00:00 3.16667 C 5.58 g/m*3 3.17 C 0.13333 km/h
1128 24-03-2015 08:00:00 3.94167 C 5.74 g/m*3 3.94 C 1.86667 km/h
1129 24-03-2015 09:00:00 4.66667 C 5.88 g/m*3 4.67 C 2.13333 km/h
1130 24-03-2015 10:00:00 5.76667 C 6.18 g/m*3 5.77 C 2.13333 km/h
1131 24-03-2015 11:00:00 7.10833 C 6.52 g/m*3 7.11 C 1.6 km/h
1132 24-03-2015 12:00:00 9.53333 C 7.08 g/m*3 9.53 C 2.66667 km/h
1133 24-03-2015 13:00:00 11.68333 C 6.92 g/m*3 11.68 C 4.41667 km/h
1134 24-03-2015 14:00:00 13.15833 C 6.23 g/m*3 13.16 C 13.43333 km/h
1135 24-03-2015 15:00:00 14.075 C 6.3 g/m*3 14.08 C 10.63333 km/h
1136 24-03-2015 16:00:00 14.05 C 6.35 g/m*3 14.05 C 4.95 km/h
1137 24-03-2015 17:00:00 13.31667 C 6.76 g/m*3 13.32 C 2 km/h
1138 24-03-2015 18:00:00 11.075 C 7.25 g/m*3 11.08 C 3.33333 km/h
1139 24-03-2015 19:00:00 9.85 C 6.93 g/m*3 9.85 C 4.8 km/h
1140 24-03-2015 20:00:00 8.26667 C 6.87 g/m*3 7.77 C 5.06667 km/h
1141 24-03-2015 21:00:00 7.18333 C 6.67 g/m*3 7.18 C 4.66667 km/h
1142 24-03-2015 22:00:00 6.50833 C 6.6 g/m*3 6.51 C 1.73333 km/h
1143 24-03-2015 23:00:00 6.68333 C 6.67 g/m*3 6.68 C 2.8 km/h
1144 25-03-2015 00:00:00 5.8 C 6.36 g/m*3 5.8 C 2.66667 km/h
1145 25-03-2015 01:00:00 5.225 C 6.27 g/m*3 5.23 C 2.4 km/h
1146 25-03-2015 02:00:00 5.2 C 6.32 g/m*3 5.2 C 1.06667 km/h
1147 25-03-2015 03:00:00 5.89167 C 6.49 g/m*3 5.89 C 1.2 km/h
1148 25-03-2015 04:00:00 5.55833 C 6.36 g/m*3 5.56 C 1.46667 km/h
1149 25-03-2015 05:00:00 5.54167 C 6.44 g/m*3 5.54 C 0.53333 km/h
1150 25-03-2015 06:00:00 5.05 C 6.26 g/m*3 5.05 C 0.26667 km/h
Sensor: Nr:Datum:Temp:Abs-Feuchte:Windchill:Wind:
Aussen-T/F 1151 25-03-2015 07:00:00 5.43333 C 6.49 g/m*3 5.43 C 0 km/h
1152 25-03-2015 08:00:00 6.7 C 6.78 g/m*3 6.7 C 0.26667 km/h
1153 25-03-2015 09:00:00 8.8 C 7.21 g/m*3 8.8 C 0.26667 km/h
1154 25-03-2015 10:00:00 11.01667 C 7.67 g/m*3 11.02 C 5.08333 km/h
1155 25-03-2015 11:00:00 11.59167 C 7.82 g/m*3 11.59 C 8.05833 km/h
1156 25-03-2015 12:00:00 12.15 C 8.04 g/m*3 12.15 C 10.35833 km/h
1157 25-03-2015 13:00:00 12.66667 C 8.05 g/m*3 12.67 C 14.36667 km/h
1158 25-03-2015 14:00:00 10.26667 C 7.35 g/m*3 8.07 C 16.5 km/h
1159 25-03-2015 15:00:00 9.15833 C 7.02 g/m*3 7.03 C 13.83333 km/h
1160 25-03-2015 16:00:00 8.44167 C 6.73 g/m*3 6.15 C 13.83333 km/h
1161 25-03-2015 17:00:00 7.7 C 6.61 g/m*3 5.67 C 11.15833 km/h
1162 25-03-2015 18:00:00 7.48333 C 6.57 g/m*3 5.53 C 10.475 km/h
1163 25-03-2015 19:00:00 7.275 C 6.51 g/m*3 5.28 C 10.49167 km/h
1164 25-03-2015 20:00:00 7.08333 C 6.49 g/m*3 5.03 C 10.63333 km/h
1165 25-03-2015 21:00:00 6.875 C 6.46 g/m*3 4.77 C 10.63333 km/h
1166 25-03-2015 22:00:00 6.725 C 6.5 g/m*3 4.78 C 9.68333 km/h
1167 25-03-2015 23:00:00 6.7 C 6.49 g/m*3 5.09 C 8.175 km/h
1168 26-03-2015 00:00:00 6.7 C 6.49 g/m*3 5.22 C 7.65 km/h
1169 26-03-2015 01:00:00 6.66667 C 6.6 g/m*3 5.01 C 8.33333 km/h
1170 26-03-2015 02:00:00 6.45 C 6.68 g/m*3 6.45 C 4.41667 km/h
1171 26-03-2015 03:00:00 6.30833 C 6.65 g/m*3 6.31 C 3.06667 km/h
1172 26-03-2015 04:00:00 6.175 C 6.54 g/m*3 4.67 C 7.4 km/h
1173 26-03-2015 05:00:00 5.71667 C 6.18 g/m*3 4.58 C 5.9 km/h
1174 26-03-2015 06:00:00 5.625 C 6.03 g/m*3 5.63 C 2 km/h
1175 26-03-2015 07:00:00 5.76667 C 6.01 g/m*3 5.77 C 3.06667 km/h
Sensor: Nr:Datum:Temp:Abs-Feuchte:Windchill:Wind:
Aussen-T/F 1176 26-03-2015 08:00:00 6 C 5.95 g/m*3 6 C 3.475 km/h
1177 26-03-2015 09:00:00 6.20833 C 5.92 g/m*3 6.21 C 4.26667 km/h
1178 26-03-2015 10:00:00 6.71667 C 5.88 g/m*3 5.91 C 5.35 km/h
1179 26-03-2015 11:00:00 7.825 C 5.89 g/m*3 6.35 C 8.45833 km/h
1180 26-03-2015 12:00:00 9.89167 C 5.85 g/m*3 8.44 C 10.36667 km/h
1181 26-03-2015 13:00:00 11.56667 C 5.24 g/m*3 11.57 C 14.63333 km/h
1182 26-03-2015 14:00:00 11.86667 C 4.83 g/m*3 11.87 C 15.43333 km/h
1183 26-03-2015 15:00:00 11.425 C 4.51 g/m*3 11.43 C 13.03333 km/h
1184 26-03-2015 16:00:00 9.91667 C 4.46 g/m*3 7.7 C 15.975 km/h
1185 26-03-2015 17:00:00 6.43333 C 5.81 g/m*3 4.65 C 8.725 km/h
1186 26-03-2015 18:00:00 5.31667 C 6.14 g/m*3 5.32 C 1.2 km/h
1187 26-03-2015 19:00:00 5.35833 C 6.1 g/m*3 5.36 C 4.28333 km/h
1188 26-03-2015 20:00:00 5.63333 C 6.11 g/m*3 5.63 C 4.00833 km/h
1189 26-03-2015 21:00:00 6.14167 C 6.16 g/m*3 3.21 C 14.63333 km/h
1190 26-03-2015 22:00:00 6.15 C 6.29 g/m*3 3.05 C 15.83333 km/h
1191 26-03-2015 23:00:00 6.28333 C 6.45 g/m*3 3.27 C 15.43333 km/h
1192 27-03-2015 00:00:00 6.425 C 6.53 g/m*3 4.13 C 11.16667 km/h
1193 27-03-2015 01:00:00 6.45 C 6.63 g/m*3 4.72 C 8.475 km/h
1194 27-03-2015 02:00:00 6.29167 C 6.6 g/m*3 4.81 C 7.38333 km/h
1195 27-03-2015 03:00:00 5.45833 C 6.36 g/m*3 5.46 C 4.93333 km/h
1196 27-03-2015 04:00:00 4.775 C 6.1 g/m*3 3.75 C 5.20833 km/h
1197 27-03-2015 05:00:00 4.375 C 5.86 g/m*3 3.04 C 5.89167 km/h
1198 27-03-2015 06:00:00 4.8 C 5.77 g/m*3 2.96 C 7.79167 km/h
1199 27-03-2015 07:00:00 5.375 C 5.89 g/m*3 3.56 C 8.05833 km/h
1200 27-03-2015 08:00:00 6.19167 C 6.08 g/m*3 4.01 C 10.35833 km/h
Sensor: Nr:Datum:Temp:Abs-Feuchte:Windchill:Wind:
Aussen-T/F 1201 27-03-2015 09:00:00 6.99167 C 6.2 g/m*3 4.5 C 13.03333 km/h
1202 27-03-2015 10:00:00 8.19167 C 6.34 g/m*3 5.72 C 14.76667 km/h
1203 27-03-2015 11:00:00 8.71667 C 6.27 g/m*3 6.23 C 15.83333 km/h
1204 27-03-2015 12:00:00 9.15833 C 6.03 g/m*3 6.5 C 18.23333 km/h
1205 27-03-2015 13:00:00 9.68333 C 5.77 g/m*3 7.18 C 17.96667 km/h
1206 27-03-2015 14:00:00 10.18333 C 5.67 g/m*3 8.23 C 14.23333 km/h
1207 27-03-2015 15:00:00 10.36667 C 5.57 g/m*3 8.54 C 13.56667 km/h
1208 27-03-2015 16:00:00 10.46667 C 5.38 g/m*3 8.74 C 13.03333 km/h
1209 27-03-2015 17:00:00 10.65 C 5.48 g/m*3 9 C 12.76667 km/h
1210 27-03-2015 18:00:00 9.94167 C 5.2 g/m*3 9.01 C 7.66667 km/h
1211 27-03-2015 19:00:00 9.29167 C 5.42 g/m*3 9.29 C 3.75833 km/h
1212 27-03-2015 20:00:00 8.44167 C 5.86 g/m*3 8.44 C 1.06667 km/h
1213 27-03-2015 21:00:00 7.625 C 6.1 g/m*3 7.63 C 2.13333 km/h
1214 27-03-2015 22:00:00 7.01667 C 6.1 g/m*3 7.02 C 2.4 km/h
1215 27-03-2015 23:00:00 6.725 C 6.03 g/m*3 6.73 C 2 km/h
1216 28-03-2015 00:00:00 6.08333 C 5.95 g/m*3 6.08 C 2.93333 km/h
1217 28-03-2015 01:00:00 6.24167 C 5.99 g/m*3 6.24 C 2.26667 km/h
1218 28-03-2015 02:00:00 5.75 C 5.9 g/m*3 5.75 C 0.93333 km/h
1219 28-03-2015 03:00:00 4.275 C 5.54 g/m*3 4.28 C 2.4 km/h
1220 28-03-2015 04:00:00 4.55 C 5.53 g/m*3 4.55 C 2.93333 km/h
1221 28-03-2015 05:00:00 4.775 C 5.52 g/m*3 4.78 C 4.81667 km/h
1222 28-03-2015 06:00:00 4.95 C 5.54 g/m*3 4.95 C 4.81667 km/h
1223 28-03-2015 07:00:00 5.29167 C 5.58 g/m*3 3.84 C 6.7 km/h
1224 28-03-2015 08:00:00 6.14167 C 5.72 g/m*3 4.67 C 7.24167 km/h
1225 28-03-2015 09:00:00 7.4 C 5.9 g/m*3 7.4 C 3.33333 km/h
Sensor: Nr:Datum:Temp:Abs-Feuchte:Windchill:Wind:
Aussen-T/F 1226 28-03-2015 10:00:00 10.575 C 5.75 g/m*3 8.84 C 13.26667 km/h
1227 28-03-2015 11:00:00 11.95833 C 5.66 g/m*3 11.96 C 20.5 km/h
1228 28-03-2015 12:00:00 12.38333 C 5.96 g/m*3 12.38 C 15.7 km/h
1229 28-03-2015 13:00:00 12.45 C 6.17 g/m*3 12.45 C 13.7 km/h
1230 28-03-2015 14:00:00 12.01667 C 6.64 g/m*3 12.02 C 8.71667 km/h
1231 28-03-2015 15:00:00 10.45833 C 7.78 g/m*3 10.46 C 3.74167 km/h
1232 28-03-2015 16:00:00 9.375 C 8.13 g/m*3 9.38 C 2.53333 km/h
1233 28-03-2015 17:00:00 8.75 C 8.07 g/m*3 8.75 C 4.14167 km/h
1234 28-03-2015 18:00:00 9.40833 C 7.99 g/m*3 7.69 C 11.40833 km/h
1235 28-03-2015 19:00:00 9.33333 C 7.96 g/m*3 7.77 C 10.35 km/h
1236 28-03-2015 20:00:00 9.75 C 8.28 g/m*3 8.3 C 10.21667 km/h
1237 28-03-2015 21:00:00 9.875 C 8.52 g/m*3 9.88 C 3.875 km/h
1238 28-03-2015 22:00:00 10.725 C 8.91 g/m*3 9.96 C 7.5 km/h
1239 28-03-2015 23:00:00 11.88333 C 9.26 g/m*3 11.88 C 18.5 km/h
1240 29-03-2015 00:00:00 12.53333 C 9.3 g/m*3 12.53 C 19.575 km/h
1241 29-03-2015 01:00:00 12.45833 C 9.23 g/m*3 12.46 C 16.1 km/h
1242 29-03-2015 02:00:00 11.99167 C 9.28 g/m*3 11.99 C 15.83333 km/h
1243 29-03-2015 04:00:00 11.975 C 9.1 g/m*3 11.98 C 15.7 km/h
1244 29-03-2015 05:00:00 11.8 C 8.98 g/m*3 11.8 C 15.3 km/h
1245 29-03-2015 06:00:00 11.775 C 8.56 g/m*3 11.78 C 14.5 km/h
1246 29-03-2015 07:00:00 11.54167 C 8.36 g/m*3 11.54 C 10.225 km/h
1247 29-03-2015 08:00:00 11.625 C 8.02 g/m*3 11.63 C 13.96667 km/h
1248 29-03-2015 09:00:00 11.3 C 7.7 g/m*3 11.3 C 18.23333 km/h
1249 29-03-2015 10:00:00 11.03333 C 7.85 g/m*3 11.03 C 16.5 km/h
1250 29-03-2015 11:00:00 11.025 C 8.1 g/m*3 11.03 C 19.84167 km/h
Sensor: Nr:Datum:Temp:Abs-Feuchte:Windchill:Wind:
Aussen-T/F 1251 29-03-2015 12:00:00 11.18333 C 8.53 g/m*3 11.18 C 16.23333 km/h
1252 29-03-2015 13:00:00 11.175 C 8.79 g/m*3 11.18 C 19.05 km/h
1253 29-03-2015 14:00:00 11.6 C 8.92 g/m*3 11.6 C 19.56667 km/h
1254 29-03-2015 15:00:00 11.76667 C 8.93 g/m*3 11.77 C 21.44167 km/h
1255 29-03-2015 16:00:00 11.925 C 9.14 g/m*3 11.93 C 18.63333 km/h
1256 29-03-2015 17:00:00 11.84167 C 9.27 g/m*3 11.84 C 19.56667 km/h
1257 29-03-2015 18:00:00 11.80833 C 9.47 g/m*3 11.81 C 23.85833 km/h
1258 29-03-2015 19:00:00 12.275 C 9.4 g/m*3 12.28 C 22.38333 km/h
1259 29-03-2015 20:00:00 12.39167 C 9.35 g/m*3 12.39 C 22.4 km/h
1260 29-03-2015 21:00:00 11.95833 C 9 g/m*3 11.96 C 25.73333 km/h
1261 29-03-2015 22:00:00 11.55 C 8.09 g/m*3 11.55 C 26.15 km/h
1262 29-03-2015 23:00:00 9.10833 C 7.45 g/m*3 6.76 C 15.43333 km/h
1263 30-03-2015 00:00:00 8.56667 C 7.44 g/m*3 6.88 C 10.2 km/h
1264 30-03-2015 01:00:00 8.225 C 7.35 g/m*3 6.55 C 9.8 km/h
1265 30-03-2015 02:00:00 8.375 C 7.24 g/m*3 6.94 C 8.725 km/h
1266 30-03-2015 03:00:00 8.15833 C 7.32 g/m*3 7.05 C 7.11667 km/h
1267 30-03-2015 04:00:00 7.59167 C 7.07 g/m*3 5.85 C 9.53333 km/h
1268 30-03-2015 05:00:00 7.375 C 6.97 g/m*3 6.53 C 5.75 km/h
1269 30-03-2015 06:00:00 6.99167 C 6.72 g/m*3 6.32 C 5.06667 km/h
1270 30-03-2015 07:00:00 6.95 C 6.22 g/m*3 5.41 C 8.06667 km/h
1271 30-03-2015 08:00:00 7.3 C 6.22 g/m*3 6.17 C 6.7 km/h
1272 30-03-2015 09:00:00 8.05 C 6.16 g/m*3 5.64 C 14.09167 km/h
1273 30-03-2015 10:00:00 8.34167 C 6.2 g/m*3 5.49 C 18.1 km/h
1274 30-03-2015 11:00:00 9.09167 C 5.5 g/m*3 5.75 C 25.35 km/h
1275 30-03-2015 12:00:00 8.9 C 5.68 g/m*3 5.91 C 20.79167 km/h
Sensor: Nr:Datum:Temp:Abs-Feuchte:Windchill:Wind:
Aussen-T/F 1276 30-03-2015 13:00:00 10.18333 C 5.26 g/m*3 7.6 C 20.1 km/h
1277 30-03-2015 14:00:00 8.96667 C 5.86 g/m*3 6.12 C 19.575 km/h
1278 30-03-2015 15:00:00 9.46667 C 5.68 g/m*3 6.65 C 20.50833 km/h
1279 30-03-2015 16:00:00 10.35833 C 5.27 g/m*3 7.66 C 21.84167 km/h
1280 30-03-2015 17:00:00 10.35833 C 4.64 g/m*3 7.73 C 21.05833 km/h
1281 30-03-2015 18:00:00 9.69167 C 4.32 g/m*3 7.58 C 14.63333 km/h
1282 30-03-2015 19:00:00 9.425 C 4.39 g/m*3 7.84 C 10.625 km/h
1283 30-03-2015 20:00:00 7.95833 C 4.62 g/m*3 6.51 C 8.44167 km/h
1284 30-03-2015 21:00:00 5.73333 C 5.22 g/m*3 5.73 C 4.4 km/h
1285 30-03-2015 22:00:00 5.29167 C 5.37 g/m*3 5.29 C 1.73333 km/h
1286 30-03-2015 23:00:00 5.83333 C 5.45 g/m*3 5.83 C 0.53333 km/h
1287 31-03-2015 00:00:00 6.3 C 6.08 g/m*3 6.3 C 3.6 km/h
1288 31-03-2015 01:00:00 7.03333 C 6.48 g/m*3 5.61 C 7.65 km/h
1289 31-03-2015 02:00:00 8.45833 C 6.94 g/m*3 6.08 C 14.5 km/h
1290 31-03-2015 03:00:00 9.31667 C 7.69 g/m*3 6.48 C 20.39167 km/h
1291 31-03-2015 04:00:00 10.96667 C 8.43 g/m*3 8.01 C 27.34167 km/h
1292 31-03-2015 05:00:00 12.60833 C 8.76 g/m*3 12.61 C 28.84167 km/h
1293 31-03-2015 06:00:00 13.41667 C 8.89 g/m*3 13.42 C 25.19167 km/h
1294 31-03-2015 07:00:00 12.33333 C 9.29 g/m*3 12.33 C 16.49167 km/h
1295 31-03-2015 08:00:00 12.75833 C 8.28 g/m*3 12.76 C 27.60833 km/h
1296 31-03-2015 09:00:00 12.35 C 8.12 g/m*3 12.35 C 25.74167 km/h
1297 31-03-2015 10:00:00 13.19167 C 7.78 g/m*3 13.19 C 36.875 km/h
1298 31-03-2015 11:00:00 11.79167 C 7.68 g/m*3 11.79 C 28.69167 km/h
1299 31-03-2015 12:00:00 9.575 C 7.58 g/m*3 6.78 C 20.64167 km/h
1300 31-03-2015 13:00:00 9.85 C 7.31 g/m*3 6.51 C 28.15 km/h
Sensor: Nr:Datum:Temp:Abs-Feuchte:Windchill:Wind:
Aussen-T/F 1301 31-03-2015 14:00:00 10.25 C 7.1 g/m*3 6.97 C 28.95833 km/h
1302 31-03-2015 15:00:00 10.39167 C 6.97 g/m*3 7.33 C 26.55 km/h
1303 31-03-2015 16:00:00 12.075 C 6.17 g/m*3 12.08 C 27.09167 km/h
1304 31-03-2015 17:00:00 12.35833 C 5.11 g/m*3 12.36 C 28.28333 km/h
1305 31-03-2015 18:00:00 11.10833 C 4.91 g/m*3 11.11 C 18.64167 km/h
1306 31-03-2015 19:00:00 9.66667 C 5.2 g/m*3 6.92 C 20.36667 km/h
1307 31-03-2015 20:00:00 8.35833 C 5.43 g/m*3 6.27 C 12.36667 km/h
1308 31-03-2015 21:00:00 6.33333 C 5.92 g/m*3 3.31 C 15.58333 km/h
1309 31-03-2015 22:00:00 5.41667 C 6.09 g/m*3 2.82 C 11.68333 km/h
1310 31-03-2015 23:00:00 5.575 C 5.89 g/m*3 1.89 C 19.2 km/h
1311 01-04-2015 00:00:00 4.05 C 5.68 g/m*3 1.25 C 11.29167 km/h
1312 01-04-2015 01:00:00 5.19167 C 5.66 g/m*3 1.84 C 15.96667 km/h
1313 01-04-2015 02:00:00 5.28333 C 5.41 g/m*3 2.15 C 14.63333 km/h
1314 01-04-2015 03:00:00 5.40833 C 5.15 g/m*3 2 C 16.76667 km/h
1315 01-04-2015 04:00:00 5.25 C 5.01 g/m*3 1.83 C 16.51667 km/h
1316 01-04-2015 05:00:00 5.075 C 4.96 g/m*3 2.51 C 11.15833 km/h
1317 01-04-2015 06:00:00 5.06667 C 4.76 g/m*3 1.69 C 15.96667 km/h
1318 01-04-2015 07:00:00 4.39167 C 5.05 g/m*3 1.26 C 13.425 km/h
1319 01-04-2015 08:00:00 4.2 C 5.31 g/m*3 1.17 C 12.63333 km/h
1320 01-04-2015 09:00:00 5.075 C 5.29 g/m*3 2.03 C 13.825 km/h
1321 01-04-2015 10:00:00 6.36667 C 5.19 g/m*3 2.84 C 19.575 km/h
1322 01-04-2015 11:00:00 7.225 C 5.2 g/m*3 3.94 C 19.43333 km/h
1323 01-04-2015 12:00:00 7.86667 C 5.11 g/m*3 4.7 C 19.84167 km/h
1324 01-04-2015 13:00:00 7.86667 C 5.12 g/m*3 4.72 C 19.7 km/h
1325 01-04-2015 14:00:00 6.99167 C 5.76 g/m*3 4.04 C 16.23333 km/h
Sensor: Nr:Datum:Temp:Abs-Feuchte:Windchill:Wind:
Aussen-T/F 1326 01-04-2015 15:00:00 6.75 C 5.83 g/m*3 3.22 C 20.525 km/h
1327 01-04-2015 16:00:00 8.33333 C 5.41 g/m*3 5.11 C 21.59167 km/h
1328 01-04-2015 17:00:00 8.375 C 4.82 g/m*3 5.44 C 18.90833 km/h
1329 01-04-2015 18:00:00 9.00833 C 4.73 g/m*3 6.07 C 20.525 km/h
1330 01-04-2015 19:00:00 8.51667 C 4.62 g/m*3 6.57 C 11.7 km/h
1331 01-04-2015 20:00:00 7.59167 C 4.77 g/m*3 6.43 C 6.975 km/h
1332 01-04-2015 21:00:00 6.96667 C 5.08 g/m*3 5.19 C 9.14167 km/h
1333 01-04-2015 22:00:00 6.36667 C 5.4 g/m*3 3.33 C 15.7 km/h
1334 01-04-2015 23:00:00 6.125 C 5.5 g/m*3 2.8 C 17.43333 km/h
1335 02-04-2015 00:00:00 5.73333 C 5.62 g/m*3 2.55 C 15.7 km/h
1336 02-04-2015 01:00:00 5.68333 C 5.69 g/m*3 3.09 C 11.96667 km/h
1337 02-04-2015 02:00:00 5.775 C 5.75 g/m*3 3.04 C 12.9 km/h
1338 02-04-2015 03:00:00 5.625 C 5.85 g/m*3 2.32 C 16.36667 km/h
1339 02-04-2015 04:00:00 5.35833 C 5.95 g/m*3 2.51 C 13.025 km/h
1340 02-04-2015 05:00:00 5.14167 C 6.02 g/m*3 2.15 C 13.56667 km/h
1341 02-04-2015 06:00:00 4.88333 C 6.07 g/m*3 1.75 C 14.1 km/h
1342 02-04-2015 07:00:00 4.8 C 6.1 g/m*3 1.87 C 12.76667 km/h
1343 02-04-2015 08:00:00 4.94167 C 6.22 g/m*3 2 C 13.03333 km/h
1344 02-04-2015 09:00:00 5.475 C 6.38 g/m*3 2.67 C 12.9 km/h
1345 02-04-2015 10:00:00 5.79167 C 6.32 g/m*3 2.35 C 17.7 km/h
1346 02-04-2015 11:00:00 6 C 6.16 g/m*3 2.81 C 16.23333 km/h
1347 02-04-2015 12:00:00 6.675 C 5.75 g/m*3 3.34 C 18.63333 km/h
1348 02-04-2015 13:00:00 7.7 C 5.29 g/m*3 4.42 C 20.5 km/h
1349 02-04-2015 14:00:00 8.46667 C 5.36 g/m*3 5.44 C 19.975 km/h
1350 02-04-2015 15:00:00 8.775 C 4.95 g/m*3 5.67 C 21.58333 km/h
Sensor: Nr:Datum:Temp:Abs-Feuchte:Windchill:Wind:
Aussen-T/F 1351 02-04-2015 16:00:00 9.15 C 4.64 g/m*3 6.37 C 19.30833 km/h
1352 02-04-2015 17:00:00 8.96667 C 4.52 g/m*3 6.04 C 20.36667 km/h
1353 02-04-2015 18:00:00 9.18333 C 4.52 g/m*3 6.34 C 20.1 km/h
1354 02-04-2015 19:00:00 8.16667 C 4.39 g/m*3 5.32 C 17.7 km/h
1355 02-04-2015 20:00:00 6.94167 C 4.44 g/m*3 4.88 C 10.48333 km/h
1356 02-04-2015 21:00:00 6.08333 C 4.69 g/m*3 5.14 C 5.49167 km/h
1357 02-04-2015 22:00:00 4.79167 C 4.9 g/m*3 4.79 C 4.4 km/h
1358 02-04-2015 23:00:00 4.9 C 4.87 g/m*3 4.9 C 2.8 km/h
1359 03-04-2015 00:00:00 3.675 C 4.88 g/m*3 3.68 C 2 km/h
1360 03-04-2015 01:00:00 2.54167 C 4.86 g/m*3 2.54 C 0.4 km/h
1361 03-04-2015 02:00:00 2.81667 C 4.86 g/m*3 2.82 C 3.46667 km/h
1362 03-04-2015 03:00:00 2.725 C 4.75 g/m*3 2.73 C 3.21667 km/h
1363 03-04-2015 04:00:00 1.39167 C 4.6 g/m*3 1.39 C 0.4 km/h
1364 03-04-2015 05:00:00 0.43333 C 4.44 g/m*3 0.43 C 0.4 km/h
1365 03-04-2015 06:00:00 -0.275 C 4.36 g/m*3 -0.28 C 2.14167 km/h
1366 03-04-2015 07:00:00 -0.2 C 4.39 g/m*3 -0.2 C 3.475 km/h
1367 03-04-2015 08:00:00 -0.01667 C 4.45 g/m*3 -0.02 C 1.2 km/h
1368 03-04-2015 09:00:00 1.225 C 4.83 g/m*3 1.23 C 1.6 km/h
1369 03-04-2015 10:00:00 3.98333 C 5.25 g/m*3 3.98 C 2.93333 km/h
1370 03-04-2015 11:00:00 6.28333 C 5.39 g/m*3 6.28 C 3.625 km/h
1371 03-04-2015 12:00:00 8.49167 C 5.25 g/m*3 7.25 C 7.93333 km/h
1372 03-04-2015 13:00:00 10.13333 C 5.26 g/m*3 8.89 C 9.425 km/h
1373 03-04-2015 14:00:00 10.95 C 4.76 g/m*3 9.73 C 10.23333 km/h
1374 03-04-2015 15:00:00 11.03333 C 4.66 g/m*3 11.03 C 9.15833 km/h
1375 03-04-2015 16:00:00 11.8 C 4.83 g/m*3 11.8 C 6.16667 km/h
Sensor: Nr:Datum:Temp:Abs-Feuchte:Windchill:Wind:
Aussen-T/F 1376 03-04-2015 17:00:00 12.15 C 4.66 g/m*3 12.15 C 5.21667 km/h
1377 03-04-2015 18:00:00 11.86667 C 4.54 g/m*3 11.87 C 6.975 km/h
1378 03-04-2015 19:00:00 10.225 C 5.42 g/m*3 10.23 C 3.33333 km/h
1379 03-04-2015 20:00:00 8.05833 C 5.72 g/m*3 8.06 C 3.6 km/h
1380 03-04-2015 21:00:00 7.39167 C 5.64 g/m*3 7.39 C 3.6 km/h
1381 03-04-2015 22:00:00 7.2 C 5.79 g/m*3 7.2 C 3.33333 km/h
1382 03-04-2015 23:00:00 7.225 C 5.85 g/m*3 7.23 C 3.46667 km/h
1383 04-04-2015 00:00:00 7.31667 C 5.87 g/m*3 7.32 C 3.86667 km/h
1384 04-04-2015 01:00:00 6.94167 C 5.96 g/m*3 6.94 C 3.2 km/h
1385 04-04-2015 02:00:00 6.2 C 6.05 g/m*3 6.2 C 1.73333 km/h
1386 04-04-2015 03:00:00 6.14167 C 6.06 g/m*3 6.14 C 0.8 km/h
1387 04-04-2015 04:00:00 6.08333 C 6.09 g/m*3 6.08 C 0.4 km/h
1388 04-04-2015 05:00:00 5.74167 C 6.17 g/m*3 5.74 C 0 km/h
1389 04-04-2015 06:00:00 5.61667 C 6.25 g/m*3 5.62 C 0.13333 km/h
1390 04-04-2015 07:00:00 5.10833 C 6.33 g/m*3 5.11 C 1.2 km/h
1391 04-04-2015 08:00:00 4.65833 C 6.18 g/m*3 4.66 C 1.73333 km/h
1392 04-04-2015 09:00:00 4.68333 C 6.2 g/m*3 2.93 C 7.39167 km/h
1393 04-04-2015 10:00:00 4.65 C 6.23 g/m*3 2.97 C 7.11667 km/h
1394 04-04-2015 11:00:00 4.85833 C 6.31 g/m*3 3.02 C 7.8 km/h
1395 04-04-2015 12:00:00 5.58333 C 6.41 g/m*3 5.58 C 2.8 km/h
1396 04-04-2015 13:00:00 7.075 C 6.41 g/m*3 7.08 C 4.80833 km/h
1397 04-04-2015 14:00:00 7.975 C 6.2 g/m*3 6.62 C 8.05833 km/h
1398 04-04-2015 15:00:00 8.06667 C 6.19 g/m*3 6.63 C 8.46667 km/h
1399 04-04-2015 16:00:00 9.85833 C 5.11 g/m*3 7.5 C 17.03333 km/h
1400 04-04-2015 17:00:00 10.375 C 4.49 g/m*3 7.89 C 19.56667 km/h
Sensor: Nr:Datum:Temp:Abs-Feuchte:Windchill:Wind:
Aussen-T/F 1401 04-04-2015 18:00:00 9.675 C 4.36 g/m*3 6.89 C 20.76667 km/h
1402 04-04-2015 19:00:00 8.35833 C 4.12 g/m*3 5.99 C 14.23333 km/h
1403 04-04-2015 20:00:00 6.21667 C 3.98 g/m*3 4.72 C 7.4 km/h
1404 04-04-2015 21:00:00 3.73333 C 4.46 g/m*3 3.73 C 2.8 km/h
1405 04-04-2015 22:00:00 3.05833 C 4.48 g/m*3 3.06 C 3.6 km/h
1406 04-04-2015 23:00:00 2 C 4.49 g/m*3 2 C 3.2 km/h
1407 05-04-2015 00:00:00 1.64167 C 4.54 g/m*3 1.64 C 2.66667 km/h
1408 05-04-2015 01:00:00 1.70833 C 4.52 g/m*3 1.71 C 1.6 km/h
1409 05-04-2015 02:00:00 1.15 C 4.58 g/m*3 1.15 C 2.13333 km/h
1410 05-04-2015 03:00:00 1.23333 C 4.61 g/m*3 1.23 C 0.13333 km/h
1411 05-04-2015 04:00:00 1.01667 C 4.55 g/m*3 1.02 C 0 km/h
1412 05-04-2015 05:00:00 1.00833 C 4.61 g/m*3 1.01 C 0.13333 km/h
1413 05-04-2015 06:00:00 0.95833 C 4.63 g/m*3 0.96 C 2.8 km/h
1414 05-04-2015 07:00:00 0.925 C 4.68 g/m*3 0.93 C 3.2 km/h
1415 05-04-2015 08:00:00 1.21667 C 4.79 g/m*3 1.22 C 2.93333 km/h
1416 05-04-2015 09:00:00 1.93333 C 5 g/m*3 1.93 C 2.4 km/h
1417 05-04-2015 10:00:00 3.93333 C 5.33 g/m*3 3.93 C 2.13333 km/h
1418 05-04-2015 11:00:00 5.99167 C 5.36 g/m*3 5.99 C 2.66667 km/h
1419 05-04-2015 12:00:00 7.625 C 5.18 g/m*3 7.63 C 2 km/h
1420 05-04-2015 13:00:00 9.80833 C 4.93 g/m*3 9.28 C 5.89167 km/h
1421 05-04-2015 14:00:00 10.83333 C 4.29 g/m*3 10.29 C 6.575 km/h
1422 05-04-2015 15:00:00 10.95 C 4.02 g/m*3 9.71 C 10.35 km/h
1423 05-04-2015 16:00:00 10.98333 C 3.92 g/m*3 9.63 C 11.16667 km/h
1424 05-04-2015 17:00:00 11.95 C 4.09 g/m*3 11.95 C 14.09167 km/h
1425 05-04-2015 18:00:00 10.69167 C 3.87 g/m*3 9.34 C 10.76667 km/h
Sensor: Nr:Datum:Temp:Abs-Feuchte:Windchill:Wind:
Aussen-T/F 1426 05-04-2015 19:00:00 10.05833 C 3.81 g/m*3 9.12 C 7.79167 km/h
1427 05-04-2015 20:00:00 8.01667 C 4.14 g/m*3 8.02 C 4.675 km/h
1428 05-04-2015 21:00:00 4.95833 C 4.74 g/m*3 4.96 C 4.93333 km/h
1429 05-04-2015 22:00:00 3.78333 C 4.66 g/m*3 3.78 C 4 km/h
1430 05-04-2015 23:00:00 2.75 C 4.68 g/m*3 2.75 C 1.06667 km/h
1431 06-04-2015 00:00:00 1.74167 C 4.39 g/m*3 1.74 C 0 km/h
1432 06-04-2015 01:00:00 1.33333 C 4.26 g/m*3 1.33 C 0.53333 km/h
1433 06-04-2015 02:00:00 0.95 C 4.29 g/m*3 0.95 C 0.8 km/h
1434 06-04-2015 03:00:00 1.39167 C 4.37 g/m*3 1.39 C 1.06667 km/h
1435 06-04-2015 04:00:00 1.55 C 4.4 g/m*3 1.55 C 2.8 km/h
1436 06-04-2015 05:00:00 1.46667 C 4.39 g/m*3 1.47 C 1.33333 km/h
1437 06-04-2015 06:00:00 1.26667 C 4.44 g/m*3 1.27 C 1.73333 km/h
1438 06-04-2015 07:00:00 1.6 C 4.54 g/m*3 1.6 C 2.13333 km/h
1439 06-04-2015 08:00:00 2.075 C 4.64 g/m*3 2.08 C 4.00833 km/h
1440 06-04-2015 09:00:00 2.89167 C 4.89 g/m*3 2.89 C 3.6 km/h
1441 06-04-2015 10:00:00 4.36667 C 5.24 g/m*3 4.37 C 2 km/h
1442 06-04-2015 11:00:00 5.825 C 5.63 g/m*3 4.84 C 5.49167 km/h
1443 06-04-2015 12:00:00 7.45 C 5.81 g/m*3 5.76 C 9.15 km/h
1444 06-04-2015 13:00:00 8.65 C 5.87 g/m*3 6.71 C 11.81667 km/h
1445 06-04-2015 14:00:00 9.2 C 5.93 g/m*3 7.48 C 11.15833 km/h
1446 06-04-2015 15:00:00 10 C 6.17 g/m*3 8.71 C 9.55833 km/h
1447 06-04-2015 16:00:00 11.75 C 6.54 g/m*3 11.75 C 11.96667 km/h
1448 06-04-2015 17:00:00 11.89167 C 6.44 g/m*3 11.89 C 11.69167 km/h
1449 06-04-2015 18:00:00 10.7 C 6.23 g/m*3 9.71 C 8.6 km/h
1450 06-04-2015 19:00:00 10.225 C 6.18 g/m*3 9.73 C 6.01667 km/h
Sensor: Nr:Datum:Temp:Abs-Feuchte:Windchill:Wind:
Aussen-T/F 1451 06-04-2015 20:00:00 7.81667 C 6.21 g/m*3 7.82 C 3.88333 km/h
1452 06-04-2015 21:00:00 5.40833 C 5.98 g/m*3 5.41 C 4.94167 km/h
1453 06-04-2015 22:00:00 4.68333 C 5.86 g/m*3 3.7 C 5.06667 km/h
1454 06-04-2015 23:00:00 3.81667 C 5.64 g/m*3 3.82 C 1.86667 km/h
1455 07-04-2015 00:00:00 2.65833 C 5.3 g/m*3 2.66 C 0 km/h
1456 07-04-2015 01:00:00 1.88333 C 5.12 g/m*3 1.88 C 0 km/h
1457 07-04-2015 02:00:00 1.24167 C 4.95 g/m*3 1.24 C 0 km/h
1458 07-04-2015 03:00:00 0.65 C 4.78 g/m*3 0.65 C 0 km/h
1459 07-04-2015 04:00:00 0.18333 C 4.66 g/m*3 0.18 C 0.26667 km/h
1460 07-04-2015 05:00:00 -0.23333 C 4.53 g/m*3 -0.23 C 0.8 km/h
1461 07-04-2015 06:00:00 -0.51667 C 4.47 g/m*3 -0.52 C 0.53333 km/h
1462 07-04-2015 07:00:00 -0.34167 C 4.54 g/m*3 -0.34 C 1.73333 km/h
1463 07-04-2015 08:00:00 -0.20833 C 4.59 g/m*3 -0.21 C 2.4 km/h
1464 07-04-2015 09:00:00 0.39167 C 4.83 g/m*3 0.39 C 1.2 km/h
1465 07-04-2015 10:00:00 1.7 C 5.29 g/m*3 1.7 C 1.6 km/h
1466 07-04-2015 11:00:00 4.98333 C 6.32 g/m*3 4.98 C 1.2 km/h
1467 07-04-2015 12:00:00 9.44167 C 5.77 g/m*3 9.44 C 4.54167 km/h
1468 07-04-2015 13:00:00 12.30833 C 5.69 g/m*3 12.31 C 6.29167 km/h
1469 07-04-2015 14:00:00 13.25 C 5.51 g/m*3 13.25 C 6.575 km/h
1470 07-04-2015 15:00:00 13.56667 C 5.22 g/m*3 13.57 C 5.61667 km/h
1471 07-04-2015 16:00:00 14.19167 C 5.34 g/m*3 14.19 C 5.34167 km/h
1472 07-04-2015 17:00:00 13.925 C 5.41 g/m*3 13.93 C 8.20833 km/h
1473 07-04-2015 18:00:00 13.48333 C 5.45 g/m*3 13.48 C 3.6 km/h
1474 07-04-2015 19:00:00 12.49167 C 5.71 g/m*3 12.49 C 4.81667 km/h
1475 07-04-2015 20:00:00 9.8 C 5.98 g/m*3 9.8 C 4.13333 km/h
Sensor: Nr:Datum:Temp:Abs-Feuchte:Windchill:Wind:
Aussen-T/F 1476 07-04-2015 21:00:00 7.60833 C 5.95 g/m*3 7.61 C 4.8 km/h
1477 07-04-2015 22:00:00 6.09167 C 5.85 g/m*3 6.09 C 1.86667 km/h
1478 07-04-2015 23:00:00 5.125 C 5.58 g/m*3 5.13 C 0.26667 km/h
1479 08-04-2015 00:00:00 4.13333 C 5.42 g/m*3 4.13 C 0 km/h
1480 08-04-2015 01:00:00 3.825 C 5.43 g/m*3 3.83 C 0.26667 km/h
1481 08-04-2015 02:00:00 3.49167 C 5.34 g/m*3 3.49 C 0.4 km/h
1482 08-04-2015 03:00:00 2.9 C 5.24 g/m*3 2.9 C 1.06667 km/h
1483 08-04-2015 04:00:00 2.525 C 5.15 g/m*3 2.53 C 0.93333 km/h
1484 08-04-2015 05:00:00 1.90833 C 5.02 g/m*3 1.91 C 0.53333 km/h
1485 08-04-2015 06:00:00 1.35 C 4.91 g/m*3 1.35 C 0.4 km/h
1486 08-04-2015 07:00:00 1.29167 C 4.94 g/m*3 1.29 C 0 km/h
1487 08-04-2015 08:00:00 1.975 C 5.19 g/m*3 1.98 C 0.13333 km/h
1488 08-04-2015 09:00:00 3.85833 C 5.61 g/m*3 3.86 C 1.33333 km/h
1489 08-04-2015 10:00:00 6.29167 C 6.1 g/m*3 6.29 C 1.33333 km/h
1490 08-04-2015 11:00:00 9.23 C 6.95 g/m*3 9.23 C 3.68 km/h
1491 08-04-2015 12:00:00 11.325 C 7.36 g/m*3 11.33 C 6.56667 km/h
1492 08-04-2015 13:00:00 13.59167 C 7.73 g/m*3 13.59 C 6.575 km/h
1493 08-04-2015 14:00:00 15.35833 C 8.09 g/m*3 15.36 C 8.35 km/h
1494 08-04-2015 15:00:00 16.3 C 8.13 g/m*3 16.3 C 9.95 km/h
1495 08-04-2015 16:00:00 17.01667 C 8.07 g/m*3 17.02 C 7.80833 km/h
1496 08-04-2015 17:00:00 17.25 C 7.92 g/m*3 17.25 C 6.31667 km/h
1497 08-04-2015 18:00:00 16.88333 C 7.74 g/m*3 16.88 C 6.56667 km/h
1498 08-04-2015 19:00:00 15.2 C 7.77 g/m*3 15.2 C 6.425 km/h
1499 08-04-2015 20:00:00 11.81667 C 7.58 g/m*3 11.82 C 4.13333 km/h
1500 08-04-2015 21:00:00 9.61667 C 7.35 g/m*3 9.26 C 5.2 km/h
Sensor: Nr:Datum:Temp:Abs-Feuchte:Windchill:Wind:
Aussen-T/F 1501 08-04-2015 22:00:00 8.25833 C 7.12 g/m*3 8.26 C 2.66667 km/h
1502 08-04-2015 23:00:00 7.24167 C 6.93 g/m*3 7.24 C 0.93333 km/h
1503 09-04-2015 00:00:00 6.46667 C 6.7 g/m*3 6.47 C 0 km/h
1504 09-04-2015 01:00:00 5.65 C 6.48 g/m*3 5.65 C 0 km/h
1505 09-04-2015 02:00:00 4.95833 C 6.29 g/m*3 4.96 C 0 km/h
1506 09-04-2015 03:00:00 4.4 C 6.13 g/m*3 4.4 C 0 km/h
1507 09-04-2015 04:00:00 4.04167 C 6.05 g/m*3 4.04 C 0 km/h
1508 09-04-2015 05:00:00 3.45833 C 5.82 g/m*3 3.46 C 0 km/h
1509 09-04-2015 06:00:00 2.90833 C 5.65 g/m*3 2.91 C 0 km/h
1510 09-04-2015 07:00:00 2.86667 C 5.66 g/m*3 2.87 C 0.13333 km/h
1511 09-04-2015 08:00:00 3.525 C 5.96 g/m*3 3.53 C 0 km/h
1512 09-04-2015 09:00:00 5.10833 C 6.64 g/m*3 5.11 C 0.13333 km/h
1513 09-04-2015 10:00:00 7.65833 C 7.64 g/m*3 7.66 C 0.26667 km/h
1514 09-04-2015 11:00:00 11.275 C 8.34 g/m*3 11.28 C 0.93333 km/h
1515 09-04-2015 12:00:00 14.7 C 8.69 g/m*3 14.7 C 5.075 km/h
1516 09-04-2015 13:00:00 17.96667 C 9.07 g/m*3 17.97 C 5.74167 km/h
1517 09-04-2015 14:00:00 19.31667 C 8.9 g/m*3 19.32 C 5.89167 km/h
1518 09-04-2015 15:00:00 20.4 C 9.63 g/m*3 20.4 C 8.61667 km/h
1519 09-04-2015 16:00:00 21.21667 C 9.43 g/m*3 21.22 C 6.99167 km/h
1520 09-04-2015 17:00:00 21.425 C 9.2 g/m*3 21.43 C 5.33333 km/h
1521 09-04-2015 18:00:00 21.65 C 8.78 g/m*3 21.65 C 4.675 km/h
1522 09-04-2015 19:00:00 18.95833 C 9 g/m*3 18.96 C 4.4 km/h
1523 09-04-2015 20:00:00 14.15 C 8.34 g/m*3 14.15 C 5.73333 km/h
1524 09-04-2015 21:00:00 13.24167 C 8.35 g/m*3 13.24 C 6.55833 km/h
1525 09-04-2015 22:00:00 12.49167 C 8.25 g/m*3 12.49 C 4.66667 km/h
Sensor: Nr:Datum:Temp:Abs-Feuchte:Windchill:Wind:
Aussen-T/F 1526 09-04-2015 23:00:00 10.88333 C 7.97 g/m*3 10.88 C 2.53333 km/h
1527 10-04-2015 00:00:00 9.68333 C 7.74 g/m*3 9.68 C 0.13333 km/h
1528 10-04-2015 01:00:00 8.64167 C 7.45 g/m*3 8.64 C 0 km/h
1529 10-04-2015 02:00:00 7.70833 C 7.22 g/m*3 7.71 C 0.13333 km/h
1530 10-04-2015 03:00:00 6.9 C 6.98 g/m*3 6.9 C 0 km/h
1531 10-04-2015 04:00:00 6.20833 C 6.82 g/m*3 6.21 C 0 km/h
1532 10-04-2015 05:00:00 5.49167 C 6.57 g/m*3 5.49 C 0.26667 km/h
1533 10-04-2015 06:00:00 5.04167 C 6.43 g/m*3 5.04 C 0.13333 km/h
1534 10-04-2015 07:00:00 4.68333 C 6.33 g/m*3 4.68 C 0 km/h
1535 10-04-2015 08:00:00 5.21667 C 6.62 g/m*3 5.22 C 0.13333 km/h
1536 10-04-2015 09:00:00 6.63333 C 7.17 g/m*3 6.63 C 0 km/h
1537 10-04-2015 10:00:00 9.59167 C 8.14 g/m*3 9.59 C 0 km/h
1538 10-04-2015 11:00:00 13.50833 C 8.89 g/m*3 13.51 C 0.53333 km/h
1539 10-04-2015 12:00:00 17.475 C 9.14 g/m*3 17.48 C 2.66667 km/h
1540 10-04-2015 13:00:00 21.43333 C 8.48 g/m*3 21.43 C 6.29167 km/h
1541 10-04-2015 14:00:00 23.075 C 7.84 g/m*3 23.08 C 6.84167 km/h
1542 10-04-2015 15:00:00 23.68333 C 6.59 g/m*3 23.68 C 10.625 km/h
1543 10-04-2015 16:00:00 24.59167 C 6.26 g/m*3 24.59 C 8.60833 km/h
1544 10-04-2015 17:00:00 24.38333 C 5.71 g/m*3 24.38 C 9.13333 km/h
1545 10-04-2015 18:00:00 23.00833 C 6.24 g/m*3 23.01 C 5.08333 km/h
1546 10-04-2015 19:00:00 18.19167 C 7.69 g/m*3 18.19 C 4.13333 km/h
1547 10-04-2015 20:00:00 15.24167 C 7.42 g/m*3 15.24 C 6.28333 km/h
1548 10-04-2015 21:00:00 13.61667 C 7.04 g/m*3 13.62 C 5.33333 km/h
1549 10-04-2015 22:00:00 12.20833 C 6.69 g/m*3 12.21 C 3.86667 km/h
1550 10-04-2015 23:00:00 11.23333 C 6.46 g/m*3 11.23 C 1.46667 km/h
Sensor: Nr:Datum:Temp:Abs-Feuchte:Windchill:Wind:
Aussen-T/F 1551 11-04-2015 00:00:00 10.76667 C 6.38 g/m*3 10.77 C 2.66667 km/h
1552 11-04-2015 01:00:00 10.40833 C 6.35 g/m*3 10.41 C 2.13333 km/h
1553 11-04-2015 02:00:00 9.04167 C 6.21 g/m*3 9.04 C 0.8 km/h
1554 11-04-2015 03:00:00 8.7 C 6.07 g/m*3 8.7 C 1.475 km/h
1555 11-04-2015 04:00:00 9.09167 C 6.14 g/m*3 9.09 C 2.8 km/h
1556 11-04-2015 05:00:00 7.88333 C 6.18 g/m*3 7.88 C 2 km/h
1557 11-04-2015 06:00:00 7.775 C 6.19 g/m*3 7.78 C 2.80833 km/h
1558 11-04-2015 07:00:00 8.84167 C 6.25 g/m*3 8.84 C 4.8 km/h
1559 11-04-2015 08:00:00 9.6 C 6.63 g/m*3 8.97 C 6.15 km/h
1560 11-04-2015 09:00:00 13.03333 C 7.7 g/m*3 13.03 C 13.95 km/h
1561 11-04-2015 10:00:00 14.975 C 8.44 g/m*3 14.98 C 15.96667 km/h
1562 11-04-2015 11:00:00 15.55 C 8.73 g/m*3 15.55 C 19.96667 km/h
1563 11-04-2015 12:00:00 15.86667 C 9.02 g/m*3 15.87 C 19.56667 km/h
1564 11-04-2015 13:00:00 15.63333 C 9.17 g/m*3 15.63 C 19.43333 km/h
1565 11-04-2015 14:00:00 15.93333 C 9.35 g/m*3 15.93 C 18.9 km/h
1566 11-04-2015 15:00:00 15.825 C 9.19 g/m*3 15.83 C 16.63333 km/h
1567 11-04-2015 16:00:00 16.11667 C 9.01 g/m*3 16.12 C 16.23333 km/h
1568 11-04-2015 17:00:00 15.825 C 9.08 g/m*3 15.83 C 13.83333 km/h
1569 11-04-2015 18:00:00 15.025 C 8.82 g/m*3 15.03 C 10.89167 km/h
1570 11-04-2015 19:00:00 14.61667 C 8.51 g/m*3 14.62 C 10.61667 km/h
1571 11-04-2015 20:00:00 13.90833 C 8.65 g/m*3 13.91 C 10.20833 km/h
1572 11-04-2015 21:00:00 12.975 C 8.85 g/m*3 12.98 C 9 km/h
1573 11-04-2015 22:00:00 10.375 C 8.11 g/m*3 9.14 C 9.65833 km/h
1574 11-04-2015 23:00:00 9.14167 C 7.5 g/m*3 9.14 C 4.15 km/h
1575 12-04-2015 00:00:00 8.73333 C 7.25 g/m*3 8.73 C 2.66667 km/h
Sensor: Nr:Datum:Temp:Abs-Feuchte:Windchill:Wind:
Aussen-T/F 1576 12-04-2015 01:00:00 8.10833 C 7.31 g/m*3 8.11 C 0.93333 km/h
1577 12-04-2015 02:00:00 7.44167 C 7.04 g/m*3 7.44 C 3.33333 km/h
1578 12-04-2015 03:00:00 7.11667 C 6.93 g/m*3 7.12 C 1.6 km/h
1579 12-04-2015 04:00:00 5.8 C 6.48 g/m*3 5.8 C 3.06667 km/h
1580 12-04-2015 05:00:00 5.30833 C 6.39 g/m*3 5.31 C 0 km/h
1581 12-04-2015 06:00:00 4.89167 C 6.26 g/m*3 4.89 C 0.13333 km/h
1582 12-04-2015 07:00:00 4.83333 C 6.27 g/m*3 4.83 C 0.13333 km/h
1583 12-04-2015 08:00:00 5.99167 C 6.7 g/m*3 5.99 C 0.53333 km/h
1584 12-04-2015 09:00:00 7.43333 C 6.97 g/m*3 7.43 C 0.8 km/h
1585 12-04-2015 10:00:00 9.275 C 7.18 g/m*3 9.28 C 1.73333 km/h
1586 12-04-2015 11:00:00 11.975 C 7.53 g/m*3 11.98 C 7.51667 km/h
1587 12-04-2015 12:00:00 14.05 C 6.67 g/m*3 14.05 C 12.1 km/h
1588 12-04-2015 13:00:00 15.58333 C 6.69 g/m*3 15.58 C 10.1 km/h
1589 12-04-2015 14:00:00 16.625 C 6.31 g/m*3 16.63 C 12.23333 km/h
1590 12-04-2015 15:00:00 17.74167 C 6.34 g/m*3 17.74 C 12.48333 km/h
1591 12-04-2015 16:00:00 18.60833 C 6.14 g/m*3 18.61 C 13.7 km/h
1592 12-04-2015 17:00:00 19.16667 C 6.54 g/m*3 19.17 C 14.1 km/h
1593 12-04-2015 18:00:00 19.14167 C 6.67 g/m*3 19.14 C 11.83333 km/h
1594 12-04-2015 19:00:00 17.25 C 7.01 g/m*3 17.25 C 6.16667 km/h
1595 12-04-2015 20:00:00 13.85833 C 7.34 g/m*3 13.86 C 4.66667 km/h
1596 12-04-2015 21:00:00 11.78333 C 7.45 g/m*3 11.78 C 2.93333 km/h
1597 12-04-2015 22:00:00 11.325 C 7.32 g/m*3 11.33 C 1.6 km/h
1598 12-04-2015 23:00:00 10.225 C 7.34 g/m*3 10.23 C 4 km/h
1599 13-04-2015 00:00:00 9.75 C 7.32 g/m*3 9.75 C 1.6 km/h
1600 13-04-2015 01:00:00 10.3 C 7.78 g/m*3 10.3 C 4.80833 km/h
Sensor: Nr:Datum:Temp:Abs-Feuchte:Windchill:Wind:
Aussen-T/F 1601 13-04-2015 02:00:00 11.86667 C 7.99 g/m*3 11.87 C 9.4 km/h
1602 13-04-2015 03:00:00 11.725 C 8.13 g/m*3 11.73 C 7.78333 km/h
1603 13-04-2015 04:00:00 11.89167 C 8.13 g/m*3 11.89 C 6.30833 km/h
1604 13-04-2015 05:00:00 11.38333 C 7.62 g/m*3 11.38 C 7.775 km/h
1605 13-04-2015 06:00:00 10.54167 C 7.07 g/m*3 10.12 C 5.88333 km/h
1606 13-04-2015 07:00:00 10.8 C 7.26 g/m*3 10.32 C 6.30833 km/h
1607 13-04-2015 08:00:00 10.95 C 7.54 g/m*3 10.16 C 7.8 km/h
1608 13-04-2015 09:00:00 10.44167 C 7.74 g/m*3 9.54 C 7.925 km/h
1609 13-04-2015 10:00:00 10.33333 C 7.68 g/m*3 8.91 C 10.75833 km/h
1610 13-04-2015 11:00:00 10.875 C 7.68 g/m*3 9.66 C 10.09167 km/h
1611 13-04-2015 12:00:00 11.99167 C 7.64 g/m*3 11.99 C 13.7 km/h
1612 13-04-2015 13:00:00 13.025 C 7.58 g/m*3 13.03 C 13.96667 km/h
1613 13-04-2015 14:00:00 13.43333 C 7.17 g/m*3 13.43 C 11.96667 km/h
1614 13-04-2015 15:00:00 14.61667 C 7.2 g/m*3 14.62 C 12.36667 km/h
1615 13-04-2015 16:00:00 14.66667 C 6.64 g/m*3 14.67 C 9.95833 km/h
1616 13-04-2015 17:00:00 14.60833 C 6.47 g/m*3 14.61 C 8.6 km/h
1617 13-04-2015 18:00:00 14.725 C 6.42 g/m*3 14.73 C 7.50833 km/h
1618 13-04-2015 19:00:00 13.5 C 6.14 g/m*3 13.5 C 4.675 km/h
1619 13-04-2015 20:00:00 11.275 C 6.36 g/m*3 11.28 C 1.86667 km/h
1620 13-04-2015 21:00:00 8.95833 C 6.28 g/m*3 8.96 C 4.53333 km/h
1621 13-04-2015 22:00:00 7.64167 C 6.07 g/m*3 7.64 C 2.8 km/h
1622 13-04-2015 23:00:00 6.725 C 5.96 g/m*3 6.73 C 0.4 km/h
1623 14-04-2015 00:00:00 6.25 C 5.89 g/m*3 6.25 C 0.4 km/h
1624 14-04-2015 01:00:00 5.825 C 5.88 g/m*3 5.83 C 0.4 km/h
1625 14-04-2015 02:00:00 5.325 C 5.83 g/m*3 5.33 C 0.26667 km/h
Sensor: Nr:Datum:Temp:Abs-Feuchte:Windchill:Wind:
Aussen-T/F 1626 14-04-2015 03:00:00 4.975 C 5.79 g/m*3 4.97 C 0 km/h
1627 14-04-2015 04:00:00 4.80833 C 5.83 g/m*3 4.81 C 0 km/h
1628 14-04-2015 05:00:00 4.46667 C 5.8 g/m*3 4.47 C 0.13333 km/h
1629 14-04-2015 06:00:00 4.23333 C 5.8 g/m*3 4.23 C 0.13333 km/h
1630 14-04-2015 07:00:00 4.775 C 6.05 g/m*3 4.78 C 0.66667 km/h
1631 14-04-2015 08:00:00 5.875 C 6.44 g/m*3 5.88 C 1.2 km/h
1632 14-04-2015 09:00:00 8.18333 C 7.22 g/m*3 8.18 C 4.675 km/h
1633 14-04-2015 10:00:00 12.23333 C 7.98 g/m*3 12.23 C 13.83333 km/h
1634 14-04-2015 11:00:00 14.86667 C 8.5 g/m*3 14.87 C 12.63333 km/h
1635 14-04-2015 12:00:00 17.44167 C 8.93 g/m*3 17.44 C 12.5 km/h
1636 14-04-2015 13:00:00 19.475 C 9.36 g/m*3 19.48 C 13.56667 km/h
1637 14-04-2015 14:00:00 21.40833 C 9.64 g/m*3 21.41 C 13.68333 km/h
1638 14-04-2015 15:00:00 22.78333 C 9.22 g/m*3 22.78 C 14.1 km/h
1639 14-04-2015 16:00:00 24.35833 C 7.03 g/m*3 24.36 C 16.23333 km/h
1640 14-04-2015 17:00:00 24.775 C 6.63 g/m*3 24.78 C 14.63333 km/h
1641 14-04-2015 18:00:00 24.5 C 6.92 g/m*3 24.5 C 11.03333 km/h
1642 14-04-2015 19:00:00 22.99167 C 7.36 g/m*3 22.99 C 8.45833 km/h
1643 14-04-2015 20:00:00 18.59167 C 8.26 g/m*3 18.59 C 4.26667 km/h
1644 14-04-2015 21:00:00 15.68333 C 8.7 g/m*3 15.68 C 4.93333 km/h
1645 14-04-2015 22:00:00 14.24167 C 8.81 g/m*3 14.24 C 2.66667 km/h
1646 14-04-2015 23:00:00 13 C 8.68 g/m*3 13 C 2.13333 km/h
1647 15-04-2015 00:00:00 12.29167 C 8.48 g/m*3 12.29 C 1.6 km/h
1648 15-04-2015 01:00:00 11.84167 C 8.28 g/m*3 11.84 C 2.8 km/h
1649 15-04-2015 02:00:00 11.375 C 8.1 g/m*3 11.38 C 3.875 km/h
1650 15-04-2015 03:00:00 10.75833 C 8 g/m*3 10.76 C 2.66667 km/h
Sensor: Nr:Datum:Temp:Abs-Feuchte:Windchill:Wind:
Aussen-T/F 1651 15-04-2015 04:00:00 9.875 C 7.85 g/m*3 9.88 C 1.33333 km/h
1652 15-04-2015 05:00:00 8.56667 C 7.52 g/m*3 8.57 C 0.53333 km/h
1653 15-04-2015 06:00:00 7.675 C 7.31 g/m*3 7.68 C 0.8 km/h
1654 15-04-2015 07:00:00 7.18333 C 7.25 g/m*3 7.18 C 0.26667 km/h
1655 15-04-2015 08:00:00 8.01667 C 7.73 g/m*3 8.02 C 0.4 km/h
1656 15-04-2015 09:00:00 10.03333 C 8.56 g/m*3 10.03 C 1.6 km/h
1657 15-04-2015 10:00:00 14.25833 C 9.59 g/m*3 14.26 C 3.86667 km/h
1658 15-04-2015 11:00:00 18.70833 C 9.89 g/m*3 18.71 C 6.01667 km/h
1659 15-04-2015 12:00:00 21.65 C 9.16 g/m*3 21.65 C 9.81667 km/h
1660 15-04-2015 13:00:00 23.9 C 8.24 g/m*3 23.9 C 12.63333 km/h
1661 15-04-2015 14:00:00 25.08333 C 7.69 g/m*3 25.08 C 14.09167 km/h
1662 15-04-2015 15:00:00 25.85833 C 7.45 g/m*3 25.86 C 14.1 km/h
1663 15-04-2015 16:00:00 26.63333 C 7.46 g/m*3 26.63 C 12.36667 km/h
1664 15-04-2015 17:00:00 26.65 C 6.98 g/m*3 26.65 C 14.23333 km/h
1665 15-04-2015 18:00:00 24.49167 C 7.23 g/m*3 24.49 C 7.65 km/h
1666 15-04-2015 19:00:00 24.29167 C 7.83 g/m*3 24.29 C 7.51667 km/h
1667 15-04-2015 20:00:00 19.25 C 8.5 g/m*3 19.25 C 3.46667 km/h
1668 15-04-2015 21:00:00 16.875 C 8.88 g/m*3 16.88 C 5.89167 km/h
1669 15-04-2015 22:00:00 15.275 C 8.99 g/m*3 15.28 C 1.86667 km/h
1670 15-04-2015 23:00:00 13.89167 C 8.69 g/m*3 13.89 C 0.53333 km/h
1671 16-04-2015 00:00:00 12.93333 C 8.52 g/m*3 12.93 C 0.8 km/h
1672 16-04-2015 01:00:00 12.05 C 8.34 g/m*3 12.05 C 0.8 km/h
1673 16-04-2015 02:00:00 10.80833 C 8.12 g/m*3 10.81 C 0.26667 km/h
1674 16-04-2015 03:00:00 10.525 C 8.08 g/m*3 10.53 C 3.75 km/h
1675 16-04-2015 04:00:00 9.75833 C 7.86 g/m*3 9.76 C 1.34167 km/h
Sensor: Nr:Datum:Temp:Abs-Feuchte:Windchill:Wind:
Aussen-T/F 1676 16-04-2015 05:00:00 8.85 C 7.65 g/m*3 8.85 C 0.26667 km/h
1677 16-04-2015 06:00:00 8.10833 C 7.51 g/m*3 8.11 C 0 km/h
1678 16-04-2015 07:00:00 8.14167 C 7.65 g/m*3 8.14 C 0.53333 km/h
1679 16-04-2015 08:00:00 9.325 C 8.14 g/m*3 9.32 C 0 km/h
1680 16-04-2015 09:00:00 11.40833 C 8.8 g/m*3 11.41 C 0.8 km/h
1681 16-04-2015 10:00:00 13.94167 C 9.24 g/m*3 13.94 C 2.4 km/h
1682 16-04-2015 11:00:00 15.88333 C 9.47 g/m*3 15.88 C 3.2 km/h
1683 16-04-2015 12:00:00 18.29167 C 9.69 g/m*3 18.29 C 4.93333 km/h
1684 16-04-2015 13:00:00 20.55 C 9.62 g/m*3 20.55 C 6.55833 km/h
1685 16-04-2015 14:00:00 21.73333 C 9.56 g/m*3 21.73 C 5.49167 km/h
1686 16-04-2015 15:00:00 22.65833 C 9.98 g/m*3 22.66 C 7.78333 km/h
1687 16-04-2015 16:00:00 21.96667 C 9.41 g/m*3 21.97 C 7.66667 km/h
1688 16-04-2015 17:00:00 21.56667 C 9.23 g/m*3 21.57 C 7.10833 km/h
1689 16-04-2015 18:00:00 20.35833 C 9 g/m*3 20.36 C 8.20833 km/h
1690 16-04-2015 19:00:00 18.76667 C 8.77 g/m*3 18.77 C 8.74167 km/h
1691 16-04-2015 20:00:00 17.35 C 8.61 g/m*3 17.35 C 5.36667 km/h
1692 16-04-2015 21:00:00 16.29167 C 8.61 g/m*3 16.29 C 4.54167 km/h
1693 16-04-2015 22:00:00 15.56667 C 8.72 g/m*3 15.57 C 5.09167 km/h
1694 16-04-2015 23:00:00 14.30833 C 8.75 g/m*3 14.31 C 2.26667 km/h
1695 17-04-2015 00:00:00 13.625 C 8.48 g/m*3 13.63 C 4.41667 km/h
1696 17-04-2015 01:00:00 12.975 C 8.5 g/m*3 12.98 C 5.23333 km/h
1697 17-04-2015 02:00:00 11.35 C 9.01 g/m*3 11.35 C 3.74167 km/h
1698 17-04-2015 03:00:00 10.00833 C 8.67 g/m*3 10.01 C 2.53333 km/h
1699 17-04-2015 04:00:00 8.80833 C 8.08 g/m*3 8.81 C 4.66667 km/h
1700 17-04-2015 05:00:00 7.84167 C 7.47 g/m*3 7.2 C 5.33333 km/h
Sensor: Nr:Datum:Temp:Abs-Feuchte:Windchill:Wind:
Aussen-T/F 1701 17-04-2015 06:00:00 7.64167 C 7.18 g/m*3 7.64 C 3.6 km/h
1702 17-04-2015 07:00:00 8.20833 C 7.39 g/m*3 8.21 C 1.86667 km/h
1703 17-04-2015 08:00:00 8.91667 C 7.48 g/m*3 8.92 C 0.93333 km/h
1704 17-04-2015 09:00:00 10.03333 C 7.54 g/m*3 10.03 C 4.55833 km/h
1705 17-04-2015 10:00:00 10.59167 C 7.22 g/m*3 9.58 C 8.60833 km/h
1706 17-04-2015 11:00:00 10.66667 C 7.22 g/m*3 9.92 C 7.38333 km/h
1707 17-04-2015 12:00:00 12.425 C 6.91 g/m*3 12.43 C 4.68333 km/h
1708 17-04-2015 13:00:00 15.28333 C 5.81 g/m*3 15.28 C 11.025 km/h
1709 17-04-2015 14:00:00 15.5 C 5.39 g/m*3 15.5 C 11.41667 km/h
1710 17-04-2015 15:00:00 16.8 C 5.67 g/m*3 16.8 C 15.3 km/h
1711 17-04-2015 16:00:00 16.775 C 5.73 g/m*3 16.77 C 15.16667 km/h
1712 17-04-2015 17:00:00 14.74167 C 6.01 g/m*3 14.74 C 17.96667 km/h
1713 17-04-2015 18:00:00 13.99167 C 5.81 g/m*3 13.99 C 16.76667 km/h
1714 17-04-2015 19:00:00 12.75833 C 5.59 g/m*3 12.76 C 13.7 km/h
1715 17-04-2015 20:00:00 11.20833 C 5.36 g/m*3 11.21 C 9.825 km/h
1716 17-04-2015 21:00:00 9.675 C 5.37 g/m*3 9.68 C 3.75 km/h
1717 17-04-2015 22:00:00 7.575 C 5.53 g/m*3 7.58 C 3.6 km/h
1718 17-04-2015 23:00:00 6.61667 C 5.41 g/m*3 6.62 C 2.4 km/h
1719 18-04-2015 00:00:00 5.75 C 5.37 g/m*3 5.75 C 1.6 km/h
1720 18-04-2015 01:00:00 5.075 C 5.37 g/m*3 5.08 C 1.33333 km/h
1721 18-04-2015 02:00:00 4.55 C 5.36 g/m*3 4.55 C 0.8 km/h
1722 18-04-2015 03:00:00 4.05 C 5.31 g/m*3 4.05 C 0.13333 km/h
1723 18-04-2015 04:00:00 3.10833 C 5.11 g/m*3 3.11 C 0 km/h
1724 18-04-2015 05:00:00 2.43333 C 5.04 g/m*3 2.43 C 0 km/h
1725 18-04-2015 06:00:00 2.025 C 5 g/m*3 2.03 C 0.26667 km/h
Sensor: Nr:Datum:Temp:Abs-Feuchte:Windchill:Wind:
Aussen-T/F 1726 18-04-2015 07:00:00 2 C 5.04 g/m*3 2 C 0.13333 km/h
1727 18-04-2015 08:00:00 2.76667 C 5.31 g/m*3 2.77 C 0.4 km/h
1728 18-04-2015 09:00:00 4.84167 C 5.78 g/m*3 4.84 C 1.86667 km/h
1729 18-04-2015 10:00:00 7.05833 C 6.24 g/m*3 7.06 C 1.06667 km/h
1730 18-04-2015 11:00:00 9.5 C 6.11 g/m*3 9 C 5.63333 km/h
1731 18-04-2015 12:00:00 12 C 5.15 g/m*3 12 C 11.96667 km/h
1732 18-04-2015 13:00:00 13.95 C 5.27 g/m*3 13.95 C 13.96667 km/h
1733 18-04-2015 14:00:00 14.775 C 4.96 g/m*3 14.78 C 13.55833 km/h
1734 18-04-2015 15:00:00 15.78333 C 5.01 g/m*3 15.78 C 13.83333 km/h
1735 18-04-2015 16:00:00 16.46667 C 4.95 g/m*3 16.47 C 10.625 km/h
1736 18-04-2015 17:00:00 16.46667 C 4.81 g/m*3 16.47 C 10.36667 km/h
1737 18-04-2015 18:00:00 16.24167 C 4.78 g/m*3 16.24 C 9.15 km/h
1738 18-04-2015 19:00:00 15.475 C 4.73 g/m*3 15.48 C 5.89167 km/h
1739 18-04-2015 20:00:00 11.06667 C 5.35 g/m*3 11.07 C 4.13333 km/h
1740 18-04-2015 21:00:00 8.21667 C 5.23 g/m*3 8.22 C 4.66667 km/h
1741 18-04-2015 22:00:00 7 C 5.23 g/m*3 7 C 1.86667 km/h
1742 18-04-2015 23:00:00 5.91667 C 5.17 g/m*3 5.92 C 0.26667 km/h
1743 19-04-2015 00:00:00 5.03333 C 5.05 g/m*3 5.03 C 0.13333 km/h
1744 19-04-2015 01:00:00 4.2 C 4.97 g/m*3 4.2 C 0 km/h
1745 19-04-2015 02:00:00 3.25 C 4.81 g/m*3 3.25 C 0.13333 km/h
1746 19-04-2015 03:00:00 2.48333 C 4.73 g/m*3 2.48 C 0 km/h
1747 19-04-2015 04:00:00 1.875 C 4.67 g/m*3 1.88 C 0 km/h
1748 19-04-2015 05:00:00 1.4 C 4.65 g/m*3 1.4 C 0 km/h
1749 19-04-2015 06:00:00 0.89167 C 4.6 g/m*3 0.89 C 0 km/h
1750 19-04-2015 07:00:00 1.01667 C 4.71 g/m*3 1.02 C 0 km/h
Sensor: Nr:Datum:Temp:Abs-Feuchte:Windchill:Wind:
Aussen-T/F 1751 19-04-2015 08:00:00 2.00833 C 5.05 g/m*3 2.01 C 0 km/h
1752 19-04-2015 09:00:00 4.49167 C 5.66 g/m*3 4.49 C 0.53333 km/h
1753 19-04-2015 10:00:00 7.475 C 5.97 g/m*3 7.48 C 2.66667 km/h
1754 19-04-2015 11:00:00 11.425 C 5.91 g/m*3 11.43 C 7.25 km/h
1755 19-04-2015 12:00:00 14.00833 C 5.68 g/m*3 14.01 C 8.99167 km/h
1756 19-04-2015 13:00:00 15.9 C 5.68 g/m*3 15.9 C 11.83333 km/h
1757 19-04-2015 14:00:00 17.00833 C 5.57 g/m*3 17.01 C 11.025 km/h
1758 19-04-2015 15:00:00 18.19167 C 5.49 g/m*3 18.19 C 9.525 km/h
1759 19-04-2015 16:00:00 18.73333 C 5.35 g/m*3 18.73 C 9.14167 km/h
1760 19-04-2015 17:00:00 19.35833 C 5.24 g/m*3 19.36 C 12.49167 km/h
1761 19-04-2015 18:00:00 19.33333 C 5.06 g/m*3 19.33 C 8.74167 km/h
1762 19-04-2015 19:00:00 18.41667 C 4.99 g/m*3 18.42 C 5.625 km/h
1763 19-04-2015 20:00:00 13.44167 C 5.71 g/m*3 13.44 C 5.48333 km/h
1764 19-04-2015 21:00:00 10.80833 C 5.8 g/m*3 10.43 C 5.9 km/h
1765 19-04-2015 22:00:00 9.34167 C 5.86 g/m*3 9.34 C 2.26667 km/h
1766 19-04-2015 23:00:00 8.125 C 5.81 g/m*3 8.13 C 0.93333 km/h
1767 20-04-2015 00:00:00 7.28333 C 5.67 g/m*3 7.28 C 0.13333 km/h
1768 20-04-2015 01:00:00 6.275 C 5.58 g/m*3 6.28 C 0.13333 km/h
1769 20-04-2015 02:00:00 5.175 C 5.46 g/m*3 5.18 C 0 km/h
1770 20-04-2015 03:00:00 4.51667 C 5.44 g/m*3 4.52 C 0.13333 km/h
1771 20-04-2015 04:00:00 4.075 C 5.38 g/m*3 4.08 C 0 km/h
1772 20-04-2015 05:00:00 3.59167 C 5.38 g/m*3 3.59 C 0 km/h
1773 20-04-2015 06:00:00 3.4 C 5.42 g/m*3 3.4 C 0.13333 km/h
1774 20-04-2015 07:00:00 3.88333 C 5.57 g/m*3 3.88 C 0.4 km/h
1775 20-04-2015 08:00:00 5.06667 C 5.89 g/m*3 5.07 C 0.13333 km/h
Sensor: Nr:Datum:Temp:Abs-Feuchte:Windchill:Wind:
Aussen-T/F 1776 20-04-2015 09:00:00 7.18333 C 6.45 g/m*3 7.18 C 0.13333 km/h
1777 20-04-2015 10:00:00 9.50833 C 6.75 g/m*3 9.51 C 0.66667 km/h
1778 20-04-2015 11:00:00 13.19167 C 6.64 g/m*3 13.19 C 2.93333 km/h
1779 20-04-2015 12:00:00 16.6 C 6.77 g/m*3 16.6 C 10.08333 km/h
1780 20-04-2015 13:00:00 19.05833 C 6.95 g/m*3 19.06 C 8.58333 km/h
1781 20-04-2015 14:00:00 20.275 C 6.76 g/m*3 20.27 C 10.48333 km/h
1782 20-04-2015 15:00:00 21.45833 C 6.44 g/m*3 21.46 C 10.2 km/h
1783 20-04-2015 16:00:00 22.475 C 6.07 g/m*3 22.48 C 11.29167 km/h
1784 20-04-2015 17:00:00 22.66667 C 6.07 g/m*3 22.67 C 11.3 km/h
1785 20-04-2015 18:00:00 22.26667 C 5.76 g/m*3 22.27 C 12.36667 km/h
1786 20-04-2015 19:00:00 20.81667 C 5.59 g/m*3 20.82 C 10.625 km/h
1787 20-04-2015 20:00:00 17.375 C 6.13 g/m*3 17.38 C 3.875 km/h
1788 20-04-2015 21:00:00 13.575 C 6.33 g/m*3 13.58 C 4.8 km/h
1789 20-04-2015 22:00:00 11.98333 C 6.45 g/m*3 11.98 C 4 km/h
1790 20-04-2015 23:00:00 11.175 C 6.61 g/m*3 11.18 C 4 km/h
1791 21-04-2015 00:00:00 10.11667 C 6.75 g/m*3 10.12 C 2 km/h
1792 21-04-2015 01:00:00 8.73333 C 6.57 g/m*3 8.73 C 0.13333 km/h
1793 21-04-2015 02:00:00 7.825 C 6.41 g/m*3 7.83 C 0.13333 km/h
1794 21-04-2015 03:00:00 6.76667 C 6.28 g/m*3 6.77 C 0 km/h
1795 21-04-2015 04:00:00 6.00833 C 6.19 g/m*3 6.01 C 0.26667 km/h
1796 21-04-2015 05:00:00 5.36667 C 6.1 g/m*3 5.37 C 0.13333 km/h
1797 21-04-2015 06:00:00 5.05 C 6.06 g/m*3 5.05 C 0.4 km/h
1798 21-04-2015 07:00:00 5.125 C 6.12 g/m*3 5.13 C 0 km/h
1799 21-04-2015 08:00:00 5.78333 C 6.42 g/m*3 5.78 C 0 km/h
1800 21-04-2015 09:00:00 7.88333 C 7.05 g/m*3 7.88 C 0.13333 km/h
Sensor: Nr:Datum:Temp:Abs-Feuchte:Windchill:Wind:
Aussen-T/F 1801 21-04-2015 10:00:00 10.80833 C 7.61 g/m*3 10.81 C 0.8 km/h
1802 21-04-2015 11:00:00 14.1 C 8.03 g/m*3 14.1 C 2 km/h
1803 21-04-2015 12:00:00 17.4 C 7.71 g/m*3 17.4 C 4.8 km/h
1804 21-04-2015 13:00:00 20.93333 C 7.59 g/m*3 20.93 C 7.8 km/h
1805 21-04-2015 14:00:00 22.025 C 7 g/m*3 22.03 C 7.65 km/h
1806 21-04-2015 15:00:00 23.13333 C 6.35 g/m*3 23.13 C 9.15833 km/h
1807 21-04-2015 16:00:00 23.725 C 6.21 g/m*3 23.73 C 9.54167 km/h
1808 21-04-2015 17:00:00 23.55833 C 6.4 g/m*3 23.56 C 12.36667 km/h
1809 21-04-2015 18:00:00 22.8 C 6.72 g/m*3 22.8 C 10.5 km/h
1810 21-04-2015 19:00:00 21.54167 C 6.17 g/m*3 21.54 C 7.64167 km/h
1811 21-04-2015 20:00:00 17.93333 C 5.79 g/m*3 17.93 C 4.825 km/h
1812 21-04-2015 21:00:00 15.5 C 5.81 g/m*3 15.5 C 4.675 km/h
1813 21-04-2015 22:00:00 14.08333 C 6.03 g/m*3 14.08 C 4.26667 km/h
1814 21-04-2015 23:00:00 12.49167 C 6.42 g/m*3 12.49 C 4 km/h
1815 22-04-2015 00:00:00 11.16667 C 6.69 g/m*3 11.17 C 3.33333 km/h
1816 22-04-2015 01:00:00 10.45833 C 6.97 g/m*3 10.46 C 3.73333 km/h
1817 22-04-2015 02:00:00 10.05 C 6.97 g/m*3 10.05 C 3.33333 km/h
1818 22-04-2015 03:00:00 9.20833 C 6.67 g/m*3 9.21 C 4.95 km/h
1819 22-04-2015 04:00:00 8.525 C 6.57 g/m*3 8.53 C 4.825 km/h
1820 22-04-2015 05:00:00 7.49167 C 6.58 g/m*3 6.35 C 6.85 km/h
1821 22-04-2015 06:00:00 6.69167 C 6.57 g/m*3 6.69 C 3.6 km/h
1822 22-04-2015 07:00:00 6.40833 C 6.55 g/m*3 5.6 C 5.225 km/h
1823 22-04-2015 08:00:00 6.675 C 6.61 g/m*3 6.68 C 4.15 km/h
1824 22-04-2015 09:00:00 7.75 C 6.65 g/m*3 6.14 C 9.01667 km/h
1825 22-04-2015 10:00:00 8.725 C 6.79 g/m*3 6.88 C 11.29167 km/h
Sensor: Nr:Datum:Temp:Abs-Feuchte:Windchill:Wind:
Aussen-T/F 1826 22-04-2015 11:00:00 10.2 C 6.89 g/m*3 8.7 C 11.025 km/h
1827 22-04-2015 12:00:00 11.90833 C 6.92 g/m*3 11.91 C 13.56667 km/h
1828 22-04-2015 13:00:00 13.75833 C 6.98 g/m*3 13.76 C 14.5 km/h
1829 22-04-2015 14:00:00 14.35 C 7 g/m*3 14.35 C 12.63333 km/h
1830 22-04-2015 15:00:00 15.25833 C 7.12 g/m*3 15.26 C 11.83333 km/h
1831 22-04-2015 16:00:00 15.95 C 7.23 g/m*3 15.95 C 12.63333 km/h
1832 22-04-2015 17:00:00 16.3 C 7.23 g/m*3 16.3 C 12.23333 km/h
1833 22-04-2015 18:00:00 16.525 C 6.73 g/m*3 16.52 C 11.7 km/h
1834 22-04-2015 19:00:00 14.625 C 6.41 g/m*3 14.63 C 9.55833 km/h
1835 22-04-2015 20:00:00 12.19167 C 6.27 g/m*3 12.19 C 4.14167 km/h
1836 22-04-2015 21:00:00 9.21667 C 6.42 g/m*3 9.22 C 4 km/h
1837 22-04-2015 22:00:00 8.125 C 6.44 g/m*3 8.13 C 0.53333 km/h
1838 22-04-2015 23:00:00 7.03333 C 6.25 g/m*3 7.03 C 0.13333 km/h
1839 23-04-2015 00:00:00 6.025 C 6.05 g/m*3 6.03 C 0.13333 km/h
1840 23-04-2015 01:00:00 5.23333 C 5.91 g/m*3 5.23 C 0.13333 km/h
1841 23-04-2015 02:00:00 4.51667 C 5.8 g/m*3 4.52 C 0 km/h
1842 23-04-2015 03:00:00 3.99167 C 5.75 g/m*3 3.99 C 0.13333 km/h
1843 23-04-2015 04:00:00 3.44167 C 5.63 g/m*3 3.44 C 0 km/h
1844 23-04-2015 05:00:00 2.85 C 5.49 g/m*3 2.85 C 0 km/h
1845 23-04-2015 06:00:00 2.35833 C 5.35 g/m*3 2.36 C 0.4 km/h
1846 23-04-2015 07:00:00 2.55833 C 5.47 g/m*3 2.56 C 0.26667 km/h
1847 23-04-2015 08:00:00 3.325 C 5.77 g/m*3 3.33 C 0 km/h
1848 23-04-2015 09:00:00 5.24167 C 6.46 g/m*3 5.24 C 0.26667 km/h
1849 23-04-2015 10:00:00 7.925 C 7.01 g/m*3 7.93 C 0.8 km/h
1850 23-04-2015 11:00:00 11.84167 C 7.47 g/m*3 11.84 C 3.61667 km/h
Sensor: Nr:Datum:Temp:Abs-Feuchte:Windchill:Wind:
Aussen-T/F 1851 23-04-2015 12:00:00 15.025 C 7.54 g/m*3 15.03 C 6.30833 km/h
1852 23-04-2015 13:00:00 17.65833 C 7.53 g/m*3 17.66 C 7.10833 km/h
1853 23-04-2015 14:00:00 18.95 C 6.96 g/m*3 18.95 C 7.24167 km/h
1854 23-04-2015 15:00:00 19.55 C 6.79 g/m*3 19.55 C 7.25 km/h
1855 23-04-2015 16:00:00 20.725 C 6.7 g/m*3 20.73 C 8.20833 km/h
1856 23-04-2015 17:00:00 21.16667 C 6.6 g/m*3 21.17 C 8.74167 km/h
1857 23-04-2015 18:00:00 20.84167 C 6.75 g/m*3 20.84 C 7.8 km/h
1858 23-04-2015 19:00:00 19.925 C 6.93 g/m*3 19.93 C 3.86667 km/h
1859 23-04-2015 20:00:00 14.90833 C 7.6 g/m*3 14.91 C 4.4 km/h
1860 23-04-2015 21:00:00 12.23333 C 7.32 g/m*3 12.23 C 3.06667 km/h
1861 23-04-2015 22:00:00 10.625 C 7.1 g/m*3 10.63 C 0.53333 km/h
1862 23-04-2015 23:00:00 9.25833 C 6.84 g/m*3 9.26 C 0 km/h
1863 24-04-2015 00:00:00 8.33333 C 6.77 g/m*3 8.33 C 0.13333 km/h
1864 24-04-2015 01:00:00 7.43333 C 6.57 g/m*3 7.43 C 0.13333 km/h
1865 24-04-2015 02:00:00 6.68333 C 6.46 g/m*3 6.68 C 0 km/h
1866 24-04-2015 03:00:00 6.10833 C 6.38 g/m*3 6.11 C 0.66667 km/h
1867 24-04-2015 04:00:00 5.35 C 6.21 g/m*3 5.35 C 0 km/h
1868 24-04-2015 05:00:00 4.725 C 6.08 g/m*3 4.72 C 0 km/h
1869 24-04-2015 06:00:00 4.25833 C 5.97 g/m*3 4.26 C 0.13333 km/h
1870 24-04-2015 07:00:00 4.43333 C 6.09 g/m*3 4.43 C 0.26667 km/h
1871 24-04-2015 08:00:00 5.53333 C 6.49 g/m*3 5.53 C 0.13333 km/h
1872 24-04-2015 09:00:00 7.93333 C 7.13 g/m*3 7.93 C 0.4 km/h
1873 24-04-2015 10:00:00 10.7 C 7.93 g/m*3 10.7 C 0.13333 km/h
1874 24-04-2015 11:00:00 15.6 C 7.91 g/m*3 15.6 C 8.05 km/h
1875 24-04-2015 12:00:00 19.09167 C 6.88 g/m*3 19.09 C 14.76667 km/h
Sensor: Nr:Datum:Temp:Abs-Feuchte:Windchill:Wind:
Aussen-T/F 1876 24-04-2015 13:00:00 21.25 C 6.21 g/m*3 21.25 C 13.3 km/h
1877 24-04-2015 14:00:00 22.4 C 5.74 g/m*3 22.4 C 13.16667 km/h
1878 24-04-2015 15:00:00 23.125 C 6.11 g/m*3 23.13 C 12.21667 km/h
1879 24-04-2015 16:00:00 24.225 C 5.75 g/m*3 24.23 C 13.03333 km/h
1880 24-04-2015 17:00:00 24.2 C 5.52 g/m*3 24.2 C 12.75833 km/h
1881 24-04-2015 18:00:00 23.63333 C 5.79 g/m*3 23.63 C 9.81667 km/h
1882 24-04-2015 19:00:00 21.5 C 7.04 g/m*3 21.5 C 4.00833 km/h
1883 24-04-2015 20:00:00 17.05833 C 7.25 g/m*3 17.06 C 4.13333 km/h
1884 24-04-2015 21:00:00 14.34167 C 7.01 g/m*3 14.34 C 4.4 km/h
1885 24-04-2015 22:00:00 12.875 C 6.98 g/m*3 12.88 C 0.93333 km/h
1886 24-04-2015 23:00:00 11.625 C 6.84 g/m*3 11.63 C 0 km/h
1887 25-04-2015 00:00:00 10.74167 C 6.83 g/m*3 10.74 C 0 km/h
1888 25-04-2015 01:00:00 10.025 C 6.93 g/m*3 10.03 C 0.53333 km/h
1889 25-04-2015 02:00:00 9.26667 C 7.01 g/m*3 9.27 C 0 km/h
1890 25-04-2015 03:00:00 9.30833 C 7.21 g/m*3 9.31 C 0.26667 km/h
1891 25-04-2015 04:00:00 9.30833 C 7.35 g/m*3 9.31 C 0.26667 km/h
1892 25-04-2015 05:00:00 9.28333 C 7.53 g/m*3 9.28 C 0 km/h
1893 25-04-2015 06:00:00 9.39167 C 7.7 g/m*3 9.39 C 0 km/h
1894 25-04-2015 07:00:00 10.21667 C 7.95 g/m*3 10.22 C 0.26667 km/h
1895 25-04-2015 08:00:00 10.99167 C 8.52 g/m*3 10.99 C 0.13333 km/h
1896 25-04-2015 09:00:00 11.80833 C 9.17 g/m*3 11.81 C 0.26667 km/h
1897 25-04-2015 10:00:00 12.51667 C 9.61 g/m*3 12.52 C 0.4 km/h
1898 25-04-2015 11:00:00 14.35833 C 10.55 g/m*3 14.36 C 3.475 km/h
1899 25-04-2015 12:00:00 15.725 C 10.61 g/m*3 15.73 C 10.20833 km/h
1900 25-04-2015 13:00:00 17.29167 C 10.58 g/m*3 17.29 C 17.16667 km/h
Sensor: Nr:Datum:Temp:Abs-Feuchte:Windchill:Wind:
Aussen-T/F 1901 25-04-2015 14:00:00 18.10833 C 10.18 g/m*3 18.11 C 17.03333 km/h
1902 25-04-2015 15:00:00 17.41667 C 10.05 g/m*3 17.42 C 15.16667 km/h
1903 25-04-2015 16:00:00 17.30833 C 10.48 g/m*3 17.31 C 16.36667 km/h
1904 25-04-2015 17:00:00 16.1 C 10.62 g/m*3 16.1 C 9.14167 km/h
1905 25-04-2015 18:00:00 15.39167 C 11.03 g/m*3 15.39 C 5.2 km/h
1906 25-04-2015 19:00:00 14.80833 C 10.94 g/m*3 14.81 C 3.74167 km/h
1907 25-04-2015 20:00:00 14.025 C 10.68 g/m*3 14.03 C 3.2 km/h
1908 25-04-2015 21:00:00 13.06667 C 10.27 g/m*3 13.07 C 1.73333 km/h
1909 25-04-2015 22:00:00 12.56667 C 10.07 g/m*3 12.57 C 0.93333 km/h
1910 25-04-2015 23:00:00 11.89167 C 9.83 g/m*3 11.89 C 0 km/h
1911 26-04-2015 00:00:00 11.54167 C 9.63 g/m*3 11.54 C 0 km/h
1912 26-04-2015 01:00:00 11 C 9.39 g/m*3 11 C 0 km/h
1913 26-04-2015 02:00:00 10.95 C 9.49 g/m*3 10.95 C 0 km/h
1914 26-04-2015 03:00:00 10.86667 C 9.47 g/m*3 10.87 C 0 km/h
1915 26-04-2015 04:00:00 10.86667 C 9.53 g/m*3 10.87 C 0 km/h
1916 26-04-2015 05:00:00 11.33333 C 9.88 g/m*3 11.33 C 0 km/h
1917 26-04-2015 06:00:00 11.40833 C 9.86 g/m*3 11.41 C 0 km/h
1918 26-04-2015 07:00:00 11.50833 C 9.95 g/m*3 11.51 C 0 km/h
1919 26-04-2015 08:00:00 12.88333 C 10.61 g/m*3 12.88 C 2.80833 km/h
1920 26-04-2015 09:00:00 14.875 C 10.69 g/m*3 14.88 C 9.14167 km/h
1921 26-04-2015 10:00:00 15.85833 C 10.64 g/m*3 15.86 C 10.625 km/h
1922 26-04-2015 11:00:00 16.75 C 10.61 g/m*3 16.75 C 10.75833 km/h
1923 26-04-2015 12:00:00 18.06667 C 10.54 g/m*3 18.07 C 14.1 km/h
1924 26-04-2015 13:00:00 18.86667 C 10.48 g/m*3 18.87 C 13.7 km/h
1925 26-04-2015 14:00:00 19.90833 C 10.08 g/m*3 19.91 C 15.16667 km/h
Sensor: Nr:Datum:Temp:Abs-Feuchte:Windchill:Wind:
Aussen-T/F 1926 26-04-2015 15:00:00 20.43333 C 9.85 g/m*3 20.43 C 13.15833 km/h
1927 26-04-2015 16:00:00 21.34167 C 9.62 g/m*3 21.34 C 13.7 km/h
1928 26-04-2015 17:00:00 20.46667 C 9.47 g/m*3 20.47 C 7.53333 km/h
1929 26-04-2015 18:00:00 20.51667 C 9.47 g/m*3 20.52 C 6.70833 km/h
1930 26-04-2015 19:00:00 18.5 C 10.48 g/m*3 18.5 C 2.68333 km/h
1931 26-04-2015 20:00:00 17.05 C 10.29 g/m*3 17.05 C 7.91667 km/h
1932 26-04-2015 21:00:00 15.85 C 10.58 g/m*3 15.85 C 5.09167 km/h
1933 26-04-2015 22:00:00 14.15 C 11.07 g/m*3 14.15 C 2.26667 km/h
1934 26-04-2015 23:00:00 13.275 C 10.92 g/m*3 13.28 C 0.13333 km/h
1935 27-04-2015 00:00:00 13.05833 C 10.92 g/m*3 13.06 C 0 km/h
1936 27-04-2015 01:00:00 12.94167 C 10.88 g/m*3 12.94 C 0.26667 km/h
1937 27-04-2015 02:00:00 12.75 C 10.81 g/m*3 12.75 C 3.61667 km/h
1938 27-04-2015 03:00:00 12.44167 C 10.59 g/m*3 12.44 C 1.06667 km/h
1939 27-04-2015 04:00:00 12.3 C 10.53 g/m*3 12.3 C 0 km/h
1940 27-04-2015 05:00:00 12.2 C 10.47 g/m*3 12.2 C 0.53333 km/h
1941 27-04-2015 06:00:00 12.10833 C 10.41 g/m*3 12.11 C 2.26667 km/h
1942 27-04-2015 07:00:00 11.65 C 10.06 g/m*3 11.65 C 9.53333 km/h
1943 27-04-2015 08:00:00 11.10833 C 9.57 g/m*3 11.11 C 3.06667 km/h
1944 27-04-2015 09:00:00 11.725 C 9.88 g/m*3 11.73 C 3.34167 km/h
1945 27-04-2015 10:00:00 11.75 C 9.76 g/m*3 11.75 C 9.55 km/h
1946 27-04-2015 11:00:00 11.10833 C 9.43 g/m*3 11.11 C 10.75 km/h
1947 27-04-2015 12:00:00 10.33333 C 9.03 g/m*3 9.38 C 8.06667 km/h
1948 27-04-2015 13:00:00 10.21667 C 9.01 g/m*3 9.9 C 5.35 km/h
1949 27-04-2015 14:00:00 10.00833 C 8.83 g/m*3 9.12 C 7.50833 km/h
1950 27-04-2015 15:00:00 9.54167 C 8.53 g/m*3 8.8 C 6.575 km/h
Sensor: Nr:Datum:Temp:Abs-Feuchte:Windchill:Wind:
Aussen-T/F 1951 27-04-2015 16:00:00 9.16667 C 8.27 g/m*3 8.16 C 7.39167 km/h
1952 27-04-2015 17:00:00 8.70833 C 8.02 g/m*3 8.18 C 5.35833 km/h
1953 27-04-2015 18:00:00 8.425 C 7.9 g/m*3 8.43 C 2.93333 km/h
1954 27-04-2015 19:00:00 8.10833 C 7.74 g/m*3 8.11 C 4.95 km/h
1955 27-04-2015 20:00:00 7.73333 C 7.47 g/m*3 7.73 C 4.01667 km/h
1956 27-04-2015 21:00:00 7.65833 C 7.55 g/m*3 7.66 C 2.275 km/h
1957 27-04-2015 22:00:00 7.63333 C 7.57 g/m*3 7.63 C 0.8 km/h
1958 27-04-2015 23:00:00 7.40833 C 7.52 g/m*3 7.41 C 0.26667 km/h
1959 28-04-2015 00:00:00 7.23333 C 7.47 g/m*3 7.23 C 0.53333 km/h
1960 28-04-2015 01:00:00 7.25 C 7.42 g/m*3 7.25 C 2.8 km/h
1961 28-04-2015 02:00:00 7.66667 C 7.33 g/m*3 7.67 C 4.69167 km/h
1962 28-04-2015 03:00:00 7.24167 C 7.2 g/m*3 7.24 C 2.26667 km/h
1963 28-04-2015 04:00:00 6.75 C 6.8 g/m*3 6.75 C 3.60833 km/h
1964 28-04-2015 05:00:00 6.13333 C 6.63 g/m*3 6.13 C 4.95 km/h
1965 28-04-2015 06:00:00 5.49167 C 6.35 g/m*3 5.49 C 3.61667 km/h
1966 28-04-2015 07:00:00 5.15833 C 6.33 g/m*3 5.16 C 1.06667 km/h
1967 28-04-2015 08:00:00 5.55833 C 6.45 g/m*3 5.56 C 1.86667 km/h
1968 28-04-2015 09:00:00 6.99167 C 6.66 g/m*3 6.99 C 1.20833 km/h
1969 28-04-2015 10:00:00 8.04167 C 6.92 g/m*3 8.04 C 2.275 km/h
1970 28-04-2015 11:00:00 10.79167 C 6.94 g/m*3 10.44 C 5.775 km/h
1971 28-04-2015 12:00:00 12.325 C 6.53 g/m*3 12.33 C 4.53333 km/h
1972 28-04-2015 13:00:00 12.69167 C 6.27 g/m*3 12.69 C 8.33333 km/h
1973 28-04-2015 14:00:00 13.16667 C 6.1 g/m*3 13.17 C 7.50833 km/h
1974 28-04-2015 15:00:00 12.99167 C 5.83 g/m*3 12.99 C 11.025 km/h
1975 28-04-2015 16:00:00 13.48333 C 6.22 g/m*3 13.48 C 11.68333 km/h
Sensor: Nr:Datum:Temp:Abs-Feuchte:Windchill:Wind:
Aussen-T/F 1976 28-04-2015 17:00:00 14.16667 C 5.79 g/m*3 14.17 C 16.76667 km/h
1977 28-04-2015 18:00:00 13.70833 C 5.75 g/m*3 13.71 C 9.13333 km/h
1978 28-04-2015 19:00:00 13.88333 C 5.34 g/m*3 13.88 C 7.23333 km/h
1979 28-04-2015 20:00:00 10.675 C 5.43 g/m*3 10.3 C 5.78333 km/h
1980 28-04-2015 21:00:00 7.25 C 5.89 g/m*3 7.25 C 3.46667 km/h
1981 28-04-2015 22:00:00 6.14167 C 5.69 g/m*3 6.14 C 2.26667 km/h
1982 28-04-2015 23:00:00 4.9 C 5.47 g/m*3 4.9 C 0 km/h
1983 29-04-2015 00:00:00 4.21667 C 5.37 g/m*3 4.22 C 0.8 km/h
1984 29-04-2015 01:00:00 3.375 C 5.23 g/m*3 3.38 C 0.26667 km/h
1985 29-04-2015 02:00:00 2.675 C 5.12 g/m*3 2.68 C 0.13333 km/h
1986 29-04-2015 03:00:00 2 C 4.96 g/m*3 2 C 0.26667 km/h
1987 29-04-2015 04:00:00 1.45 C 4.84 g/m*3 1.45 C 0 km/h
1988 29-04-2015 05:00:00 1.03333 C 4.76 g/m*3 1.03 C 0.26667 km/h
1989 29-04-2015 06:00:00 0.725 C 4.72 g/m*3 0.73 C 0 km/h
1990 29-04-2015 07:00:00 1.01667 C 4.84 g/m*3 1.02 C 0 km/h
1991 29-04-2015 08:00:00 2.29167 C 5.25 g/m*3 2.29 C 0 km/h
1992 29-04-2015 09:00:00 4.63333 C 5.74 g/m*3 4.63 C 0 km/h
1993 29-04-2015 10:00:00 7.325 C 6.35 g/m*3 7.33 C 1.2 km/h
1994 29-04-2015 11:00:00 10.49167 C 6.66 g/m*3 10.49 C 2.26667 km/h
1995 29-04-2015 12:00:00 13.5 C 6 g/m*3 13.5 C 5.75833 km/h
1996 29-04-2015 13:00:00 14.8 C 5.71 g/m*3 14.8 C 8.05833 km/h
1997 29-04-2015 14:00:00 15.15 C 5.82 g/m*3 15.15 C 8.05833 km/h
1998 29-04-2015 15:00:00 15.74167 C 5.78 g/m*3 15.74 C 6.025 km/h
1999 29-04-2015 16:00:00 15.725 C 5.99 g/m*3 15.73 C 5.35 km/h
2000 29-04-2015 17:00:00 15.49167 C 6.3 g/m*3 15.49 C 3.6 km/h
Sensor: Nr:Datum:Temp:Abs-Feuchte:Windchill:Wind:
Aussen-T/F 2001 29-04-2015 18:00:00 14.575 C 8.22 g/m*3 14.58 C 1.2 km/h
2002 29-04-2015 19:00:00 13.33333 C 7.57 g/m*3 13.33 C 3.60833 km/h
2003 29-04-2015 20:00:00 11.35 C 7.48 g/m*3 11.35 C 3.33333 km/h
2004 29-04-2015 21:00:00 10.10833 C 7.29 g/m*3 10.11 C 1.73333 km/h
2005 29-04-2015 22:00:00 9.30833 C 7.11 g/m*3 9.31 C 0.66667 km/h
2006 29-04-2015 23:00:00 9.025 C 7.03 g/m*3 9.03 C 1.2 km/h
2007 30-04-2015 00:00:00 8.91667 C 6.83 g/m*3 8.92 C 0.93333 km/h
2008 30-04-2015 01:00:00 8.75 C 6.86 g/m*3 8.75 C 1.2 km/h
2009 30-04-2015 02:00:00 8.35 C 6.78 g/m*3 8.35 C 1.06667 km/h
2010 30-04-2015 03:00:00 7.90833 C 6.76 g/m*3 7.91 C 0.66667 km/h
2011 30-04-2015 04:00:00 7.39167 C 6.72 g/m*3 7.39 C 0.93333 km/h
2012 30-04-2015 05:00:00 7.28333 C 6.68 g/m*3 7.28 C 1.6 km/h
2013 30-04-2015 06:00:00 7.075 C 6.79 g/m*3 7.08 C 0.26667 km/h
2014 30-04-2015 07:00:00 7.01667 C 6.88 g/m*3 7.02 C 1.46667 km/h
2015 30-04-2015 08:00:00 9.29167 C 7.15 g/m*3 7.34 C 12.76667 km/h
2016 30-04-2015 09:00:00 10.15 C 7.13 g/m*3 8.24 C 13.83333 km/h
2017 30-04-2015 10:00:00 11.44167 C 7.34 g/m*3 11.44 C 13.56667 km/h
2018 30-04-2015 11:00:00 12.525 C 7.64 g/m*3 12.53 C 11.025 km/h
2019 30-04-2015 12:00:00 13.45833 C 7.66 g/m*3 13.46 C 14.1 km/h
2020 30-04-2015 13:00:00 14.10833 C 8.07 g/m*3 14.11 C 16.63333 km/h
2021 30-04-2015 14:00:00 12.6 C 8.62 g/m*3 12.6 C 9.80833 km/h
2022 30-04-2015 15:00:00 11.98333 C 8.69 g/m*3 11.98 C 14.625 km/h
2023 30-04-2015 16:00:00 11.825 C 8.51 g/m*3 11.83 C 12.88333 km/h
2024 30-04-2015 17:00:00 11.175 C 8.24 g/m*3 11.18 C 12.35833 km/h
2025 30-04-2015 18:00:00 10.45833 C 7.96 g/m*3 8.74 C 12.9 km/h
Sensor: Nr:Datum:Temp:Abs-Feuchte:Windchill:Wind:
Aussen-T/F 2026 30-04-2015 19:00:00 10.06667 C 7.88 g/m*3 8.89 C 8.99167 km/h
2027 30-04-2015 20:00:00 9.625 C 7.93 g/m*3 9.63 C 4.15 km/h
2028 30-04-2015 21:00:00 9.01667 C 7.96 g/m*3 9.02 C 2.00833 km/h
2029 30-04-2015 22:00:00 8.48333 C 7.87 g/m*3 8.48 C 2.4 km/h
2030 30-04-2015 23:00:00 7.68333 C 7.51 g/m*3 7.68 C 1.86667 km/h
2031 01-05-2015 00:00:00 6.26667 C 6.91 g/m*3 6.27 C 1.06667 km/h
2032 01-05-2015 01:00:00 5.975 C 6.88 g/m*3 5.98 C 0.13333 km/h
2033 01-05-2015 02:00:00 5.6 C 6.72 g/m*3 5.6 C 0.66667 km/h
2034 01-05-2015 03:00:00 4.80833 C 6.37 g/m*3 4.81 C 0.13333 km/h
2035 01-05-2015 04:00:00 4.13333 C 6.09 g/m*3 4.13 C 0.13333 km/h
2036 01-05-2015 05:00:00 4.225 C 6.17 g/m*3 4.22 C 0.13333 km/h
2037 01-05-2015 06:00:00 4.325 C 6.24 g/m*3 4.33 C 0.13333 km/h
2038 01-05-2015 07:00:00 4.6 C 6.35 g/m*3 4.6 C 0.13333 km/h
2039 01-05-2015 08:00:00 5.125 C 6.58 g/m*3 5.13 C 0.53333 km/h
2040 01-05-2015 09:00:00 6.03333 C 6.98 g/m*3 6.03 C 0.93333 km/h
2041 01-05-2015 10:00:00 6.825 C 7.35 g/m*3 6.83 C 1.46667 km/h
2042 01-05-2015 11:00:00 7.65833 C 7.71 g/m*3 7.66 C 3.73333 km/h
2043 01-05-2015 12:00:00 9.70833 C 8.33 g/m*3 9.71 C 4.80833 km/h
2044 01-05-2015 13:00:00 12.05 C 8.29 g/m*3 12.05 C 5.89167 km/h
2045 01-05-2015 14:00:00 13.19167 C 7.04 g/m*3 13.19 C 8.2 km/h
2046 01-05-2015 15:00:00 13.30833 C 6.11 g/m*3 13.31 C 5.89167 km/h
2047 01-05-2015 16:00:00 13.21667 C 6.16 g/m*3 13.22 C 5.48333 km/h
2048 01-05-2015 17:00:00 13.15833 C 6.17 g/m*3 13.16 C 5.35 km/h
2049 01-05-2015 18:00:00 12.925 C 6.05 g/m*3 12.93 C 3.73333 km/h
2050 01-05-2015 19:00:00 11.76667 C 7.41 g/m*3 11.77 C 0.53333 km/h
Sensor: Nr:Datum:Temp:Abs-Feuchte:Windchill:Wind:
Aussen-T/F 2051 01-05-2015 20:00:00 9.78333 C 7.02 g/m*3 9.78 C 2 km/h
2052 01-05-2015 21:00:00 8.24167 C 6.84 g/m*3 8.24 C 2.53333 km/h
2053 01-05-2015 22:00:00 7.14167 C 6.64 g/m*3 7.14 C 0.26667 km/h
2054 01-05-2015 23:00:00 6.07273 C 6.31 g/m*3 6.07 C 0 km/h
2055 02-05-2015 00:00:00 5.725 C 6.33 g/m*3 5.73 C 0 km/h
2056 02-05-2015 01:00:00 5.43333 C 6.31 g/m*3 5.43 C 0 km/h
2057 02-05-2015 02:00:00 4.675 C 6.14 g/m*3 4.68 C 0 km/h
2058 02-05-2015 03:00:00 4.18333 C 6.01 g/m*3 4.18 C 0 km/h
2059 02-05-2015 04:00:00 3.625 C 5.83 g/m*3 3.63 C 0.13333 km/h
2060 02-05-2015 05:00:00 2.925 C 5.58 g/m*3 2.93 C 0.26667 km/h
2061 02-05-2015 06:00:00 2.95833 C 5.63 g/m*3 2.96 C 0.4 km/h
2062 02-05-2015 07:00:00 3.69167 C 5.94 g/m*3 3.69 C 3.33333 km/h
2063 02-05-2015 08:00:00 4.73333 C 6.41 g/m*3 4.73 C 1.06667 km/h
2064 02-05-2015 09:00:00 6.51667 C 7.03 g/m*3 6.52 C 1.6 km/h
2065 02-05-2015 10:00:00 8.61667 C 7.22 g/m*3 8.62 C 1.73333 km/h
2066 02-05-2015 11:00:00 12.04167 C 7.79 g/m*3 12.04 C 2 km/h
2067 02-05-2015 12:00:00 14.29167 C 7.64 g/m*3 14.29 C 3.86667 km/h
2068 02-05-2015 13:00:00 15.9 C 7.45 g/m*3 15.9 C 4.93333 km/h
2069 02-05-2015 14:00:00 16.60833 C 7.29 g/m*3 16.61 C 6.7 km/h
2070 02-05-2015 15:00:00 17.46667 C 7.27 g/m*3 17.47 C 4.94167 km/h
2071 02-05-2015 16:00:00 16.94167 C 7.22 g/m*3 16.94 C 2.93333 km/h
2072 02-05-2015 17:00:00 16.46667 C 7.35 g/m*3 16.47 C 3.06667 km/h
2073 02-05-2015 18:00:00 16.05 C 7.82 g/m*3 16.05 C 3.075 km/h
2074 02-05-2015 19:00:00 14.70833 C 8.95 g/m*3 14.71 C 0.4 km/h
2075 02-05-2015 20:00:00 12.75 C 8.89 g/m*3 12.75 C 1.06667 km/h
Sensor: Nr:Datum:Temp:Abs-Feuchte:Windchill:Wind:
Aussen-T/F 2076 02-05-2015 21:00:00 10.74167 C 8.24 g/m*3 10.74 C 3.46667 km/h
2077 02-05-2015 22:00:00 10.20833 C 8.1 g/m*3 10.21 C 2.13333 km/h
2078 02-05-2015 23:00:00 10.09167 C 8.29 g/m*3 10.09 C 0 km/h
2079 03-05-2015 00:00:00 10.31667 C 8.48 g/m*3 10.32 C 0 km/h
2080 03-05-2015 01:00:00 10.41667 C 8.65 g/m*3 10.42 C 0 km/h
2081 03-05-2015 02:00:00 10.475 C 8.72 g/m*3 10.48 C 0 km/h
2082 03-05-2015 03:00:00 10.36667 C 8.78 g/m*3 10.37 C 0.66667 km/h
2083 03-05-2015 04:00:00 10.575 C 8.97 g/m*3 10.58 C 0.26667 km/h
2084 03-05-2015 05:00:00 10.68333 C 9.03 g/m*3 10.68 C 0 km/h
2085 03-05-2015 06:00:00 10.73333 C 9.15 g/m*3 10.73 C 0 km/h
2086 03-05-2015 07:00:00 11.23333 C 9.41 g/m*3 11.23 C 0 km/h
2087 03-05-2015 08:00:00 12.16667 C 9.91 g/m*3 12.17 C 1.06667 km/h
2088 03-05-2015 09:00:00 13.65833 C 10.53 g/m*3 13.66 C 4.13333 km/h
2089 03-05-2015 10:00:00 14.825 C 10.85 g/m*3 14.83 C 5.225 km/h
2090 03-05-2015 11:00:00 16.39167 C 11.4 g/m*3 16.39 C 5.475 km/h
2091 03-05-2015 12:00:00 16.88333 C 11.71 g/m*3 16.88 C 5.075 km/h
2092 03-05-2015 13:00:00 17.63333 C 12.05 g/m*3 17.63 C 6.71667 km/h
2093 03-05-2015 14:00:00 17.6 C 12.12 g/m*3 17.6 C 8.04167 km/h
2094 03-05-2015 15:00:00 16.95833 C 12.57 g/m*3 16.96 C 1.86667 km/h
2095 03-05-2015 16:00:00 15.83333 C 12.35 g/m*3 15.83 C 1.2 km/h
2096 03-05-2015 17:00:00 15.65 C 12.53 g/m*3 15.65 C 0.13333 km/h
2097 03-05-2015 18:00:00 15.4375 C 12.41 g/m*3 15.44 C 0 km/h
2098 03-05-2015 19:00:00 15.06 C 12.3 g/m*3 15.06 C 0 km/h
2099 03-05-2015 20:00:00 15.125 C 12.4 g/m*3 15.13 C 0 km/h
2100 03-05-2015 21:00:00 14.9 C 12.24 g/m*3 14.9 C 2.13333 km/h
Sensor: Nr:Datum:Temp:Abs-Feuchte:Windchill:Wind:
Aussen-T/F 2101 03-05-2015 22:00:00 14.99167 C 12.22 g/m*3 14.99 C 3.875 km/h
2102 03-05-2015 23:00:00 14.675 C 11.89 g/m*3 14.68 C 2.8 km/h
2103 04-05-2015 00:00:00 14.51667 C 11.74 g/m*3 14.52 C 1.73333 km/h
2104 04-05-2015 01:00:00 13.74167 C 11.34 g/m*3 13.74 C 0.8 km/h
2105 04-05-2015 02:00:00 13.76667 C 11.41 g/m*3 13.77 C 0.93333 km/h
2106 04-05-2015 03:00:00 13.11667 C 10.97 g/m*3 13.12 C 0.4 km/h
2107 04-05-2015 04:00:00 12.56667 C 10.61 g/m*3 12.57 C 0 km/h
2108 04-05-2015 05:00:00 12.21667 C 10.43 g/m*3 12.22 C 0.13333 km/h
2109 04-05-2015 06:00:00 12.11667 C 10.4 g/m*3 12.12 C 0.13333 km/h
2110 04-05-2015 07:00:00 12.525 C 10.68 g/m*3 12.53 C 0 km/h
2111 04-05-2015 08:00:00 13.25 C 11.17 g/m*3 13.25 C 0.93333 km/h
2112 04-05-2015 09:00:00 14.41667 C 11.57 g/m*3 14.42 C 5.76667 km/h
2113 04-05-2015 10:00:00 15.33333 C 11.14 g/m*3 15.33 C 5.90833 km/h
2114 04-05-2015 11:00:00 18.20833 C 10.61 g/m*3 18.21 C 12.9 km/h
2115 04-05-2015 12:00:00 19.54167 C 10.05 g/m*3 19.54 C 13.01667 km/h
2116 04-05-2015 13:00:00 21.26667 C 10.12 g/m*3 21.27 C 12.63333 km/h
2117 04-05-2015 14:00:00 22.3 C 10.15 g/m*3 22.3 C 12.35833 km/h
2118 04-05-2015 15:00:00 22.78333 C 10.01 g/m*3 22.78 C 10.36667 km/h
2119 04-05-2015 16:00:00 23.05 C 10.05 g/m*3 23.05 C 7.65833 km/h
2120 04-05-2015 17:00:00 21.93333 C 12.07 g/m*3 21.93 C 1.475 km/h
2121 04-05-2015 18:00:00 20.125 C 12.72 g/m*3 20.13 C 1.2 km/h
2122 04-05-2015 19:00:00 18.7 C 12.79 g/m*3 18.7 C 0.93333 km/h
2123 04-05-2015 20:00:00 17.025 C 12.05 g/m*3 17.02 C 2.26667 km/h
2124 04-05-2015 21:00:00 16.05833 C 11.82 g/m*3 16.06 C 2 km/h
2125 04-05-2015 22:00:00 15.325 C 12.07 g/m*3 15.33 C 1.73333 km/h
Sensor: Nr:Datum:Temp:Abs-Feuchte:Windchill:Wind:
Aussen-T/F 2126 04-05-2015 23:00:00 14.96667 C 12.03 g/m*3 14.97 C 1.33333 km/h
2127 05-05-2015 00:00:00 15.06667 C 12.17 g/m*3 15.07 C 2 km/h
2128 05-05-2015 01:00:00 16.1 C 12.5 g/m*3 16.1 C 5.08333 km/h
2129 05-05-2015 02:00:00 15.88333 C 12.31 g/m*3 15.88 C 3.06667 km/h
2130 05-05-2015 03:00:00 15.66667 C 12.25 g/m*3 15.67 C 2.4 km/h
2131 05-05-2015 04:00:00 15.28333 C 12.12 g/m*3 15.28 C 2 km/h
2132 05-05-2015 05:00:00 15.275 C 12.12 g/m*3 15.28 C 1.2 km/h
2133 05-05-2015 06:00:00 16.025 C 12.52 g/m*3 16.02 C 3.06667 km/h
2134 05-05-2015 07:00:00 16.025 C 12.69 g/m*3 16.02 C 1.46667 km/h
2135 05-05-2015 08:00:00 16.51667 C 13.24 g/m*3 16.52 C 0.26667 km/h
2136 05-05-2015 09:00:00 17.19167 C 13.86 g/m*3 17.19 C 0.26667 km/h
2137 05-05-2015 10:00:00 19.08333 C 14.27 g/m*3 19.08 C 4.40833 km/h
2138 05-05-2015 11:00:00 22.29167 C 13.24 g/m*3 22.29 C 14.475 km/h
2139 05-05-2015 12:00:00 24.2 C 12.29 g/m*3 24.2 C 16.23333 km/h
2140 05-05-2015 13:00:00 24.51667 C 11.28 g/m*3 24.52 C 20.24167 km/h
2141 05-05-2015 14:00:00 24.35833 C 10.71 g/m*3 24.36 C 28.14167 km/h
2142 05-05-2015 15:00:00 24.11667 C 10.17 g/m*3 24.12 C 26.68333 km/h
2143 05-05-2015 16:00:00 22.53333 C 10.26 g/m*3 22.53 C 21.71667 km/h
2144 05-05-2015 17:00:00 20.54167 C 10.15 g/m*3 20.54 C 15.83333 km/h
2145 05-05-2015 18:00:00 20.55833 C 9.89 g/m*3 20.56 C 13.03333 km/h
2146 05-05-2015 19:00:00 19.19167 C 9.63 g/m*3 19.19 C 7.775 km/h
2147 05-05-2015 20:00:00 17.76667 C 9.83 g/m*3 17.77 C 4.825 km/h
2148 05-05-2015 21:00:00 16.6 C 9.63 g/m*3 16.6 C 2.93333 km/h
2149 05-05-2015 22:00:00 14.65833 C 9.07 g/m*3 14.66 C 1.73333 km/h
2150 05-05-2015 23:00:00 13.35833 C 8.88 g/m*3 13.36 C 0.66667 km/h
Sensor: Nr:Datum:Temp:Abs-Feuchte:Windchill:Wind:
Aussen-T/F 2151 06-05-2015 00:00:00 11.925 C 8.64 g/m*3 11.93 C 0.26667 km/h
2152 06-05-2015 01:00:00 10.90833 C 8.43 g/m*3 10.91 C 0 km/h
2153 06-05-2015 02:00:00 10.25 C 8.28 g/m*3 10.25 C 0 km/h
2154 06-05-2015 03:00:00 9.625 C 8.14 g/m*3 9.63 C 0 km/h
2155 06-05-2015 04:00:00 9.2 C 8.08 g/m*3 9.2 C 0 km/h
2156 06-05-2015 05:00:00 8.95 C 8.04 g/m*3 8.95 C 0 km/h
2157 06-05-2015 06:00:00 8.50833 C 7.9 g/m*3 8.51 C 0 km/h
2158 06-05-2015 07:00:00 8.84167 C 8.12 g/m*3 8.84 C 0 km/h
2159 06-05-2015 08:00:00 10.11667 C 8.48 g/m*3 10.12 C 2.275 km/h
2160 06-05-2015 09:00:00 12.875 C 7.97 g/m*3 12.88 C 11.825 km/h
2161 06-05-2015 10:00:00 14.14167 C 7.02 g/m*3 14.14 C 16.1 km/h
2162 06-05-2015 11:00:00 15.85833 C 6.79 g/m*3 15.86 C 15.3 km/h
2163 06-05-2015 12:00:00 16.60833 C 7.13 g/m*3 16.61 C 17.43333 km/h
2164 06-05-2015 13:00:00 17.39167 C 7.33 g/m*3 17.39 C 17.30833 km/h
2165 06-05-2015 14:00:00 18.19167 C 7.39 g/m*3 18.19 C 14.225 km/h
2166 06-05-2015 15:00:00 18.75 C 7.24 g/m*3 18.75 C 18.5 km/h
2167 06-05-2015 16:00:00 19.05 C 7.04 g/m*3 19.05 C 20.50833 km/h
2168 06-05-2015 17:00:00 17.36667 C 7.3 g/m*3 17.37 C 21.31667 km/h
2169 06-05-2015 18:00:00 15.69167 C 7.82 g/m*3 15.69 C 17.975 km/h
2170 06-05-2015 19:00:00 16.15 C 7.63 g/m*3 16.15 C 12.09167 km/h
2171 06-05-2015 20:00:00 15.04167 C 8.05 g/m*3 15.04 C 3.34167 km/h
2172 06-05-2015 21:00:00 12.7 C 7.93 g/m*3 12.7 C 1.33333 km/h
2173 06-05-2015 22:00:00 11.88333 C 7.83 g/m*3 11.88 C 1.73333 km/h
2174 06-05-2015 23:00:00 10.53333 C 7.98 g/m*3 10.53 C 0.53333 km/h
2175 07-05-2015 00:00:00 10.175 C 7.98 g/m*3 10.18 C 0.8 km/h
Sensor: Nr:Datum:Temp:Abs-Feuchte:Windchill:Wind:
Aussen-T/F 2176 07-05-2015 01:00:00 10.36667 C 7.94 g/m*3 10.37 C 3.33333 km/h
2177 07-05-2015 02:00:00 10.51667 C 7.9 g/m*3 10.52 C 3.73333 km/h
2178 07-05-2015 03:00:00 10.1 C 7.86 g/m*3 10.1 C 2.675 km/h
2179 07-05-2015 04:00:00 9.39167 C 7.78 g/m*3 9.39 C 2 km/h
2180 07-05-2015 05:00:00 9.58333 C 7.78 g/m*3 9.58 C 2.8 km/h
2181 07-05-2015 06:00:00 9.175 C 7.7 g/m*3 9.18 C 2.53333 km/h
2182 07-05-2015 07:00:00 9.9 C 7.9 g/m*3 8.64 C 9.275 km/h
2183 07-05-2015 08:00:00 10.59167 C 7.94 g/m*3 9.53 C 8.875 km/h
2184 07-05-2015 09:00:00 11.78333 C 7.84 g/m*3 11.78 C 11.55833 km/h
2185 07-05-2015 10:00:00 13.34167 C 7.64 g/m*3 13.34 C 12.49167 km/h
2186 07-05-2015 11:00:00 14.875 C 7.31 g/m*3 14.88 C 13.7 km/h
2187 07-05-2015 12:00:00 16.025 C 6.96 g/m*3 16.02 C 15.7 km/h
2188 07-05-2015 13:00:00 17.03333 C 6.75 g/m*3 17.03 C 11.55833 km/h
2189 07-05-2015 14:00:00 17.63333 C 6.56 g/m*3 17.63 C 10.9 km/h
2190 07-05-2015 15:00:00 18.525 C 6.77 g/m*3 18.52 C 12.9 km/h
2191 07-05-2015 16:00:00 19.30833 C 6.82 g/m*3 19.31 C 14.36667 km/h
2192 07-05-2015 17:00:00 19.70833 C 6.61 g/m*3 19.71 C 11.825 km/h
2193 07-05-2015 18:00:00 17.975 C 6.48 g/m*3 17.98 C 7.66667 km/h
2194 07-05-2015 19:00:00 17.75 C 6.6 g/m*3 17.75 C 7.24167 km/h
2195 07-05-2015 20:00:00 14.575 C 7.35 g/m*3 14.58 C 2.13333 km/h
2196 07-05-2015 21:00:00 11.93333 C 7.34 g/m*3 11.93 C 0.4 km/h
2197 07-05-2015 22:00:00 10.51667 C 7.18 g/m*3 10.52 C 0 km/h
2198 07-05-2015 23:00:00 9.8 C 7.11 g/m*3 9.8 C 0 km/h
2199 08-05-2015 00:00:00 8.75 C 6.83 g/m*3 8.75 C 0 km/h
2200 08-05-2015 01:00:00 8.725 C 7.02 g/m*3 8.73 C 0 km/h
Sensor: Nr:Datum:Temp:Abs-Feuchte:Windchill:Wind:
Aussen-T/F 2201 08-05-2015 02:00:00 8.51667 C 7.07 g/m*3 8.52 C 0 km/h
2202 08-05-2015 03:00:00 8.35833 C 7.19 g/m*3 8.36 C 0 km/h
2203 08-05-2015 04:00:00 8.19167 C 7.23 g/m*3 8.19 C 0 km/h
2204 08-05-2015 05:00:00 8.03333 C 7.22 g/m*3 8.03 C 0 km/h
2205 08-05-2015 06:00:00 7.9 C 7.26 g/m*3 7.9 C 0 km/h
2206 08-05-2015 07:00:00 8.4 C 7.53 g/m*3 8.4 C 0 km/h
2207 08-05-2015 08:00:00 10.11667 C 8.01 g/m*3 10.12 C 0 km/h
2208 08-05-2015 09:00:00 12.225 C 8.31 g/m*3 12.23 C 0.4 km/h
2209 08-05-2015 10:00:00 14.91667 C 8.7 g/m*3 14.92 C 3.46667 km/h
2210 08-05-2015 11:00:00 18.525 C 8.82 g/m*3 18.52 C 6.3 km/h
2211 08-05-2015 12:00:00 19.89167 C 8 g/m*3 19.89 C 9.825 km/h
2212 08-05-2015 13:00:00 21.35 C 8.15 g/m*3 21.35 C 7.94167 km/h
2213 08-05-2015 14:00:00 22.05 C 8.27 g/m*3 22.05 C 7.375 km/h
2214 08-05-2015 15:00:00 23.03333 C 8.24 g/m*3 23.03 C 7.25833 km/h
2215 08-05-2015 16:00:00 22.625 C 8.2 g/m*3 22.63 C 3.46667 km/h
2216 08-05-2015 17:00:00 21.05833 C 9.47 g/m*3 21.06 C 2 km/h
2217 08-05-2015 18:00:00 18.88333 C 9.08 g/m*3 18.88 C 1.73333 km/h
2218 08-05-2015 19:00:00 16.91667 C 9.55 g/m*3 16.92 C 0.53333 km/h
2219 08-05-2015 20:00:00 15.50833 C 9.46 g/m*3 15.51 C 1.2 km/h
2220 08-05-2015 21:00:00 15.10833 C 9.3 g/m*3 15.11 C 0.66667 km/h
2221 08-05-2015 22:00:00 14.51667 C 9.56 g/m*3 14.52 C 0.13333 km/h
2222 08-05-2015 23:00:00 13.59167 C 9.39 g/m*3 13.59 C 0 km/h
2223 09-05-2015 00:00:00 12.38333 C 8.9 g/m*3 12.38 C 0 km/h
2224 09-05-2015 01:00:00 11.25833 C 8.51 g/m*3 11.26 C 0 km/h
2225 09-05-2015 02:00:00 10.96667 C 8.55 g/m*3 10.97 C 0 km/h
Sensor: Nr:Datum:Temp:Abs-Feuchte:Windchill:Wind:
Aussen-T/F 2226 09-05-2015 03:00:00 10.825 C 8.66 g/m*3 10.83 C 0 km/h
2227 09-05-2015 04:00:00 10.79167 C 8.64 g/m*3 10.79 C 0.66667 km/h
2228 09-05-2015 05:00:00 10.59167 C 8.68 g/m*3 10.59 C 0 km/h
2229 09-05-2015 06:00:00 10.71667 C 8.93 g/m*3 10.72 C 0 km/h
2230 09-05-2015 07:00:00 12.11667 C 9.64 g/m*3 12.12 C 3.48333 km/h
2231 09-05-2015 08:00:00 14.975 C 10.62 g/m*3 14.98 C 9.68333 km/h
2232 09-05-2015 09:00:00 16.08333 C 10.87 g/m*3 16.08 C 9.81667 km/h
2233 09-05-2015 10:00:00 16.93333 C 11.07 g/m*3 16.93 C 12.76667 km/h
2234 09-05-2015 11:00:00 18.24167 C 10.96 g/m*3 18.24 C 13.825 km/h
2235 09-05-2015 12:00:00 18.38333 C 10.62 g/m*3 18.38 C 14.36667 km/h
2236 09-05-2015 13:00:00 19.55833 C 10.44 g/m*3 19.56 C 15.16667 km/h
2237 09-05-2015 14:00:00 21.275 C 9.83 g/m*3 21.28 C 18.5 km/h
2238 09-05-2015 15:00:00 21.8 C 9.24 g/m*3 21.8 C 16.1 km/h
2239 09-05-2015 16:00:00 21.38333 C 9.05 g/m*3 21.38 C 18.25 km/h
2240 09-05-2015 17:00:00 20.88333 C 8.98 g/m*3 20.88 C 16.63333 km/h
2241 09-05-2015 18:00:00 20.24167 C 8.49 g/m*3 20.24 C 13.69167 km/h
2242 09-05-2015 19:00:00 16.34167 C 10.16 g/m*3 16.34 C 11 km/h
2243 09-05-2015 20:00:00 13.93333 C 10.73 g/m*3 13.93 C 2.8 km/h
2244 09-05-2015 21:00:00 12.55 C 10.31 g/m*3 12.55 C 2 km/h
2245 09-05-2015 22:00:00 12.125 C 9.94 g/m*3 12.13 C 2.66667 km/h
2246 09-05-2015 23:00:00 11.5 C 9.55 g/m*3 11.5 C 2.53333 km/h
2247 10-05-2015 00:00:00 11.025 C 9.24 g/m*3 11.03 C 1.06667 km/h
2248 10-05-2015 01:00:00 10.58333 C 9.06 g/m*3 10.58 C 2 km/h
2249 10-05-2015 02:00:00 10.3 C 8.87 g/m*3 10.3 C 0.66667 km/h
2250 10-05-2015 03:00:00 9.84167 C 8.67 g/m*3 9.84 C 1.06667 km/h
Sensor: Nr:Datum:Temp:Abs-Feuchte:Windchill:Wind:
Aussen-T/F 2251 10-05-2015 04:00:00 10.21667 C 8.58 g/m*3 10.22 C 3.06667 km/h
2252 10-05-2015 05:00:00 9.44167 C 8.24 g/m*3 9.44 C 1.46667 km/h
2253 10-05-2015 06:00:00 9.21667 C 8.29 g/m*3 9.22 C 2.26667 km/h
2254 10-05-2015 07:00:00 10.11667 C 8.63 g/m*3 9.56 C 6.15833 km/h
2255 10-05-2015 08:00:00 11.225 C 9.11 g/m*3 11.23 C 8.475 km/h
2256 10-05-2015 09:00:00 12.75 C 9.43 g/m*3 12.75 C 4.93333 km/h
2257 10-05-2015 10:00:00 14.5 C 9.18 g/m*3 14.5 C 5.225 km/h
2258 10-05-2015 11:00:00 16.53333 C 9.65 g/m*3 16.53 C 6.29167 km/h
2259 10-05-2015 12:00:00 16.925 C 9.51 g/m*3 16.93 C 3.33333 km/h
2260 10-05-2015 13:00:00 18.13333 C 9.68 g/m*3 18.13 C 3.86667 km/h
2261 10-05-2015 14:00:00 20.26667 C 9.43 g/m*3 20.27 C 6.85 km/h
2262 10-05-2015 15:00:00 21.16667 C 9.34 g/m*3 21.17 C 7.51667 km/h
2263 10-05-2015 16:00:00 22.11667 C 9.05 g/m*3 22.12 C 7.79167 km/h
2264 10-05-2015 17:00:00 22.48333 C 8.96 g/m*3 22.48 C 5.9 km/h
2265 10-05-2015 18:00:00 21.45833 C 9.01 g/m*3 21.46 C 4.80833 km/h
2266 10-05-2015 19:00:00 19.90833 C 10.6 g/m*3 19.91 C 1.33333 km/h
2267 10-05-2015 20:00:00 16.6 C 10.58 g/m*3 16.6 C 0.8 km/h
2268 10-05-2015 21:00:00 14.25 C 9.71 g/m*3 14.25 C 1.6 km/h
2269 10-05-2015 22:00:00 13.25833 C 9.35 g/m*3 13.26 C 0.13333 km/h
2270 10-05-2015 23:00:00 12.45833 C 9.15 g/m*3 12.46 C 0.26667 km/h
2271 11-05-2015 00:00:00 11.5 C 8.93 g/m*3 11.5 C 0.53333 km/h
2272 11-05-2015 01:00:00 11.35833 C 8.92 g/m*3 11.36 C 0 km/h
2273 11-05-2015 02:00:00 10.50833 C 8.6 g/m*3 10.51 C 0 km/h
2274 11-05-2015 03:00:00 9.60833 C 8.39 g/m*3 9.61 C 0 km/h
2275 11-05-2015 04:00:00 9.2 C 8.29 g/m*3 9.2 C 0 km/h
Sensor: Nr:Datum:Temp:Abs-Feuchte:Windchill:Wind:
Aussen-T/F 2276 11-05-2015 05:00:00 8.71667 C 8.1 g/m*3 8.72 C 0 km/h
2277 11-05-2015 06:00:00 8.76667 C 8.19 g/m*3 8.77 C 0 km/h
2278 11-05-2015 07:00:00 9.8 C 8.72 g/m*3 9.8 C 0 km/h
2279 11-05-2015 08:00:00 11.40833 C 9.29 g/m*3 11.41 C 0 km/h
2280 11-05-2015 09:00:00 13.575 C 9.68 g/m*3 13.58 C 0 km/h
2281 11-05-2015 10:00:00 15.975 C 10.69 g/m*3 15.98 C 0 km/h
2282 11-05-2015 11:00:00 19.825 C 10.96 g/m*3 19.83 C 4.13333 km/h
2283 11-05-2015 12:00:00 22.25833 C 11.33 g/m*3 22.26 C 5.48333 km/h
2284 11-05-2015 13:00:00 23.95833 C 11.45 g/m*3 23.96 C 5.88333 km/h
2285 11-05-2015 14:00:00 24.425 C 11.76 g/m*3 24.43 C 6.16667 km/h
2286 11-05-2015 15:00:00 26.49167 C 11.74 g/m*3 26.49 C 6.975 km/h
2287 11-05-2015 16:00:00 26.64167 C 11.31 g/m*3 26.64 C 6.58333 km/h
2288 11-05-2015 17:00:00 26.11667 C 11.93 g/m*3 26.12 C 5.21667 km/h
2289 11-05-2015 18:00:00 26.43333 C 12.72 g/m*3 26.43 C 3.875 km/h
2290 11-05-2015 19:00:00 22.76667 C 13.45 g/m*3 22.77 C 1.6 km/h
2291 11-05-2015 20:00:00 20.06667 C 12.56 g/m*3 20.07 C 2.13333 km/h
2292 11-05-2015 21:00:00 18.625 C 11.94 g/m*3 18.63 C 1.33333 km/h
2293 11-05-2015 22:00:00 17.16667 C 11.47 g/m*3 17.17 C 0.13333 km/h
2294 11-05-2015 23:00:00 15.88333 C 11.12 g/m*3 15.88 C 0 km/h
2295 12-05-2015 00:00:00 14.79167 C 10.74 g/m*3 14.79 C 0 km/h
2296 12-05-2015 01:00:00 14 C 10.58 g/m*3 14 C 0 km/h
2297 12-05-2015 02:00:00 13.625 C 10.56 g/m*3 13.63 C 0 km/h
2298 12-05-2015 03:00:00 13.29167 C 10.46 g/m*3 13.29 C 0.13333 km/h
2299 12-05-2015 04:00:00 12.975 C 10.4 g/m*3 12.98 C 0.13333 km/h
2300 12-05-2015 05:00:00 12.95833 C 10.43 g/m*3 12.96 C 0.13333 km/h
Sensor: Nr:Datum:Temp:Abs-Feuchte:Windchill:Wind:
Aussen-T/F 2301 12-05-2015 06:00:00 12.94167 C 10.45 g/m*3 12.94 C 0 km/h
2302 12-05-2015 07:00:00 13.61667 C 10.88 g/m*3 13.62 C 0.4 km/h
2303 12-05-2015 08:00:00 15.33333 C 11.41 g/m*3 15.33 C 1.06667 km/h
2304 12-05-2015 09:00:00 17.5 C 12.51 g/m*3 17.5 C 0.26667 km/h
2305 12-05-2015 10:00:00 19.75833 C 13.8 g/m*3 19.76 C 0.66667 km/h
2306 12-05-2015 11:00:00 23.09167 C 13.6 g/m*3 23.09 C 10.04167 km/h
2307 12-05-2015 12:00:00 25.33333 C 13.11 g/m*3 25.33 C 15.03333 km/h
2308 12-05-2015 13:00:00 27.10833 C 13.18 g/m*3 27.11 C 15.3 km/h
2309 12-05-2015 14:00:00 27.20833 C 13.58 g/m*3 27.21 C 10.61667 km/h
2310 12-05-2015 15:00:00 24.74167 C 14.12 g/m*3 24.74 C 13.01667 km/h
2311 12-05-2015 16:00:00 20.95 C 14.76 g/m*3 20.95 C 3.06667 km/h
2312 12-05-2015 17:00:00 19.26667 C 13.35 g/m*3 19.27 C 4.425 km/h
2313 12-05-2015 18:00:00 19.25833 C 10.67 g/m*3 19.26 C 8.59167 km/h
2314 12-05-2015 19:00:00 19.74167 C 9.87 g/m*3 19.74 C 11.96667 km/h
2315 12-05-2015 20:00:00 18.73333 C 9.33 g/m*3 18.73 C 10.86667 km/h
2316 12-05-2015 21:00:00 16.71667 C 9.14 g/m*3 16.72 C 8.725 km/h
2317 12-05-2015 22:00:00 15.48333 C 8.12 g/m*3 15.48 C 4.425 km/h
2318 12-05-2015 23:00:00 14.31667 C 7.64 g/m*3 14.32 C 5.63333 km/h
2319 13-05-2015 00:00:00 13.25 C 7.79 g/m*3 13.25 C 4.95 km/h
2320 13-05-2015 01:00:00 11.51667 C 7.9 g/m*3 11.52 C 0.26667 km/h
2321 13-05-2015 02:00:00 10.16667 C 7.77 g/m*3 10.17 C 0.13333 km/h
2322 13-05-2015 03:00:00 8.9 C 7.53 g/m*3 8.9 C 0.13333 km/h
2323 13-05-2015 04:00:00 8.18333 C 7.4 g/m*3 8.18 C 0.4 km/h
2324 13-05-2015 05:00:00 7.25833 C 7.12 g/m*3 7.26 C 0.13333 km/h
2325 13-05-2015 06:00:00 6.80833 C 7.04 g/m*3 6.81 C 0 km/h
Sensor: Nr:Datum:Temp:Abs-Feuchte:Windchill:Wind:
Aussen-T/F 2326 13-05-2015 07:00:00 7.14167 C 7.27 g/m*3 7.14 C 0 km/h
2327 13-05-2015 08:00:00 8.95833 C 7.84 g/m*3 8.96 C 0 km/h
2328 13-05-2015 09:00:00 10.25 C 8.21 g/m*3 10.25 C 0 km/h
2329 13-05-2015 10:00:00 12.83333 C 8.84 g/m*3 12.83 C 1.33333 km/h
2330 13-05-2015 11:00:00 17.3 C 8.53 g/m*3 17.3 C 3.6 km/h
2331 13-05-2015 12:00:00 18.88333 C 7.98 g/m*3 18.88 C 5.35833 km/h
2332 13-05-2015 13:00:00 21.04167 C 7.79 g/m*3 21.04 C 7.09167 km/h
2333 13-05-2015 14:00:00 22.35833 C 7.18 g/m*3 22.36 C 7.10833 km/h
2334 13-05-2015 15:00:00 22.88333 C 6.43 g/m*3 22.88 C 10.075 km/h
2335 13-05-2015 16:00:00 20.575 C 8.52 g/m*3 20.58 C 1.33333 km/h
2336 13-05-2015 17:00:00 18.975 C 9.86 g/m*3 18.98 C 0.93333 km/h
2337 13-05-2015 18:00:00 17.94167 C 9.41 g/m*3 17.94 C 1.875 km/h
2338 13-05-2015 19:00:00 18.10833 C 9.28 g/m*3 18.11 C 1.46667 km/h
2339 13-05-2015 20:00:00 17.575 C 8.27 g/m*3 17.58 C 4.81667 km/h
2340 13-05-2015 21:00:00 16.73333 C 8.08 g/m*3 16.73 C 4.275 km/h
2341 13-05-2015 22:00:00 15.04167 C 8.25 g/m*3 15.04 C 2.26667 km/h
2342 13-05-2015 23:00:00 14.16667 C 8.36 g/m*3 14.17 C 0.8 km/h
2343 14-05-2015 00:00:00 14.175 C 8.37 g/m*3 14.18 C 2.8 km/h
2344 14-05-2015 01:00:00 13.84167 C 7.94 g/m*3 13.84 C 4.55833 km/h
2345 14-05-2015 02:00:00 13.06667 C 7.64 g/m*3 13.07 C 5.5 km/h
2346 14-05-2015 03:00:00 11.65 C 7.48 g/m*3 11.65 C 5.5 km/h
2347 14-05-2015 04:00:00 10.35 C 7.37 g/m*3 10.35 C 2.53333 km/h
2348 14-05-2015 05:00:00 9.05833 C 7.19 g/m*3 9.06 C 2.66667 km/h
2349 14-05-2015 06:00:00 8.45 C 7.17 g/m*3 8.45 C 0.93333 km/h
2350 14-05-2015 07:00:00 8.55833 C 7.32 g/m*3 8.56 C 1.46667 km/h
Sensor: Nr:Datum:Temp:Abs-Feuchte:Windchill:Wind:
Aussen-T/F 2351 14-05-2015 08:00:00 10.04167 C 7.72 g/m*3 10.04 C 0.93333 km/h
2352 14-05-2015 09:00:00 10.98333 C 7.87 g/m*3 10.98 C 2.4 km/h
2353 14-05-2015 10:00:00 13.125 C 8.23 g/m*3 13.13 C 3.46667 km/h
2354 14-05-2015 11:00:00 15.76667 C 8.44 g/m*3 15.77 C 3.33333 km/h
2355 14-05-2015 12:00:00 17.50833 C 8.5 g/m*3 17.51 C 4.14167 km/h
2356 14-05-2015 13:00:00 18.36667 C 8.15 g/m*3 18.37 C 4.98889 km/h
2357 14-05-2015 14:00:00 19.84167 C 8.16 g/m*3 19.84 C 6.425 km/h
2358 14-05-2015 15:00:00 21.16667 C 8.17 g/m*3 21.17 C 6.3 km/h
2359 14-05-2015 16:00:00 20 C 8.01 g/m*3 20 C 5.21667 km/h
2360 14-05-2015 17:00:00 19.475 C 9.05 g/m*3 19.48 C 3.075 km/h
2361 14-05-2015 18:00:00 16.54167 C 11.19 g/m*3 16.54 C 0.66667 km/h
2362 14-05-2015 19:00:00 14.89167 C 11.07 g/m*3 14.89 C 0.26667 km/h
2363 14-05-2015 20:00:00 13.78333 C 10.96 g/m*3 13.78 C 0.4 km/h
2364 14-05-2015 21:00:00 13.35 C 10.87 g/m*3 13.35 C 0.26667 km/h
2365 14-05-2015 22:00:00 13.25 C 10.92 g/m*3 13.25 C 0 km/h
2366 14-05-2015 23:00:00 13.25833 C 10.95 g/m*3 13.26 C 0 km/h
2367 15-05-2015 00:00:00 12.50833 C 10.45 g/m*3 12.51 C 0 km/h
2368 15-05-2015 01:00:00 12.63333 C 10.63 g/m*3 12.63 C 0 km/h
2369 15-05-2015 02:00:00 12.65 C 10.65 g/m*3 12.65 C 0 km/h
2370 15-05-2015 03:00:00 12.63333 C 10.64 g/m*3 12.63 C 0 km/h
2371 15-05-2015 04:00:00 12.56667 C 10.6 g/m*3 12.57 C 0 km/h
2372 15-05-2015 05:00:00 11.99167 C 10.23 g/m*3 11.99 C 0.26667 km/h
2373 15-05-2015 06:00:00 11.4 C 9.85 g/m*3 11.4 C 0.66667 km/h
2374 15-05-2015 07:00:00 11.34167 C 9.82 g/m*3 11.34 C 0 km/h
2375 15-05-2015 08:00:00 11.56667 C 9.87 g/m*3 11.57 C 0.8 km/h
Sensor: Nr:Datum:Temp:Abs-Feuchte:Windchill:Wind:
Aussen-T/F 2376 15-05-2015 09:00:00 12.48333 C 10.15 g/m*3 12.48 C 5.08333 km/h
2377 15-05-2015 10:00:00 12.94167 C 9.95 g/m*3 12.94 C 9.275 km/h
2378 15-05-2015 11:00:00 13.725 C 10.21 g/m*3 13.73 C 9.275 km/h
2379 15-05-2015 12:00:00 15.11667 C 10.54 g/m*3 15.12 C 10.9 km/h
2380 15-05-2015 13:00:00 17.7 C 10.88 g/m*3 17.7 C 10.1 km/h
2381 15-05-2015 14:00:00 19.13333 C 10.33 g/m*3 19.13 C 14.1 km/h
2382 15-05-2015 15:00:00 20.26667 C 10.43 g/m*3 20.27 C 13.16667 km/h
2383 15-05-2015 16:00:00 21.175 C 9.75 g/m*3 21.18 C 12.36667 km/h
2384 15-05-2015 17:00:00 21.20833 C 9.29 g/m*3 21.21 C 15.43333 km/h
2385 15-05-2015 18:00:00 20.76667 C 9.01 g/m*3 20.77 C 13.16667 km/h
2386 15-05-2015 19:00:00 19.1 C 8.65 g/m*3 19.1 C 10.625 km/h
2387 15-05-2015 20:00:00 17.08333 C 8.17 g/m*3 17.08 C 10.49167 km/h
2388 15-05-2015 21:00:00 15.03333 C 7.88 g/m*3 15.03 C 5.90833 km/h
2389 15-05-2015 22:00:00 13.58333 C 7.64 g/m*3 13.58 C 5.35833 km/h
2390 15-05-2015 23:00:00 12.08333 C 7.54 g/m*3 12.08 C 1.46667 km/h
2391 16-05-2015 00:00:00 10.73333 C 7.36 g/m*3 10.73 C 1.46667 km/h
2392 16-05-2015 01:00:00 9.93333 C 7.28 g/m*3 9.93 C 0.13333 km/h
2393 16-05-2015 02:00:00 8.775 C 7.2 g/m*3 8.78 C 0 km/h
2394 16-05-2015 03:00:00 8.05833 C 7.19 g/m*3 8.06 C 0.8 km/h
2395 16-05-2015 04:00:00 7.48333 C 7.09 g/m*3 7.48 C 0.53333 km/h
2396 16-05-2015 05:00:00 6.84167 C 6.93 g/m*3 6.84 C 0.4 km/h
2397 16-05-2015 06:00:00 6.525 C 6.93 g/m*3 6.53 C 1.06667 km/h
2398 16-05-2015 07:00:00 6.79167 C 7.05 g/m*3 6.79 C 1.2 km/h
2399 16-05-2015 08:00:00 9 C 7.63 g/m*3 8.55 C 5.225 km/h
2400 16-05-2015 09:00:00 11.20833 C 7.93 g/m*3 11.21 C 6.15833 km/h
Sensor: Nr:Datum:Temp:Abs-Feuchte:Windchill:Wind:
Aussen-T/F 2401 16-05-2015 10:00:00 12.53333 C 8.1 g/m*3 12.53 C 5.48333 km/h
2402 16-05-2015 11:00:00 13.39167 C 8.46 g/m*3 13.39 C 4.675 km/h
2403 16-05-2015 12:00:00 14.29167 C 8.38 g/m*3 14.29 C 8.05 km/h
2404 16-05-2015 13:00:00 15.11667 C 8.33 g/m*3 15.12 C 9.80833 km/h
2405 16-05-2015 14:00:00 15.175 C 8.31 g/m*3 15.18 C 12.36667 km/h
2406 16-05-2015 15:00:00 14.99167 C 8.62 g/m*3 14.99 C 9.94167 km/h
2407 16-05-2015 16:00:00 15.68333 C 9.07 g/m*3 15.68 C 5.34167 km/h
2408 16-05-2015 17:00:00 15.85833 C 9.69 g/m*3 15.86 C 5.63333 km/h
2409 16-05-2015 18:00:00 14.5 C 10.03 g/m*3 14.5 C 5.225 km/h
2410 16-05-2015 19:00:00 14.175 C 10.27 g/m*3 14.18 C 1.33333 km/h
2411 16-05-2015 20:00:00 14.425 C 10.18 g/m*3 14.43 C 5.23333 km/h
2412 16-05-2015 21:00:00 14.63333 C 9.91 g/m*3 14.63 C 7.10833 km/h
2413 16-05-2015 22:00:00 14.39167 C 9.94 g/m*3 14.39 C 4.28333 km/h
2414 16-05-2015 23:00:00 13.85 C 9.95 g/m*3 13.85 C 5.225 km/h
2415 17-05-2015 00:00:00 12.91667 C 9.89 g/m*3 12.92 C 1.86667 km/h
2416 17-05-2015 01:00:00 11.93333 C 9.44 g/m*3 11.93 C 1.46667 km/h
2417 17-05-2015 02:00:00 11.20833 C 8.87 g/m*3 11.21 C 2 km/h
2418 17-05-2015 03:00:00 10.5 C 8.52 g/m*3 10.5 C 1.33333 km/h
2419 17-05-2015 04:00:00 9.31667 C 8.13 g/m*3 9.32 C 0.26667 km/h
2420 17-05-2015 05:00:00 8.48333 C 7.83 g/m*3 8.48 C 0 km/h
2421 17-05-2015 06:00:00 8.225 C 7.72 g/m*3 8.23 C 0 km/h
2422 17-05-2015 07:00:00 8.68333 C 7.9 g/m*3 8.68 C 0.26667 km/h
2423 17-05-2015 08:00:00 10.71667 C 8.4 g/m*3 10.72 C 2.53333 km/h
2424 17-05-2015 09:00:00 12.33333 C 8.51 g/m*3 12.33 C 4 km/h
2425 17-05-2015 10:00:00 14.575 C 7.97 g/m*3 14.58 C 5.225 km/h
Sensor: Nr:Datum:Temp:Abs-Feuchte:Windchill:Wind:
Aussen-T/F 2426 17-05-2015 11:00:00 16.45 C 6.92 g/m*3 16.45 C 5.5 km/h
2427 17-05-2015 12:00:00 17.75 C 7.12 g/m*3 17.75 C 8.86667 km/h
2428 17-05-2015 13:00:00 18.15 C 7.22 g/m*3 18.15 C 6.98333 km/h
2429 17-05-2015 14:00:00 17.96667 C 7.4 g/m*3 17.97 C 7.925 km/h
2430 17-05-2015 15:00:00 18.86667 C 7.61 g/m*3 18.87 C 5.075 km/h
2431 17-05-2015 16:00:00 18.94167 C 7.88 g/m*3 18.94 C 4.15 km/h
2432 17-05-2015 17:00:00 19.225 C 8.12 g/m*3 19.23 C 3.73333 km/h
2433 17-05-2015 18:00:00 20.13333 C 7.97 g/m*3 20.13 C 4 km/h
2434 17-05-2015 19:00:00 17.59167 C 9.97 g/m*3 17.59 C 0.26667 km/h
2435 17-05-2015 20:00:00 15.63333 C 9.57 g/m*3 15.63 C 0.26667 km/h
2436 17-05-2015 21:00:00 14.79167 C 9.07 g/m*3 14.79 C 0.93333 km/h
2437 17-05-2015 22:00:00 13.55 C 8.83 g/m*3 13.55 C 1.06667 km/h
2438 17-05-2015 23:00:00 12.6 C 8.52 g/m*3 12.6 C 0.26667 km/h
2439 18-05-2015 00:00:00 11.41667 C 8.21 g/m*3 11.42 C 0 km/h
2440 18-05-2015 01:00:00 10.23333 C 7.85 g/m*3 10.23 C 0 km/h
2441 18-05-2015 02:00:00 9.55 C 7.75 g/m*3 9.55 C 0.26667 km/h
2442 18-05-2015 03:00:00 8.59167 C 7.59 g/m*3 8.59 C 0 km/h
2443 18-05-2015 04:00:00 7.90833 C 7.43 g/m*3 7.91 C 0 km/h
2444 18-05-2015 05:00:00 7.325 C 7.25 g/m*3 7.33 C 0.13333 km/h
2445 18-05-2015 06:00:00 7.10833 C 7.25 g/m*3 7.11 C 0 km/h
2446 18-05-2015 07:00:00 7.54167 C 7.48 g/m*3 7.54 C 0.4 km/h
2447 18-05-2015 08:00:00 9.475 C 8.2 g/m*3 9.48 C 0 km/h
2448 18-05-2015 09:00:00 11.54167 C 8.93 g/m*3 11.54 C 0.8 km/h
2449 18-05-2015 10:00:00 15.3 C 9.36 g/m*3 15.3 C 10.34167 km/h
2450 18-05-2015 11:00:00 17.9 C 8.82 g/m*3 17.9 C 15.425 km/h
Sensor: Nr:Datum:Temp:Abs-Feuchte:Windchill:Wind:
Aussen-T/F 2451 18-05-2015 12:00:00 18.90833 C 8.43 g/m*3 18.91 C 15.56667 km/h
2452 18-05-2015 13:00:00 20.54167 C 8.16 g/m*3 20.54 C 15.975 km/h
2453 18-05-2015 14:00:00 21.96667 C 7.75 g/m*3 21.97 C 15.96667 km/h
2454 18-05-2015 15:00:00 22.78333 C 7.31 g/m*3 22.78 C 17.84167 km/h
2455 18-05-2015 16:00:00 23.425 C 7.51 g/m*3 23.43 C 15.43333 km/h
2456 18-05-2015 17:00:00 23.39167 C 7.6 g/m*3 23.39 C 14.9 km/h
2457 18-05-2015 18:00:00 22.5 C 7.64 g/m*3 22.5 C 12.225 km/h
2458 18-05-2015 19:00:00 21.625 C 8.02 g/m*3 21.63 C 10.74167 km/h
2459 18-05-2015 20:00:00 19.625 C 8.48 g/m*3 19.63 C 3.74167 km/h
2460 18-05-2015 21:00:00 17.675 C 8.36 g/m*3 17.68 C 2.4 km/h
2461 18-05-2015 22:00:00 15.84167 C 8.64 g/m*3 15.84 C 1.6 km/h
2462 18-05-2015 23:00:00 14.43333 C 8.62 g/m*3 14.43 C 0.8 km/h
2463 19-05-2015 00:00:00 13.48333 C 8.68 g/m*3 13.48 C 3.75833 km/h
2464 19-05-2015 01:00:00 13.15833 C 9.01 g/m*3 13.16 C 6.44167 km/h
2465 19-05-2015 02:00:00 12.36667 C 8.52 g/m*3 12.37 C 5.9 km/h
2466 19-05-2015 03:00:00 11.72727 C 8.38 g/m*3 11.73 C 2.61818 km/h
2467 19-05-2015 06:00:00 8.25 C 7.31 g/m*3 8.25 C 4.8 km/h
2468 19-05-2015 07:00:00 8.55 C 7 g/m*3 7.91 C 5.625 km/h
2469 19-05-2015 08:00:00 10.43333 C 7.06 g/m*3 9.07 C 10.48333 km/h
2470 19-05-2015 09:00:00 11.125 C 6.93 g/m*3 11.13 C 12.23333 km/h
2471 19-05-2015 10:00:00 12.50833 C 6.96 g/m*3 12.51 C 11.83333 km/h
2472 19-05-2015 11:00:00 13.68333 C 6.65 g/m*3 13.68 C 14.35833 km/h
2473 19-05-2015 12:00:00 14.6 C 6.55 g/m*3 14.6 C 16.5 km/h
2474 19-05-2015 13:00:00 15.36667 C 6.35 g/m*3 15.37 C 15.83333 km/h
2475 19-05-2015 14:00:00 16.99167 C 6.35 g/m*3 16.99 C 18.23333 km/h
Sensor: Nr:Datum:Temp:Abs-Feuchte:Windchill:Wind:
Aussen-T/F 2476 19-05-2015 15:00:00 16.99167 C 6.17 g/m*3 16.99 C 15.56667 km/h
2477 19-05-2015 16:00:00 16.95833 C 6.16 g/m*3 16.96 C 15.16667 km/h
2478 19-05-2015 17:00:00 16.51667 C 6.21 g/m*3 16.52 C 13.83333 km/h
2479 19-05-2015 18:00:00 16.56667 C 6.46 g/m*3 16.57 C 12.625 km/h
2480 19-05-2015 19:00:00 16.05833 C 6.21 g/m*3 16.06 C 10.08333 km/h
2481 19-05-2015 20:00:00 14.59167 C 6.45 g/m*3 14.59 C 5.61667 km/h
2482 19-05-2015 21:00:00 13.23333 C 6.85 g/m*3 13.23 C 1.46667 km/h
2483 19-05-2015 22:00:00 11.43333 C 7.05 g/m*3 11.43 C 1.46667 km/h
2484 19-05-2015 23:00:00 11.03333 C 7.18 g/m*3 11.03 C 0.53333 km/h
2485 20-05-2015 00:00:00 10.43333 C 7.36 g/m*3 10.43 C 0.26667 km/h
2486 20-05-2015 01:00:00 10.61667 C 7.35 g/m*3 10.62 C 1.86667 km/h
2487 20-05-2015 02:00:00 10.39167 C 7.54 g/m*3 10.39 C 2.53333 km/h
2488 20-05-2015 03:00:00 9.74167 C 7.72 g/m*3 9.74 C 0.53333 km/h
2489 20-05-2015 04:00:00 9.21667 C 7.7 g/m*3 9.22 C 0.13333 km/h
2490 20-05-2015 05:00:00 8.825 C 7.6 g/m*3 8.82 C 2.68333 km/h
2491 20-05-2015 06:00:00 9.21667 C 7.66 g/m*3 9.22 C 0.26667 km/h
2492 20-05-2015 07:00:00 9.7 C 7.68 g/m*3 9.7 C 4 km/h
2493 20-05-2015 08:00:00 10.13333 C 7.58 g/m*3 9.45 C 6.70833 km/h
2494 20-05-2015 09:00:00 11.03333 C 7.47 g/m*3 11.03 C 9.54167 km/h
2495 20-05-2015 10:00:00 13.225 C 6.98 g/m*3 13.23 C 10.35 km/h
2496 20-05-2015 11:00:00 13.475 C 6.55 g/m*3 13.48 C 9.675 km/h
2497 20-05-2015 12:00:00 14.75833 C 6.4 g/m*3 14.76 C 7.78333 km/h
2498 20-05-2015 13:00:00 15.725 C 6.24 g/m*3 15.73 C 11.94167 km/h
2499 20-05-2015 14:00:00 14.3 C 6.76 g/m*3 14.3 C 8.6 km/h
2500 20-05-2015 15:00:00 15.95833 C 7.12 g/m*3 15.96 C 10.75 km/h
Sensor: Nr:Datum:Temp:Abs-Feuchte:Windchill:Wind:
Aussen-T/F 2501 20-05-2015 16:00:00 13.6 C 7.19 g/m*3 13.6 C 7.65 km/h
2502 20-05-2015 17:00:00 14.95 C 8.05 g/m*3 14.95 C 3.2 km/h
2503 20-05-2015 18:00:00 14.47778 C 7.67 g/m*3 14.48 C 3.56667 km/h
2504 20-05-2015 19:00:00 14.04167 C 7.42 g/m*3 14.04 C 5.225 km/h
2505 20-05-2015 20:00:00 13.5 C 7.46 g/m*3 13.5 C 4.00833 km/h
2506 20-05-2015 21:00:00 10.69167 C 7.28 g/m*3 10.69 C 0.66667 km/h
2507 20-05-2015 22:00:00 8.90833 C 7.03 g/m*3 8.91 C 0.66667 km/h
2508 20-05-2015 23:00:00 8.175 C 7.03 g/m*3 8.18 C 0.8 km/h
2509 21-05-2015 00:00:00 7.08333 C 6.8 g/m*3 7.08 C 0.13333 km/h
2510 21-05-2015 01:00:00 6.7 C 6.81 g/m*3 6.7 C 0.93333 km/h
2511 21-05-2015 02:00:00 5.925 C 6.6 g/m*3 5.93 C 1.46667 km/h
2512 21-05-2015 03:00:00 5.58333 C 6.54 g/m*3 5.58 C 1.46667 km/h
2513 21-05-2015 04:00:00 5.15833 C 6.39 g/m*3 5.16 C 1.6 km/h
2514 21-05-2015 05:00:00 4.45 C 6.14 g/m*3 4.45 C 1.06667 km/h
2515 21-05-2015 06:00:00 4.70833 C 6.3 g/m*3 3.47 C 5.775 km/h
2516 21-05-2015 07:00:00 5.575 C 6.66 g/m*3 3.9 C 7.65833 km/h
2517 21-05-2015 08:00:00 7.25 C 7.11 g/m*3 5.86 C 7.65833 km/h
2518 21-05-2015 09:00:00 9.65833 C 7.59 g/m*3 9.22 C 5.48333 km/h
2519 21-05-2015 10:00:00 12.49167 C 7.97 g/m*3 12.49 C 5.09167 km/h
2520 21-05-2015 11:00:00 13.35833 C 7.98 g/m*3 13.36 C 6.56667 km/h
2521 21-05-2015 12:00:00 15.04167 C 7.15 g/m*3 15.04 C 8.46667 km/h
2522 21-05-2015 13:00:00 16.30833 C 6.78 g/m*3 16.31 C 11.025 km/h
2523 21-05-2015 14:00:00 17.23333 C 6.46 g/m*3 17.23 C 10.60833 km/h
2524 21-05-2015 15:00:00 17.1 C 6.4 g/m*3 17.1 C 7.65833 km/h
2525 21-05-2015 16:00:00 18.375 C 6.35 g/m*3 18.38 C 8.86667 km/h
Sensor: Nr:Datum:Temp:Abs-Feuchte:Windchill:Wind:
Aussen-T/F 2526 21-05-2015 17:00:00 18.68333 C 6.24 g/m*3 18.68 C 8.075 km/h
2527 21-05-2015 18:00:00 18.58333 C 6.21 g/m*3 18.58 C 6.84167 km/h
2528 21-05-2015 19:00:00 18.23333 C 6.44 g/m*3 18.23 C 9.69167 km/h
2529 21-05-2015 20:00:00 15.93333 C 7.15 g/m*3 15.93 C 4.15 km/h
2530 21-05-2015 21:00:00 12.53333 C 7.55 g/m*3 12.53 C 1.86667 km/h
2531 21-05-2015 22:00:00 11.625 C 7.56 g/m*3 11.63 C 0.93333 km/h
2532 21-05-2015 23:00:00 10.99167 C 7.64 g/m*3 10.99 C 0 km/h
2533 22-05-2015 00:00:00 10.925 C 7.7 g/m*3 10.93 C 0 km/h
2534 22-05-2015 01:00:00 11.1 C 7.77 g/m*3 11.1 C 1.06667 km/h
2535 22-05-2015 02:00:00 10.73333 C 7.86 g/m*3 10.73 C 0 km/h
2536 22-05-2015 03:00:00 9.69167 C 7.75 g/m*3 9.69 C 0.13333 km/h
2537 22-05-2015 04:00:00 9.55833 C 7.81 g/m*3 9.56 C 0.26667 km/h
2538 22-05-2015 05:00:00 9.025 C 7.72 g/m*3 9.03 C 0.13333 km/h
2539 22-05-2015 06:00:00 8.76667 C 7.71 g/m*3 8.77 C 0 km/h
2540 22-05-2015 07:00:00 9.86667 C 8.08 g/m*3 9.87 C 1.33333 km/h
2541 22-05-2015 08:00:00 12.9 C 8.67 g/m*3 12.9 C 0.26667 km/h
2542 22-05-2015 09:00:00 13.59167 C 8.69 g/m*3 13.59 C 1.46667 km/h
2543 22-05-2015 10:00:00 15.81667 C 8.67 g/m*3 15.82 C 2.66667 km/h
2544 22-05-2015 11:00:00 18.10833 C 8.61 g/m*3 18.11 C 4.4 km/h
2545 22-05-2015 12:00:00 19.09167 C 8.14 g/m*3 19.09 C 6.29167 km/h
2546 22-05-2015 13:00:00 20.4 C 7.71 g/m*3 20.4 C 7.10833 km/h
2547 22-05-2015 14:00:00 21.525 C 7.24 g/m*3 21.53 C 7.38333 km/h
2548 22-05-2015 15:00:00 22.34167 C 6.89 g/m*3 22.34 C 5.9 km/h
2549 22-05-2015 16:00:00 22.98333 C 6.11 g/m*3 22.98 C 6.575 km/h
2550 22-05-2015 17:00:00 23.21667 C 5.91 g/m*3 23.22 C 7.38333 km/h
Sensor: Nr:Datum:Temp:Abs-Feuchte:Windchill:Wind:
Aussen-T/F 2551 22-05-2015 18:00:00 23.025 C 6.62 g/m*3 23.03 C 6.7 km/h
2552 22-05-2015 19:00:00 20.41667 C 7.57 g/m*3 20.42 C 2.675 km/h
2553 22-05-2015 20:00:00 19.50833 C 7.5 g/m*3 19.51 C 4.41667 km/h
2554 22-05-2015 21:00:00 16.43333 C 7.6 g/m*3 16.43 C 1.06667 km/h
2555 22-05-2015 22:00:00 14.45 C 7.83 g/m*3 14.45 C 0.93333 km/h
2556 22-05-2015 23:00:00 14.45833 C 8.29 g/m*3 14.46 C 0 km/h
2557 23-05-2015 00:00:00 13.95 C 8.47 g/m*3 13.95 C 0 km/h
2558 23-05-2015 01:00:00 13.20833 C 8.44 g/m*3 13.21 C 0 km/h
2559 23-05-2015 02:00:00 12.68333 C 8.41 g/m*3 12.68 C 0.26667 km/h
2560 23-05-2015 03:00:00 12.275 C 8.46 g/m*3 12.28 C 0 km/h
2561 23-05-2015 04:00:00 12.41667 C 8.52 g/m*3 12.42 C 0.26667 km/h
2562 23-05-2015 05:00:00 11.83333 C 8.45 g/m*3 11.83 C 0 km/h
2563 23-05-2015 06:00:00 11.875 C 8.73 g/m*3 11.88 C 0.26667 km/h
2564 23-05-2015 07:00:00 12.45 C 8.91 g/m*3 12.45 C 0.66667 km/h
2565 23-05-2015 08:00:00 13.35833 C 9.11 g/m*3 13.36 C 0.53333 km/h
2566 23-05-2015 09:00:00 14.5 C 9.29 g/m*3 14.5 C 3.34167 km/h
2567 23-05-2015 10:00:00 15.84167 C 9.6 g/m*3 15.84 C 4.13333 km/h
2568 23-05-2015 11:00:00 16.85 C 9.87 g/m*3 16.85 C 4.275 km/h
2569 23-05-2015 12:00:00 18.14167 C 10.15 g/m*3 18.14 C 5.75833 km/h
2570 23-05-2015 13:00:00 19.8 C 9.91 g/m*3 19.8 C 8.59167 km/h
2571 23-05-2015 14:00:00 20.26667 C 9.68 g/m*3 20.27 C 7.65833 km/h
2572 23-05-2015 15:00:00 19.51667 C 9.79 g/m*3 19.52 C 5.34167 km/h
2573 23-05-2015 16:00:00 19.76667 C 9.49 g/m*3 19.77 C 5.89167 km/h
2574 23-05-2015 17:00:00 19.56667 C 9.73 g/m*3 19.57 C 4.275 km/h
2575 23-05-2015 18:00:00 17.95833 C 10.79 g/m*3 17.96 C 0.13333 km/h
Sensor: Nr:Datum:Temp:Abs-Feuchte:Windchill:Wind:
Aussen-T/F 2576 23-05-2015 19:00:00 17.475 C 11.04 g/m*3 17.48 C 0 km/h
2577 23-05-2015 20:00:00 17.5 C 10.03 g/m*3 17.5 C 4.28333 km/h
2578 23-05-2015 21:00:00 17.30833 C 10.73 g/m*3 17.31 C 6.55833 km/h
2579 23-05-2015 22:00:00 16.325 C 10.83 g/m*3 16.33 C 6.44167 km/h
2580 23-05-2015 23:00:00 15.6 C 10.64 g/m*3 15.6 C 5.63333 km/h
2581 24-05-2015 00:00:00 14.95 C 10.56 g/m*3 14.95 C 3.2 km/h
2582 24-05-2015 01:00:00 14.51667 C 10.46 g/m*3 14.52 C 2 km/h
2583 24-05-2015 02:00:00 14.24167 C 10.28 g/m*3 14.24 C 3.33333 km/h
2584 24-05-2015 03:00:00 13.95833 C 10.21 g/m*3 13.96 C 1.86667 km/h
2585 24-05-2015 04:00:00 13.24167 C 10.09 g/m*3 13.24 C 0.26667 km/h
2586 24-05-2015 05:00:00 13.2 C 10.13 g/m*3 13.2 C 0.4 km/h
2587 24-05-2015 06:00:00 13.23333 C 10.17 g/m*3 13.23 C 0.13333 km/h
2588 24-05-2015 07:00:00 13.61667 C 10.21 g/m*3 13.62 C 0.93333 km/h
2589 24-05-2015 08:00:00 14.06667 C 10.38 g/m*3 14.07 C 3.6 km/h
2590 24-05-2015 09:00:00 14.675 C 10.43 g/m*3 14.68 C 3.46667 km/h
2591 24-05-2015 10:00:00 15.15833 C 10.5 g/m*3 15.16 C 2.53333 km/h
2592 24-05-2015 11:00:00 16.05833 C 10.78 g/m*3 16.06 C 2.8 km/h
2593 24-05-2015 12:00:00 18.25833 C 11.33 g/m*3 18.26 C 4.66667 km/h
2594 24-05-2015 13:00:00 20.51667 C 11.4 g/m*3 20.52 C 6.98333 km/h
2595 24-05-2015 14:00:00 22.1 C 11.32 g/m*3 22.1 C 6.56667 km/h
2596 24-05-2015 15:00:00 23.45 C 10.35 g/m*3 23.45 C 8.325 km/h
2597 24-05-2015 16:00:00 22.875 C 10.65 g/m*3 22.88 C 7.25 km/h
2598 24-05-2015 17:00:00 22.54167 C 10.9 g/m*3 22.54 C 3.075 km/h
2599 24-05-2015 18:00:00 22.99167 C 10.7 g/m*3 22.99 C 7.66667 km/h
2600 24-05-2015 19:00:00 20.4 C 10.64 g/m*3 20.4 C 4.81667 km/h
Sensor: Nr:Datum:Temp:Abs-Feuchte:Windchill:Wind:
Aussen-T/F 2601 24-05-2015 20:00:00 17.85833 C 11.58 g/m*3 17.86 C 0.8 km/h
2602 24-05-2015 21:00:00 16.21667 C 11.81 g/m*3 16.22 C 3.08333 km/h
2603 24-05-2015 22:00:00 15.21667 C 11.93 g/m*3 15.22 C 1.2 km/h
2604 24-05-2015 23:00:00 14.5125 C 11.68 g/m*3 14.51 C 0.4 km/h
2605 25-05-2015 00:00:00 13.89167 C 11.27 g/m*3 13.89 C 0.13333 km/h
2606 25-05-2015 01:00:00 13.125 C 10.86 g/m*3 13.13 C 0.4 km/h
2607 25-05-2015 02:00:00 12.475 C 10.44 g/m*3 12.48 C 0.53333 km/h
2608 25-05-2015 03:00:00 11.61667 C 9.89 g/m*3 11.62 C 0.8 km/h
2609 25-05-2015 04:00:00 10.49167 C 9.21 g/m*3 10.49 C 0.66667 km/h
2610 25-05-2015 10:00:00 15.1 C 9.89 g/m*3 15.1 C 0.53333 km/h
2611 25-05-2015 11:00:00 15.31667 C 9.98 g/m*3 15.32 C 3.35 km/h
2612 25-05-2015 12:00:00 14.65714 C 9.83 g/m*3 14.66 C 4.6 km/h
2613 25-05-2015 14:00:00 15.375 C 10.94 g/m*3 15.38 C 2 km/h
2614 25-05-2015 15:00:00 15.56 C 11.38 g/m*3 15.56 C 0.64 km/h
2615 25-05-2015 16:00:00 16.45 C 11.34 g/m*3 16.45 C 2.26667 km/h
2616 25-05-2015 17:00:00 15.75 C 11.05 g/m*3 15.75 C 3.61667 km/h
2617 25-05-2015 18:00:00 14.94167 C 11.56 g/m*3 14.94 C 3.75 km/h
2618 25-05-2015 19:00:00 16 C 11.58 g/m*3 16 C 2 km/h
2619 25-05-2015 22:00:00 11.725 C 9.7 g/m*3 11.73 C 4.425 km/h
2620 25-05-2015 23:00:00 12.36667 C 9.44 g/m*3 12.37 C 4.95 km/h
2621 26-05-2015 00:00:00 11.625 C 9.07 g/m*3 11.63 C 4.68333 km/h
2622 26-05-2015 01:00:00 11.575 C 8.85 g/m*3 11.58 C 5.5 km/h
2623 26-05-2015 02:00:00 11.11667 C 8.54 g/m*3 11.12 C 4.29167 km/h
2624 26-05-2015 03:00:00 10.25833 C 8.45 g/m*3 10.26 C 1.2 km/h
2625 26-05-2015 04:00:00 10.36667 C 8.37 g/m*3 10.37 C 2.26667 km/h
Sensor: Nr:Datum:Temp:Abs-Feuchte:Windchill:Wind:
Aussen-T/F 2626 26-05-2015 05:00:00 10.10833 C 8.14 g/m*3 10.11 C 1.73333 km/h
2627 26-05-2015 06:00:00 9.875 C 8.01 g/m*3 9.88 C 3.2 km/h
2628 26-05-2015 07:00:00 10.16667 C 8.03 g/m*3 10.17 C 4.95 km/h
2629 26-05-2015 08:00:00 10.75833 C 8.17 g/m*3 10.37 C 5.89167 km/h
2630 26-05-2015 09:00:00 12.16667 C 8.09 g/m*3 12.17 C 10.75 km/h
2631 26-05-2015 10:00:00 13.25 C 7.7 g/m*3 13.25 C 9.81667 km/h
2632 26-05-2015 11:00:00 13.23333 C 7.2 g/m*3 13.23 C 11.55833 km/h
2633 26-05-2015 12:00:00 12.725 C 6.97 g/m*3 12.73 C 10.35833 km/h
2634 26-05-2015 13:00:00 13.15 C 6.93 g/m*3 13.15 C 8.46667 km/h
2635 26-05-2015 14:00:00 14.125 C 7.04 g/m*3 14.13 C 7.10833 km/h
2636 26-05-2015 15:00:00 13.80833 C 6.9 g/m*3 13.81 C 8.06667 km/h
2637 26-05-2015 16:00:00 13.7 C 6.93 g/m*3 13.7 C 6.29167 km/h
2638 26-05-2015 17:00:00 14.01667 C 7.32 g/m*3 14.02 C 4.40833 km/h
2639 26-05-2015 18:00:00 13.31667 C 8.26 g/m*3 13.32 C 0.53333 km/h
2640 26-05-2015 19:00:00 12.5 C 8.74 g/m*3 12.5 C 0 km/h
2641 26-05-2015 20:00:00 11.775 C 8.66 g/m*3 11.78 C 0.13333 km/h
2642 26-05-2015 21:00:00 11.11667 C 8.4 g/m*3 11.12 C 0 km/h
2643 26-05-2015 22:00:00 10.81667 C 8.03 g/m*3 10.82 C 0.8 km/h
2644 26-05-2015 23:00:00 9.475 C 7.64 g/m*3 9.48 C 0.13333 km/h
2645 27-05-2015 00:00:00 9.1 C 7.31 g/m*3 9.1 C 0.8 km/h
2646 27-05-2015 01:00:00 8.225 C 7.09 g/m*3 8.23 C 0 km/h
2647 27-05-2015 02:00:00 7.24167 C 6.91 g/m*3 7.24 C 0.26667 km/h
2648 27-05-2015 03:00:00 6.34167 C 6.77 g/m*3 6.34 C 0.66667 km/h
2649 27-05-2015 04:00:00 6.625 C 6.94 g/m*3 6.63 C 2.66667 km/h
2650 27-05-2015 05:00:00 7.06667 C 7.08 g/m*3 7.07 C 2 km/h
Sensor: Nr:Datum:Temp:Abs-Feuchte:Windchill:Wind:
Aussen-T/F 2651 27-05-2015 06:00:00 7.375 C 7.23 g/m*3 7.38 C 2.13333 km/h
2652 27-05-2015 07:00:00 8.09167 C 7.51 g/m*3 8.09 C 3.89167 km/h
2653 27-05-2015 08:00:00 9.45 C 7.77 g/m*3 9.45 C 4.00833 km/h
2654 27-05-2015 09:00:00 10.70833 C 7.71 g/m*3 10.71 C 3.2 km/h
2655 27-05-2015 10:00:00 11.775 C 7.47 g/m*3 11.78 C 4.54167 km/h
2656 27-05-2015 11:00:00 12.85833 C 6.59 g/m*3 12.86 C 3.34167 km/h
2657 27-05-2015 12:00:00 13.08333 C 6.64 g/m*3 13.08 C 4.81667 km/h
2658 27-05-2015 13:00:00 14.25833 C 6.88 g/m*3 14.26 C 4.275 km/h
2659 27-05-2015 14:00:00 15.45 C 6.78 g/m*3 15.45 C 5.48333 km/h
2660 27-05-2015 15:00:00 15.625 C 6.65 g/m*3 15.63 C 3.46667 km/h
2661 27-05-2015 16:00:00 16.99167 C 6.76 g/m*3 16.99 C 6.45 km/h
2662 27-05-2015 17:00:00 17.425 C 6.68 g/m*3 17.43 C 4.40833 km/h
2663 27-05-2015 18:00:00 17.45 C 6.74 g/m*3 17.45 C 4.66667 km/h
2664 27-05-2015 19:00:00 16.95 C 6.66 g/m*3 16.95 C 4.80833 km/h
2665 27-05-2015 20:00:00 15.34167 C 7.43 g/m*3 15.34 C 0.93333 km/h
2666 27-05-2015 21:00:00 11.66667 C 7.68 g/m*3 11.67 C 0.13333 km/h
2667 27-05-2015 22:00:00 10.525 C 7.4 g/m*3 10.53 C 0.53333 km/h
2668 27-05-2015 23:00:00 9.725 C 7.23 g/m*3 9.73 C 0.26667 km/h
2669 28-05-2015 00:00:00 9.1 C 7.15 g/m*3 9.1 C 0 km/h
2670 28-05-2015 01:00:00 8.85 C 7.04 g/m*3 8.85 C 0 km/h
2671 28-05-2015 02:00:00 7.98333 C 6.89 g/m*3 7.98 C 0 km/h
2672 28-05-2015 03:00:00 7.60833 C 6.86 g/m*3 7.61 C 0 km/h
2673 28-05-2015 04:00:00 7.34167 C 6.93 g/m*3 7.34 C 0 km/h
2674 28-05-2015 05:00:00 7.38333 C 7.06 g/m*3 7.38 C 0.4 km/h
2675 28-05-2015 06:00:00 8.30833 C 7.38 g/m*3 8.31 C 0.66667 km/h
Sensor: Nr:Datum:Temp:Abs-Feuchte:Windchill:Wind:
Aussen-T/F 2676 28-05-2015 07:00:00 9.35833 C 7.79 g/m*3 9.36 C 0.93333 km/h
2677 28-05-2015 08:00:00 11.275 C 8.1 g/m*3 11.28 C 0.26667 km/h
2678 28-05-2015 09:00:00 12.35 C 8.38 g/m*3 12.35 C 0.8 km/h
2679 28-05-2015 10:00:00 14.56667 C 8.85 g/m*3 14.57 C 4.95 km/h
2680 28-05-2015 11:00:00 17.725 C 9.15 g/m*3 17.73 C 12.23333 km/h
2681 28-05-2015 12:00:00 19.26667 C 9.52 g/m*3 19.27 C 11.7 km/h
2682 28-05-2015 13:00:00 21.06667 C 9.35 g/m*3 21.07 C 14.9 km/h
2683 28-05-2015 14:00:00 19.15 C 9.07 g/m*3 19.15 C 9.26667 km/h
2684 28-05-2015 15:00:00 19.15 C 9.48 g/m*3 19.15 C 6.7 km/h
2685 28-05-2015 16:00:00 19.63333 C 9.39 g/m*3 19.63 C 12.34167 km/h
2686 28-05-2015 17:00:00 20.06667 C 9.47 g/m*3 20.07 C 10.35833 km/h
2687 28-05-2015 18:00:00 20.125 C 9.2 g/m*3 20.13 C 9.80833 km/h
2688 28-05-2015 19:00:00 19 C 8.81 g/m*3 19 C 13.83333 km/h
2689 28-05-2015 20:00:00 17.575 C 8.55 g/m*3 17.58 C 7.39167 km/h
2690 28-05-2015 21:00:00 15.98333 C 8.57 g/m*3 15.98 C 1.6 km/h
2691 28-05-2015 22:00:00 14.825 C 8.61 g/m*3 14.83 C 1.73333 km/h
2692 28-05-2015 23:00:00 13.575 C 8.74 g/m*3 13.58 C 0.26667 km/h
2693 29-05-2015 00:00:00 13.24167 C 9.01 g/m*3 13.24 C 0.4 km/h
2694 29-05-2015 01:00:00 12.35833 C 8.81 g/m*3 12.36 C 0.8 km/h
2695 29-05-2015 02:00:00 12.55 C 8.16 g/m*3 12.55 C 2.13333 km/h
2696 29-05-2015 03:00:00 11.21667 C 7.86 g/m*3 11.22 C 0.53333 km/h
2697 29-05-2015 04:00:00 9.525 C 7.48 g/m*3 9.53 C 0.66667 km/h
2698 29-05-2015 05:00:00 8.85 C 7.48 g/m*3 8.85 C 0.66667 km/h
2699 29-05-2015 06:00:00 8.74167 C 7.65 g/m*3 8.74 C 2.41667 km/h
2700 29-05-2015 07:00:00 9.425 C 7.96 g/m*3 9.43 C 4.15 km/h
Sensor: Nr:Datum:Temp:Abs-Feuchte:Windchill:Wind:
Aussen-T/F 2701 29-05-2015 08:00:00 11.43333 C 8.44 g/m*3 11.43 C 3.06667 km/h
2702 29-05-2015 09:00:00 13.74167 C 8.29 g/m*3 13.74 C 8.34167 km/h
2703 29-05-2015 10:00:00 13.29167 C 8.43 g/m*3 13.29 C 5.91667 km/h
2704 29-05-2015 11:00:00 14.34167 C 8.6 g/m*3 14.34 C 4.01667 km/h
2705 29-05-2015 12:00:00 15.64167 C 9.29 g/m*3 15.64 C 6.025 km/h
2706 29-05-2015 13:00:00 15.71667 C 9.43 g/m*3 15.72 C 8.61667 km/h
2707 29-05-2015 14:00:00 14.55455 C 9.62 g/m*3 14.55 C 6 km/h
2708 29-05-2015 15:00:00 13.66667 C 10.52 g/m*3 13.67 C 1.6 km/h
2709 29-05-2015 16:00:00 14.31667 C 10.59 g/m*3 14.32 C 7.79167 km/h
2710 29-05-2015 17:00:00 15.46667 C 10.69 g/m*3 15.47 C 10.34167 km/h
2711 29-05-2015 18:00:00 16.35 C 10.19 g/m*3 16.35 C 13.425 km/h
2712 29-05-2015 19:00:00 16.05 C 9.24 g/m*3 16.05 C 11.15 km/h
2713 29-05-2015 20:00:00 15.24167 C 8.62 g/m*3 15.24 C 9.26667 km/h
2714 29-05-2015 21:00:00 14.8 C 8.41 g/m*3 14.8 C 7.91667 km/h
2715 29-05-2015 22:00:00 14.4 C 8.16 g/m*3 14.4 C 4.55833 km/h
2716 29-05-2015 23:00:00 13.95 C 8.47 g/m*3 13.95 C 2.13333 km/h
2717 30-05-2015 00:00:00 13.225 C 8.57 g/m*3 13.23 C 1.2 km/h
2718 30-05-2015 01:00:00 12.20833 C 8.72 g/m*3 12.21 C 8.30833 km/h
2719 30-05-2015 02:00:00 9.88333 C 8.5 g/m*3 9.88 C 2.26667 km/h
2720 30-05-2015 03:00:00 9.40833 C 8.32 g/m*3 9.41 C 2.26667 km/h
2721 30-05-2015 04:00:00 9.125 C 8.19 g/m*3 9.13 C 2.4 km/h
2722 30-05-2015 05:00:00 9.025 C 8.01 g/m*3 9.03 C 2.13333 km/h
2723 30-05-2015 06:00:00 8.46667 C 7.92 g/m*3 8.47 C 0.4 km/h
2724 30-05-2015 07:00:00 8.94167 C 8.13 g/m*3 8.94 C 4.41667 km/h
2725 30-05-2015 08:00:00 11.15833 C 8.5 g/m*3 11.16 C 5.75833 km/h
Sensor: Nr:Datum:Temp:Abs-Feuchte:Windchill:Wind:
Aussen-T/F 2726 30-05-2015 09:00:00 12.14167 C 8.15 g/m*3 12.14 C 10.60833 km/h
2727 30-05-2015 10:00:00 13.21667 C 7.67 g/m*3 13.22 C 12.625 km/h
2728 30-05-2015 11:00:00 14.4 C 7.47 g/m*3 14.4 C 14.63333 km/h
2729 30-05-2015 12:00:00 15.40833 C 6.88 g/m*3 15.41 C 15.56667 km/h
2730 30-05-2015 13:00:00 16.225 C 6.74 g/m*3 16.23 C 15.56667 km/h
2731 30-05-2015 14:00:00 16.8 C 6.45 g/m*3 16.8 C 15.3 km/h
2732 30-05-2015 15:00:00 17.31667 C 6.93 g/m*3 17.32 C 15.43333 km/h
2733 30-05-2015 16:00:00 16.34167 C 6.43 g/m*3 16.34 C 13.15 km/h
2734 30-05-2015 17:00:00 16.525 C 7.09 g/m*3 16.52 C 10.625 km/h
2735 30-05-2015 18:00:00 15.29167 C 7.62 g/m*3 15.29 C 6.425 km/h
2736 30-05-2015 19:00:00 14.80833 C 7.64 g/m*3 14.81 C 6.16667 km/h
2737 30-05-2015 20:00:00 14.11667 C 7.82 g/m*3 14.12 C 2.93333 km/h
2738 30-05-2015 21:00:00 11.16667 C 7.74 g/m*3 11.17 C 0.53333 km/h
2739 30-05-2015 22:00:00 10 C 7.62 g/m*3 10 C 0 km/h
2740 30-05-2015 23:00:00 8.71667 C 7.36 g/m*3 8.72 C 0 km/h
2741 31-05-2015 00:00:00 7.86667 C 7.22 g/m*3 7.87 C 0 km/h
2742 31-05-2015 01:00:00 7.325 C 7.1 g/m*3 7.33 C 0 km/h
2743 31-05-2015 02:00:00 6.98333 C 7.09 g/m*3 6.98 C 0.26667 km/h
2744 31-05-2015 03:00:00 6.69167 C 7.01 g/m*3 6.69 C 0 km/h
2745 31-05-2015 04:00:00 6.51667 C 6.98 g/m*3 6.52 C 0 km/h
2746 31-05-2015 05:00:00 6.33333 C 6.9 g/m*3 6.33 C 0.4 km/h
2747 31-05-2015 06:00:00 6.31667 C 6.94 g/m*3 6.32 C 0.13333 km/h
2748 31-05-2015 07:00:00 7.85833 C 7.5 g/m*3 7.86 C 1.6 km/h
2749 31-05-2015 08:00:00 9.925 C 7.92 g/m*3 9.93 C 4.14167 km/h
2750 31-05-2015 09:00:00 12.24167 C 8.7 g/m*3 12.24 C 5.48333 km/h
Sensor: Nr:Datum:Temp:Abs-Feuchte:Windchill:Wind:
Aussen-T/F 2751 31-05-2015 10:00:00 16.06667 C 9.29 g/m*3 16.07 C 7.39167 km/h
2752 31-05-2015 11:00:00 18.3 C 9.26 g/m*3 18.3 C 7.38333 km/h
2753 31-05-2015 12:00:00 20.13333 C 9.3 g/m*3 20.13 C 13.83333 km/h
2754 31-05-2015 13:00:00 20.65 C 9.62 g/m*3 20.65 C 12.36667 km/h
2755 31-05-2015 14:00:00 21.25833 C 9.89 g/m*3 21.26 C 12.36667 km/h
2756 31-05-2015 15:00:00 21.9 C 10.24 g/m*3 21.9 C 10.875 km/h
2757 31-05-2015 16:00:00 21.725 C 9.98 g/m*3 21.73 C 14.23333 km/h
2758 31-05-2015 17:00:00 20.65833 C 9.76 g/m*3 20.66 C 11.15833 km/h
2759 31-05-2015 18:00:00 20.25 C 10.02 g/m*3 20.25 C 11.68333 km/h
2760 31-05-2015 19:00:00 19.29167 C 10.33 g/m*3 19.29 C 18.65 km/h
2761 31-05-2015 20:00:00 18.125 C 10.91 g/m*3 18.13 C 19.70833 km/h
2762 31-05-2015 21:00:00 17.53333 C 11.1 g/m*3 17.53 C 15.16667 km/h
2763 31-05-2015 22:00:00 17.24167 C 11.23 g/m*3 17.24 C 11.15 km/h
2764 31-05-2015 23:00:00 17.025 C 11.22 g/m*3 17.02 C 14.76667 km/h
2765 01-06-2015 00:00:00 16.575 C 11.44 g/m*3 16.58 C 13.96667 km/h
2766 01-06-2015 01:00:00 16.05 C 11.72 g/m*3 16.05 C 16.1 km/h
2767 01-06-2015 02:00:00 16.10833 C 11.85 g/m*3 16.11 C 13.56667 km/h
2768 01-06-2015 03:00:00 15.05 C 11.55 g/m*3 15.05 C 7.66667 km/h
2769 01-06-2015 04:00:00 13.04167 C 10.56 g/m*3 13.04 C 0.53333 km/h
2770 01-06-2015 05:00:00 12.35 C 10.26 g/m*3 12.35 C 0 km/h
2771 01-06-2015 06:00:00 12.225 C 10.27 g/m*3 12.23 C 0 km/h
2772 01-06-2015 07:00:00 12.05833 C 10.12 g/m*3 12.06 C 2.675 km/h
2773 01-06-2015 08:00:00 11.38333 C 9.62 g/m*3 11.38 C 2.13333 km/h
2774 01-06-2015 09:00:00 12.125 C 9.71 g/m*3 12.13 C 2.4 km/h
2775 01-06-2015 10:00:00 12.725 C 9.83 g/m*3 12.73 C 0.93333 km/h
Sensor: Nr:Datum:Temp:Abs-Feuchte:Windchill:Wind:
Aussen-T/F 2776 01-06-2015 11:00:00 13.48333 C 9.91 g/m*3 13.48 C 1.33333 km/h
2777 01-06-2015 12:00:00 14.55833 C 9.8 g/m*3 14.56 C 0.4 km/h
2778 01-06-2015 13:00:00 15.325 C 9.78 g/m*3 15.33 C 3.73333 km/h
2779 01-06-2015 14:00:00 16.525 C 9.72 g/m*3 16.52 C 6.025 km/h
2780 01-06-2015 15:00:00 17.54167 C 9.83 g/m*3 17.54 C 6.45833 km/h
2781 01-06-2015 16:00:00 18.36667 C 9.73 g/m*3 18.37 C 5.20833 km/h
2782 01-06-2015 17:00:00 18.375 C 9.62 g/m*3 18.38 C 2.93333 km/h
2783 01-06-2015 18:00:00 18.425 C 10.13 g/m*3 18.43 C 3.74167 km/h
2784 01-06-2015 19:00:00 18.775 C 9.11 g/m*3 18.77 C 10.21667 km/h
2785 01-06-2015 20:00:00 17.09167 C 9.03 g/m*3 17.09 C 3.74167 km/h
2786 01-06-2015 21:00:00 14.29167 C 8.9 g/m*3 14.29 C 2.26667 km/h
2787 01-06-2015 22:00:00 12.58333 C 8.67 g/m*3 12.58 C 2 km/h
2788 01-06-2015 23:00:00 11.76667 C 8.62 g/m*3 11.77 C 0.8 km/h
2789 02-06-2015 00:00:00 10.78333 C 8.52 g/m*3 10.78 C 0.53333 km/h
2790 02-06-2015 01:00:00 9.54167 C 8.18 g/m*3 9.54 C 0 km/h
2791 02-06-2015 02:00:00 9.1 C 8.15 g/m*3 9.1 C 0 km/h
2792 02-06-2015 03:00:00 9.275 C 8.33 g/m*3 9.28 C 0 km/h
2793 02-06-2015 04:00:00 9.78333 C 8.6 g/m*3 9.78 C 0 km/h
2794 02-06-2015 05:00:00 10.275 C 8.85 g/m*3 10.28 C 0 km/h
2795 02-06-2015 06:00:00 10.91667 C 9.19 g/m*3 10.92 C 0 km/h
2796 02-06-2015 07:00:00 11.43333 C 9.51 g/m*3 11.43 C 0 km/h
2797 02-06-2015 08:00:00 12.35 C 10.26 g/m*3 12.35 C 0.26667 km/h
2798 02-06-2015 09:00:00 12.91667 C 10.62 g/m*3 12.92 C 0.8 km/h
2799 02-06-2015 10:00:00 13.38333 C 10.91 g/m*3 13.38 C 0.66667 km/h
2800 02-06-2015 11:00:00 14.05833 C 11.22 g/m*3 14.06 C 2.13333 km/h
Sensor: Nr:Datum:Temp:Abs-Feuchte:Windchill:Wind:
Aussen-T/F 2801 02-06-2015 12:00:00 15.54167 C 10.27 g/m*3 15.54 C 7.90833 km/h
2802 02-06-2015 13:00:00 18.675 C 9.55 g/m*3 18.68 C 13.68333 km/h
2803 02-06-2015 14:00:00 22.325 C 10.2 g/m*3 22.33 C 18.23333 km/h
2804 02-06-2015 15:00:00 24.125 C 10.63 g/m*3 24.13 C 18.23333 km/h
2805 02-06-2015 16:00:00 25.04167 C 10.52 g/m*3 25.04 C 20.91667 km/h
2806 02-06-2015 17:00:00 25.6 C 10.02 g/m*3 25.6 C 19.325 km/h
2807 02-06-2015 18:00:00 25.74167 C 9.72 g/m*3 25.74 C 19.175 km/h
2808 02-06-2015 19:00:00 25.08333 C 9.94 g/m*3 25.08 C 11.54167 km/h
2809 02-06-2015 20:00:00 23.61667 C 10.13 g/m*3 23.62 C 11.41667 km/h
2810 02-06-2015 21:00:00 22.09167 C 10.23 g/m*3 22.09 C 8.59167 km/h
2811 02-06-2015 22:00:00 19.21667 C 11.16 g/m*3 19.22 C 1.46667 km/h
2812 02-06-2015 23:00:00 16.95833 C 11.19 g/m*3 16.96 C 0.4 km/h
2813 03-06-2015 00:00:00 18.26667 C 11.16 g/m*3 18.27 C 2 km/h
2814 03-06-2015 01:00:00 17.025 C 11.16 g/m*3 17.02 C 1.33333 km/h
2815 03-06-2015 02:00:00 15.04167 C 10.73 g/m*3 15.04 C 0 km/h
2816 03-06-2015 03:00:00 14.15 C 10.58 g/m*3 14.15 C 0 km/h
2817 03-06-2015 04:00:00 13.425 C 10.33 g/m*3 13.43 C 0 km/h
2818 03-06-2015 05:00:00 13.025 C 10.32 g/m*3 13.03 C 0.26667 km/h
2819 03-06-2015 06:00:00 13.43333 C 10.62 g/m*3 13.43 C 0.53333 km/h
2820 03-06-2015 07:00:00 15.25833 C 11.32 g/m*3 15.26 C 3.89167 km/h
2821 03-06-2015 08:00:00 18.125 C 11.68 g/m*3 18.13 C 10.075 km/h
2822 03-06-2015 09:00:00 18.13333 C 11.66 g/m*3 18.13 C 9.40833 km/h
2823 03-06-2015 10:00:00 16.65833 C 11.32 g/m*3 16.66 C 4.8 km/h
2824 03-06-2015 11:00:00 16.675 C 11.21 g/m*3 16.68 C 5.06667 km/h
2825 03-06-2015 12:00:00 18.05833 C 11.64 g/m*3 18.06 C 4.53333 km/h
Sensor: Nr:Datum:Temp:Abs-Feuchte:Windchill:Wind:
Aussen-T/F 2826 03-06-2015 13:00:00 20.325 C 11.95 g/m*3 20.33 C 8.04167 km/h
2827 03-06-2015 14:00:00 22.55833 C 11.17 g/m*3 22.56 C 14.36667 km/h
2828 03-06-2015 15:00:00 21.63333 C 10.18 g/m*3 21.63 C 11.96667 km/h
2829 03-06-2015 16:00:00 22.425 C 10.26 g/m*3 22.43 C 9.83333 km/h
2830 03-06-2015 17:00:00 23.575 C 9.95 g/m*3 23.58 C 11.43333 km/h
2831 03-06-2015 18:00:00 22.04167 C 9.32 g/m*3 22.04 C 10.09167 km/h
2832 03-06-2015 19:00:00 20.15833 C 9.06 g/m*3 20.16 C 10.21667 km/h
2833 03-06-2015 20:00:00 19.01667 C 8.77 g/m*3 19.02 C 6.7 km/h
2834 03-06-2015 21:00:00 17.49167 C 9.23 g/m*3 17.49 C 1.86667 km/h
2835 03-06-2015 22:00:00 15.05 C 9.36 g/m*3 15.05 C 0.4 km/h
2836 03-06-2015 23:00:00 14.44167 C 9.32 g/m*3 14.44 C 0.13333 km/h
2837 04-06-2015 00:00:00 13.275 C 8.86 g/m*3 13.28 C 0 km/h
2838 04-06-2015 01:00:00 11.875 C 8.64 g/m*3 11.88 C 0 km/h
2839 04-06-2015 02:00:00 10.96667 C 8.5 g/m*3 10.97 C 0 km/h
2840 04-06-2015 03:00:00 10.76667 C 8.63 g/m*3 10.77 C 0 km/h
2841 04-06-2015 04:00:00 10.875 C 8.74 g/m*3 10.88 C 0 km/h
2842 04-06-2015 05:00:00 10.86667 C 8.78 g/m*3 10.87 C 0 km/h
2843 04-06-2015 06:00:00 10.95 C 8.91 g/m*3 10.95 C 0 km/h
2844 04-06-2015 07:00:00 11.725 C 9.31 g/m*3 11.73 C 0 km/h
2845 04-06-2015 08:00:00 13.50833 C 9.76 g/m*3 13.51 C 0.26667 km/h
2846 04-06-2015 09:00:00 15.01667 C 10.23 g/m*3 15.02 C 1.73333 km/h
2847 04-06-2015 10:00:00 19.30833 C 10.41 g/m*3 19.31 C 5.225 km/h
2848 04-06-2015 11:00:00 21.53333 C 9.75 g/m*3 21.53 C 6.43333 km/h
2849 04-06-2015 12:00:00 23.125 C 10.02 g/m*3 23.13 C 6.43333 km/h
2850 04-06-2015 13:00:00 24.10833 C 10.05 g/m*3 24.11 C 7.675 km/h
Sensor: Nr:Datum:Temp:Abs-Feuchte:Windchill:Wind:
Aussen-T/F 2851 04-06-2015 14:00:00 25.7 C 10.45 g/m*3 25.7 C 8.2 km/h
2852 04-06-2015 15:00:00 26.08333 C 10.39 g/m*3 26.08 C 6.575 km/h
2853 04-06-2015 16:00:00 27.25833 C 10.4 g/m*3 27.26 C 8.05833 km/h
2854 04-06-2015 17:00:00 27.95 C 10.73 g/m*3 27.95 C 7.66667 km/h
2855 04-06-2015 18:00:00 27.675 C 10.55 g/m*3 27.68 C 8.06667 km/h
2856 04-06-2015 19:00:00 26.24167 C 10.24 g/m*3 26.24 C 7.11667 km/h
2857 04-06-2015 20:00:00 23.48333 C 11.59 g/m*3 23.48 C 1.875 km/h
2858 04-06-2015 21:00:00 19.36667 C 10.85 g/m*3 19.37 C 1.73333 km/h
2859 04-06-2015 22:00:00 17.45833 C 10.52 g/m*3 17.46 C 0.66667 km/h
2860 04-06-2015 23:00:00 16.05833 C 10.22 g/m*3 16.06 C 0 km/h
2861 05-06-2015 00:00:00 14.78333 C 10.01 g/m*3 14.78 C 0 km/h
2862 05-06-2015 01:00:00 13.76667 C 9.87 g/m*3 13.77 C 0.53333 km/h
2863 05-06-2015 02:00:00 12.88333 C 9.68 g/m*3 12.88 C 0 km/h
2864 05-06-2015 03:00:00 12.14167 C 9.56 g/m*3 12.14 C 0 km/h
2865 05-06-2015 04:00:00 11.60833 C 9.42 g/m*3 11.61 C 0 km/h
2866 05-06-2015 05:00:00 11.275 C 9.34 g/m*3 11.28 C 0 km/h
2867 05-06-2015 06:00:00 11.30833 C 9.45 g/m*3 11.31 C 0 km/h
2868 05-06-2015 07:00:00 12.025 C 9.92 g/m*3 12.03 C 0 km/h
2869 05-06-2015 08:00:00 15.45 C 11.22 g/m*3 15.45 C 0 km/h
2870 05-06-2015 09:00:00 17.125 C 11.91 g/m*3 17.13 C 0 km/h
2871 05-06-2015 10:00:00 19.9 C 13.07 g/m*3 19.9 C 0.26667 km/h
2872 05-06-2015 11:00:00 23.06667 C 14.27 g/m*3 23.07 C 2.13333 km/h
2873 05-06-2015 12:00:00 27.94167 C 14.98 g/m*3 27.94 C 5.49167 km/h
2874 05-06-2015 13:00:00 31.18333 C 14.89 g/m*3 31.18 C 7.65833 km/h
2875 05-06-2015 14:00:00 32.775 C 14.28 g/m*3 32.78 C 6.29167 km/h
Sensor: Nr:Datum:Temp:Abs-Feuchte:Windchill:Wind:
Aussen-T/F 2876 05-06-2015 15:00:00 33.675 C 13.96 g/m*3 33.67 C 6.825 km/h
2877 05-06-2015 16:00:00 33.64167 C 14.7 g/m*3 33.64 C 4.81667 km/h
2878 05-06-2015 17:00:00 34.63333 C 13.9 g/m*3 34.63 C 7.10833 km/h
2879 05-06-2015 18:00:00 34.3 C 14.71 g/m*3 34.3 C 6.45 km/h
2880 05-06-2015 19:00:00 30.91667 C 16.09 g/m*3 30.92 C 3.08333 km/h
2881 05-06-2015 20:00:00 26.96667 C 15.58 g/m*3 26.97 C 1.46667 km/h
2882 05-06-2015 21:00:00 24.08333 C 14.45 g/m*3 24.08 C 2.26667 km/h
2883 05-06-2015 22:00:00 22.96667 C 14.1 g/m*3 22.97 C 0.93333 km/h
2884 05-06-2015 23:00:00 22.44167 C 14.3 g/m*3 22.44 C 2.00833 km/h
2885 06-06-2015 00:00:00 23.71667 C 13.81 g/m*3 23.72 C 7.64167 km/h
2886 06-06-2015 01:00:00 20.89167 C 14.87 g/m*3 20.89 C 4.025 km/h
2887 06-06-2015 02:00:00 19.10833 C 14.77 g/m*3 19.11 C 0 km/h
2888 06-06-2015 03:00:00 19.025 C 14.8 g/m*3 19.02 C 4.00833 km/h
2889 06-06-2015 04:00:00 18.43333 C 14.56 g/m*3 18.43 C 5.35 km/h
2890 06-06-2015 05:00:00 17.65833 C 14.18 g/m*3 17.66 C 0.13333 km/h
2891 06-06-2015 06:00:00 17.46667 C 14.17 g/m*3 17.47 C 0.13333 km/h
2892 06-06-2015 07:00:00 18.16667 C 14.89 g/m*3 18.17 C 0.13333 km/h
2893 06-06-2015 08:00:00 18.90833 C 15.47 g/m*3 18.91 C 2.675 km/h
2894 06-06-2015 09:00:00 20.275 C 15.76 g/m*3 20.27 C 7.375 km/h
2895 06-06-2015 10:00:00 19.28333 C 14.11 g/m*3 19.28 C 10.23333 km/h
2896 06-06-2015 11:00:00 19.01667 C 13.57 g/m*3 19.02 C 9.94167 km/h
2897 06-06-2015 12:00:00 18.875 C 13.33 g/m*3 18.88 C 10.61667 km/h
2898 06-06-2015 13:00:00 18.80833 C 13.09 g/m*3 18.81 C 11.3 km/h
2899 06-06-2015 14:00:00 19.275 C 13.35 g/m*3 19.27 C 8.33333 km/h
2900 06-06-2015 15:00:00 21.64167 C 14.15 g/m*3 21.64 C 10.08333 km/h
Sensor: Nr:Datum:Temp:Abs-Feuchte:Windchill:Wind:
Aussen-T/F 2901 06-06-2015 16:00:00 23.675 C 13.76 g/m*3 23.68 C 9.28333 km/h
2902 06-06-2015 17:00:00 24.41667 C 13.48 g/m*3 24.42 C 9.95833 km/h
2903 06-06-2015 18:00:00 23.6 C 13.04 g/m*3 23.6 C 11.3 km/h
2904 06-06-2015 19:00:00 22.91667 C 12.56 g/m*3 22.92 C 7.25833 km/h
2905 06-06-2015 20:00:00 21.64167 C 11.74 g/m*3 21.64 C 6.41667 km/h
2906 06-06-2015 21:00:00 19.325 C 11.77 g/m*3 19.33 C 1.6 km/h
2907 06-06-2015 22:00:00 16.61667 C 11.5 g/m*3 16.62 C 0.4 km/h
2908 06-06-2015 23:00:00 15.825 C 11.04 g/m*3 15.83 C 0.66667 km/h
2909 07-06-2015 00:00:00 14.975 C 10.48 g/m*3 14.98 C 0.13333 km/h
2910 07-06-2015 01:00:00 14.15 C 10.01 g/m*3 14.15 C 0.26667 km/h
2911 07-06-2015 02:00:00 13.44167 C 9.74 g/m*3 13.44 C 0 km/h
2912 07-06-2015 03:00:00 12.58333 C 9.47 g/m*3 12.58 C 0.13333 km/h
2913 07-06-2015 04:00:00 12.21667 C 9.11 g/m*3 12.22 C 0.8 km/h
2914 07-06-2015 05:00:00 12.075 C 8.67 g/m*3 12.08 C 2 km/h
2915 07-06-2015 06:00:00 12.38333 C 8.65 g/m*3 12.38 C 0.53333 km/h
2916 07-06-2015 07:00:00 12.6 C 8.63 g/m*3 12.6 C 0.53333 km/h
2917 07-06-2015 08:00:00 13.93333 C 8.93 g/m*3 13.93 C 0.93333 km/h
2918 07-06-2015 09:00:00 15.7 C 8.54 g/m*3 15.7 C 4.68333 km/h
2919 07-06-2015 10:00:00 18.11667 C 8.76 g/m*3 18.12 C 6.83333 km/h
2920 07-06-2015 11:00:00 20.23333 C 8.93 g/m*3 20.23 C 8.58333 km/h
2921 07-06-2015 12:00:00 21.51667 C 8.84 g/m*3 21.52 C 11.15833 km/h
2922 07-06-2015 13:00:00 22.75833 C 9.19 g/m*3 22.76 C 11.56667 km/h
2923 07-06-2015 14:00:00 24.175 C 8.64 g/m*3 24.18 C 11.43333 km/h
2924 07-06-2015 15:00:00 24.31667 C 7.72 g/m*3 24.32 C 13.83333 km/h
2925 07-06-2015 16:00:00 25.08333 C 7.54 g/m*3 25.08 C 10.76667 km/h
Sensor: Nr:Datum:Temp:Abs-Feuchte:Windchill:Wind:
Aussen-T/F 2926 07-06-2015 17:00:00 25.34167 C 7.84 g/m*3 25.34 C 11.56667 km/h
2927 07-06-2015 18:00:00 24.90833 C 7.44 g/m*3 24.91 C 12.1 km/h
2928 07-06-2015 19:00:00 22.98333 C 7.58 g/m*3 22.98 C 9.28333 km/h
2929 07-06-2015 20:00:00 20.41667 C 8.16 g/m*3 20.42 C 2.94167 km/h
2930 07-06-2015 21:00:00 18.025 C 8.54 g/m*3 18.02 C 2.40833 km/h
2931 07-06-2015 22:00:00 15.95833 C 8.64 g/m*3 15.96 C 0.4 km/h
2932 07-06-2015 23:00:00 15.14167 C 8.78 g/m*3 15.14 C 0.93333 km/h
2933 08-06-2015 00:00:00 14.38333 C 8.72 g/m*3 14.38 C 0.66667 km/h
2934 08-06-2015 01:00:00 13.81667 C 8.57 g/m*3 13.82 C 0.8 km/h
2935 08-06-2015 02:00:00 13.225 C 8.32 g/m*3 13.23 C 5.36667 km/h
2936 08-06-2015 03:00:00 13.13333 C 8.23 g/m*3 13.13 C 5.63333 km/h
2937 08-06-2015 04:00:00 12.23333 C 8.24 g/m*3 12.23 C 3.475 km/h
2938 08-06-2015 05:00:00 11.61667 C 8.19 g/m*3 11.62 C 6.70833 km/h
2939 08-06-2015 06:00:00 11.15 C 8.32 g/m*3 11.15 C 2.66667 km/h
2940 08-06-2015 07:00:00 11.46667 C 8.56 g/m*3 11.47 C 3.34167 km/h
2941 08-06-2015 08:00:00 12.44167 C 8.87 g/m*3 12.44 C 5.20833 km/h
2942 08-06-2015 09:00:00 13.575 C 9.19 g/m*3 13.58 C 7.24167 km/h
2943 08-06-2015 10:00:00 14.89167 C 9.36 g/m*3 14.89 C 8.74167 km/h
2944 08-06-2015 11:00:00 16.41667 C 9.58 g/m*3 16.42 C 8.48333 km/h
2945 08-06-2015 12:00:00 18.81667 C 9.82 g/m*3 18.82 C 11.96667 km/h
2946 08-06-2015 13:00:00 20.075 C 9.65 g/m*3 20.08 C 11.3 km/h
2947 08-06-2015 14:00:00 20.95 C 9.73 g/m*3 20.95 C 12.23333 km/h
2948 08-06-2015 15:00:00 20.64167 C 9.15 g/m*3 20.64 C 11.56667 km/h
2949 08-06-2015 16:00:00 21.05833 C 8.85 g/m*3 21.06 C 12.75833 km/h
2950 08-06-2015 17:00:00 21.25833 C 8.68 g/m*3 21.26 C 11.7 km/h
Sensor: Nr:Datum:Temp:Abs-Feuchte:Windchill:Wind:
Aussen-T/F 2951 08-06-2015 18:00:00 20.79167 C 8.37 g/m*3 20.79 C 12.36667 km/h
2952 08-06-2015 19:00:00 19.5 C 8.03 g/m*3 19.5 C 11.96667 km/h
2953 08-06-2015 20:00:00 18.31667 C 7.6 g/m*3 18.32 C 14.1 km/h
2954 08-06-2015 21:00:00 16.88333 C 7.53 g/m*3 16.88 C 9.68333 km/h
2955 08-06-2015 22:00:00 16.03333 C 7.51 g/m*3 16.03 C 6.56667 km/h
2956 08-06-2015 23:00:00 15.45833 C 7.57 g/m*3 15.46 C 4.93333 km/h
2957 09-06-2015 00:00:00 14.58333 C 7.68 g/m*3 14.58 C 2.4 km/h
2958 09-06-2015 01:00:00 13.775 C 7.77 g/m*3 13.78 C 2.93333 km/h
2959 09-06-2015 02:00:00 12.75 C 7.62 g/m*3 12.75 C 3.73333 km/h
2960 09-06-2015 03:00:00 12.65 C 7.62 g/m*3 12.65 C 4.95833 km/h
2961 09-06-2015 04:00:00 12.01667 C 7.57 g/m*3 12.02 C 2.93333 km/h
2962 09-06-2015 05:00:00 11.60833 C 7.55 g/m*3 11.61 C 2.4 km/h
2963 09-06-2015 06:00:00 11.53333 C 7.63 g/m*3 11.53 C 3.74167 km/h
2964 09-06-2015 07:00:00 11.88333 C 7.86 g/m*3 11.88 C 6.15833 km/h
2965 09-06-2015 08:00:00 12.825 C 8.12 g/m*3 12.83 C 9.825 km/h
2966 09-06-2015 09:00:00 13.85833 C 8.44 g/m*3 13.86 C 9.96667 km/h
2967 09-06-2015 10:00:00 15.20833 C 8.71 g/m*3 15.21 C 9.00833 km/h
2968 09-06-2015 11:00:00 16.375 C 8.81 g/m*3 16.38 C 8.88333 km/h
2969 09-06-2015 12:00:00 16.725 C 8.65 g/m*3 16.73 C 10.48333 km/h
2970 09-06-2015 13:00:00 17.225 C 7.99 g/m*3 17.23 C 9.81667 km/h
2971 09-06-2015 14:00:00 18.075 C 8.01 g/m*3 18.08 C 12.5 km/h
2972 09-06-2015 15:00:00 18.6 C 7.59 g/m*3 18.6 C 10.625 km/h
2973 09-06-2015 16:00:00 18.74167 C 7.65 g/m*3 18.74 C 8.45833 km/h
2974 09-06-2015 17:00:00 19.20833 C 7.71 g/m*3 19.21 C 7.25833 km/h
2975 09-06-2015 18:00:00 18.91667 C 7.61 g/m*3 18.92 C 7.51667 km/h
Sensor: Nr:Datum:Temp:Abs-Feuchte:Windchill:Wind:
Aussen-T/F 2976 09-06-2015 19:00:00 18.15833 C 7.6 g/m*3 18.16 C 6.975 km/h
2977 09-06-2015 20:00:00 15.86667 C 7.81 g/m*3 15.87 C 1.33333 km/h
2978 09-06-2015 21:00:00 14.01667 C 7.78 g/m*3 14.02 C 1.2 km/h
2979 09-06-2015 22:00:00 12.50833 C 7.74 g/m*3 12.51 C 0.26667 km/h
2980 09-06-2015 23:00:00 11.64167 C 7.62 g/m*3 11.64 C 0 km/h
2981 10-06-2015 00:00:00 11.11667 C 7.66 g/m*3 11.12 C 0 km/h
2982 10-06-2015 01:00:00 11.41667 C 7.91 g/m*3 11.42 C 0 km/h
2983 10-06-2015 02:00:00 11.59167 C 8.02 g/m*3 11.59 C 0 km/h
2984 10-06-2015 03:00:00 11.775 C 8.02 g/m*3 11.78 C 0 km/h
2985 10-06-2015 04:00:00 10.9 C 7.81 g/m*3 10.9 C 0 km/h
2986 10-06-2015 05:00:00 9.96667 C 7.7 g/m*3 9.97 C 0 km/h
2987 10-06-2015 06:00:00 10.2 C 8.03 g/m*3 10.2 C 0 km/h
2988 10-06-2015 07:00:00 11.20833 C 8.5 g/m*3 11.21 C 0 km/h
2989 10-06-2015 08:00:00 13.23333 C 9.03 g/m*3 13.23 C 0.13333 km/h
2990 10-06-2015 09:00:00 15.8 C 9.15 g/m*3 15.8 C 7.65 km/h
2991 10-06-2015 10:00:00 18.68333 C 9.41 g/m*3 18.68 C 9.94167 km/h
2992 10-06-2015 11:00:00 19.55 C 9.47 g/m*3 19.55 C 11.28333 km/h
2993 10-06-2015 12:00:00 20.68333 C 9.67 g/m*3 20.68 C 11.7 km/h
2994 10-06-2015 13:00:00 20.65833 C 10.13 g/m*3 20.66 C 8.85833 km/h
2995 10-06-2015 14:00:00 22.98333 C 10.59 g/m*3 22.98 C 9.14167 km/h
2996 10-06-2015 15:00:00 23.425 C 10.53 g/m*3 23.43 C 7.11667 km/h
2997 10-06-2015 16:00:00 23.45 C 10.46 g/m*3 23.45 C 8.6 km/h
2998 10-06-2015 17:00:00 23.45 C 10.68 g/m*3 23.45 C 7.25833 km/h
2999 10-06-2015 18:00:00 24.06667 C 10.59 g/m*3 24.07 C 7.91667 km/h
3000 10-06-2015 19:00:00 22.48333 C 10.48 g/m*3 22.48 C 3.2 km/h
Sensor: Nr:Datum:Temp:Abs-Feuchte:Windchill:Wind:
Aussen-T/F 3001 10-06-2015 20:00:00 20.325 C 11.52 g/m*3 20.33 C 0.13333 km/h
3002 10-06-2015 21:00:00 18.35833 C 11.09 g/m*3 18.36 C 0.13333 km/h
3003 10-06-2015 22:00:00 17.64167 C 10.69 g/m*3 17.64 C 0 km/h
3004 10-06-2015 23:00:00 17.48333 C 10.36 g/m*3 17.48 C 0.26667 km/h
3005 11-06-2015 00:00:00 17.575 C 9.73 g/m*3 17.58 C 1.86667 km/h
3006 11-06-2015 01:00:00 16.625 C 9.6 g/m*3 16.63 C 1.73333 km/h
3007 11-06-2015 02:00:00 17.01667 C 9.57 g/m*3 17.02 C 2.13333 km/h
3008 11-06-2015 03:00:00 16.38333 C 9.44 g/m*3 16.38 C 1.06667 km/h
3009 11-06-2015 04:00:00 16.09167 C 9.43 g/m*3 16.09 C 1.33333 km/h
3010 11-06-2015 05:00:00 14.2 C 9.22 g/m*3 14.2 C 0.13333 km/h
3011 11-06-2015 06:00:00 13.625 C 9.35 g/m*3 13.63 C 0 km/h
3012 11-06-2015 07:00:00 13.84167 C 9.76 g/m*3 13.84 C 0 km/h
3013 11-06-2015 08:00:00 16.35833 C 10.48 g/m*3 16.36 C 2.80833 km/h
3014 11-06-2015 09:00:00 19.06667 C 10.1 g/m*3 19.07 C 8.86667 km/h
3015 11-06-2015 10:00:00 21.075 C 10.56 g/m*3 21.08 C 9.4 km/h
3016 11-06-2015 11:00:00 22.9 C 11.05 g/m*3 22.9 C 9.29167 km/h
3017 11-06-2015 12:00:00 24.16667 C 11.11 g/m*3 24.17 C 10.75833 km/h
3018 11-06-2015 13:00:00 24.54167 C 11.2 g/m*3 24.54 C 10.475 km/h
3019 11-06-2015 14:00:00 24.18333 C 11.19 g/m*3 24.18 C 10.76667 km/h
3020 11-06-2015 15:00:00 24.71667 C 11.08 g/m*3 24.72 C 10.23333 km/h
3021 11-06-2015 16:00:00 25.625 C 11.21 g/m*3 25.63 C 9.26667 km/h
3022 11-06-2015 17:00:00 25.45833 C 11.18 g/m*3 25.46 C 9.13333 km/h
3023 11-06-2015 18:00:00 24.88333 C 11.07 g/m*3 24.88 C 8.2 km/h
3024 11-06-2015 19:00:00 24.18333 C 10.96 g/m*3 24.18 C 4.81667 km/h
3025 11-06-2015 20:00:00 23.08333 C 11.05 g/m*3 23.08 C 4.54167 km/h
Sensor: Nr:Datum:Temp:Abs-Feuchte:Windchill:Wind:
Aussen-T/F 3026 11-06-2015 21:00:00 19.87778 C 11.4 g/m*3 19.88 C 0 km/h
3027 11-06-2015 22:00:00 17.24167 C 10.78 g/m*3 17.24 C 0.4 km/h
3028 11-06-2015 23:00:00 16.275 C 10.7 g/m*3 16.27 C 0.13333 km/h
3029 12-06-2015 00:00:00 15.45 C 10.56 g/m*3 15.45 C 0 km/h
3030 12-06-2015 01:00:00 14.81667 C 10.46 g/m*3 14.82 C 0 km/h
3031 12-06-2015 02:00:00 14.21667 C 10.33 g/m*3 14.22 C 0 km/h
3032 12-06-2015 03:00:00 13.78333 C 10.26 g/m*3 13.78 C 0.13333 km/h
3033 12-06-2015 04:00:00 13.125 C 10.06 g/m*3 13.13 C 0 km/h
3034 12-06-2015 05:00:00 12.51667 C 9.88 g/m*3 12.52 C 0 km/h
3035 12-06-2015 06:00:00 13.05833 C 10.26 g/m*3 13.06 C 0 km/h
3036 12-06-2015 07:00:00 13.79167 C 10.67 g/m*3 13.79 C 0 km/h
3037 12-06-2015 08:00:00 16.35833 C 11.39 g/m*3 16.36 C 2.40833 km/h
3038 12-06-2015 09:00:00 19.44167 C 11.72 g/m*3 19.44 C 5.08333 km/h
3039 12-06-2015 10:00:00 22.21667 C 12.9 g/m*3 22.22 C 6.16667 km/h
3040 12-06-2015 11:00:00 24.85 C 13.52 g/m*3 24.85 C 8.74167 km/h
3041 12-06-2015 12:00:00 26.95833 C 14.31 g/m*3 26.96 C 6.025 km/h
3042 12-06-2015 13:00:00 29.075 C 14.85 g/m*3 29.08 C 7.11667 km/h
3043 12-06-2015 14:00:00 29.90833 C 14.86 g/m*3 29.91 C 6.01667 km/h
3044 12-06-2015 15:00:00 30.78333 C 17.29 g/m*3 30.78 C 5.88333 km/h
3045 12-06-2015 16:00:00 28.175 C 15.95 g/m*3 28.18 C 2.275 km/h
3046 12-06-2015 17:00:00 22.65 C 16.32 g/m*3 22.65 C 1.6 km/h
3047 12-06-2015 18:00:00 21.62857 C 16.34 g/m*3 21.63 C 2.05714 km/h
3048 12-06-2015 19:00:00 20.91667 C 15.81 g/m*3 20.92 C 2.80833 km/h
3049 12-06-2015 20:00:00 19.1 C 15.08 g/m*3 19.1 C 1.2 km/h
3050 12-06-2015 21:00:00 18.35833 C 14.8 g/m*3 18.36 C 0.26667 km/h
Sensor: Nr:Datum:Temp:Abs-Feuchte:Windchill:Wind:
Aussen-T/F 3051 12-06-2015 22:00:00 17.8 C 14.42 g/m*3 17.8 C 1.2 km/h
3052 12-06-2015 23:00:00 17.35833 C 14.13 g/m*3 17.36 C 0.93333 km/h
3053 13-06-2015 00:00:00 16.64167 C 13.6 g/m*3 16.64 C 0 km/h
3054 13-06-2015 01:00:00 16.19167 C 13.23 g/m*3 16.19 C 0 km/h
3055 13-06-2015 02:00:00 15.79167 C 12.92 g/m*3 15.79 C 0 km/h
3056 13-06-2015 03:00:00 15.53333 C 12.72 g/m*3 15.53 C 0 km/h
3057 13-06-2015 04:00:00 15.00833 C 12.34 g/m*3 15.01 C 0 km/h
3058 13-06-2015 05:00:00 14.90833 C 12.37 g/m*3 14.91 C 0.13333 km/h
3059 13-06-2015 06:00:00 15.19167 C 12.58 g/m*3 15.19 C 2.26667 km/h
3060 13-06-2015 07:00:00 15.40833 C 12.75 g/m*3 15.41 C 0.4 km/h
3061 13-06-2015 08:00:00 15.925 C 13.16 g/m*3 15.93 C 1.34167 km/h
3062 13-06-2015 09:00:00 16.93333 C 13.86 g/m*3 16.93 C 6.16667 km/h
3063 13-06-2015 10:00:00 16.99167 C 13.65 g/m*3 16.99 C 3.49167 km/h
3064 13-06-2015 11:00:00 18.23333 C 14.72 g/m*3 18.23 C 2.54167 km/h
3065 13-06-2015 12:00:00 19.11667 C 14.7 g/m*3 19.12 C 2.80833 km/h
3066 13-06-2015 13:00:00 18.80833 C 15 g/m*3 18.81 C 0.13333 km/h
3067 13-06-2015 14:00:00 20.85833 C 15.52 g/m*3 20.86 C 4.85 km/h
3068 13-06-2015 15:00:00 23.74167 C 14.62 g/m*3 23.74 C 9.55 km/h
3069 13-06-2015 16:00:00 24.95833 C 14.26 g/m*3 24.96 C 10.625 km/h
3070 13-06-2015 17:00:00 25.38333 C 12.6 g/m*3 25.38 C 14.09167 km/h
3071 13-06-2015 18:00:00 24.53333 C 12.31 g/m*3 24.53 C 9.95 km/h
3072 13-06-2015 19:00:00 23.425 C 13.16 g/m*3 23.43 C 3.89167 km/h
3073 13-06-2015 20:00:00 21.30833 C 13.41 g/m*3 21.31 C 1.86667 km/h
3074 13-06-2015 21:00:00 18.69167 C 13.27 g/m*3 18.69 C 1.46667 km/h
3075 13-06-2015 22:00:00 17.4 C 12.58 g/m*3 17.4 C 0.8 km/h
Sensor: Nr:Datum:Temp:Abs-Feuchte:Windchill:Wind:
Aussen-T/F 3076 13-06-2015 23:00:00 16.36667 C 12.17 g/m*3 16.37 C 0.4 km/h
3077 14-06-2015 00:00:00 15.575 C 11.82 g/m*3 15.58 C 0 km/h
3078 14-06-2015 01:00:00 14.88333 C 11.5 g/m*3 14.88 C 0.4 km/h
3079 14-06-2015 02:00:00 13.8 C 10.88 g/m*3 13.8 C 0.13333 km/h
3080 14-06-2015 03:00:00 13.05 C 10.54 g/m*3 13.05 C 0 km/h
3081 14-06-2015 04:00:00 12.55 C 10.35 g/m*3 12.55 C 0 km/h
3082 14-06-2015 05:00:00 11.98333 C 10.03 g/m*3 11.98 C 0.26667 km/h
3083 14-06-2015 06:00:00 11.70833 C 9.92 g/m*3 11.71 C 0.13333 km/h
3084 14-06-2015 07:00:00 12.16667 C 10.23 g/m*3 12.17 C 0.53333 km/h
3085 14-06-2015 08:00:00 14.625 C 11.37 g/m*3 14.63 C 1.46667 km/h
3086 14-06-2015 09:00:00 16.28333 C 11.45 g/m*3 16.28 C 0.93333 km/h
3087 14-06-2015 10:00:00 19.5 C 11.16 g/m*3 19.5 C 3.46667 km/h
3088 14-06-2015 11:00:00 21.39167 C 10.81 g/m*3 21.39 C 6.44167 km/h
3089 14-06-2015 12:00:00 22.775 C 10.74 g/m*3 22.78 C 5.75 km/h
3090 14-06-2015 13:00:00 23.86667 C 10.83 g/m*3 23.87 C 6.29167 km/h
3091 14-06-2015 14:00:00 25.3 C 10.53 g/m*3 25.3 C 7.375 km/h
3092 14-06-2015 15:00:00 26.64167 C 9.9 g/m*3 26.64 C 9.00833 km/h
3093 14-06-2015 16:00:00 26.99167 C 9.35 g/m*3 26.99 C 10.76667 km/h
3094 14-06-2015 17:00:00 26.89167 C 9.02 g/m*3 26.89 C 10.23333 km/h
3095 14-06-2015 18:00:00 25.8 C 9.27 g/m*3 25.8 C 8.875 km/h
3096 14-06-2015 19:00:00 24.95 C 9.66 g/m*3 24.95 C 7.525 km/h
3097 14-06-2015 20:00:00 23.23333 C 10.12 g/m*3 23.23 C 5.09167 km/h
3098 14-06-2015 21:00:00 19.51667 C 11.61 g/m*3 19.52 C 1.46667 km/h
3099 14-06-2015 22:00:00 17.625 C 11.37 g/m*3 17.63 C 0 km/h
3100 14-06-2015 23:00:00 16.74167 C 11.24 g/m*3 16.74 C 0.53333 km/h
Sensor: Nr:Datum:Temp:Abs-Feuchte:Windchill:Wind:
Aussen-T/F 3101 15-06-2015 00:00:00 16.03333 C 11.22 g/m*3 16.03 C 0 km/h
3102 15-06-2015 01:00:00 15.39167 C 11.09 g/m*3 15.39 C 0.26667 km/h
3103 15-06-2015 02:00:00 14.74167 C 11.02 g/m*3 14.74 C 0.13333 km/h
3104 15-06-2015 03:00:00 14.76667 C 11.16 g/m*3 14.77 C 0.26667 km/h
3105 15-06-2015 04:00:00 14.425 C 11.08 g/m*3 14.43 C 0 km/h
3106 15-06-2015 05:00:00 13.79167 C 10.88 g/m*3 13.79 C 0 km/h
3107 15-06-2015 06:00:00 13.75833 C 11.05 g/m*3 13.76 C 0.26667 km/h
3108 15-06-2015 07:00:00 14.7 C 11.56 g/m*3 14.7 C 0.4 km/h
3109 15-06-2015 08:00:00 16.45 C 11.83 g/m*3 16.45 C 2.53333 km/h
3110 15-06-2015 09:00:00 18.1 C 11.67 g/m*3 18.1 C 6.44167 km/h
3111 15-06-2015 10:00:00 18.81667 C 11.65 g/m*3 18.82 C 8.45833 km/h
3112 15-06-2015 11:00:00 18.075 C 11.78 g/m*3 18.08 C 11.03333 km/h
3113 15-06-2015 12:00:00 18.39167 C 11.71 g/m*3 18.39 C 11.43333 km/h
3114 15-06-2015 13:00:00 19.425 C 11.81 g/m*3 19.43 C 13.03333 km/h
3115 15-06-2015 14:00:00 19.80833 C 11.49 g/m*3 19.81 C 12.1 km/h
3116 15-06-2015 15:00:00 20.71667 C 11.73 g/m*3 20.72 C 13.15833 km/h
3117 15-06-2015 16:00:00 21.39167 C 11.56 g/m*3 21.39 C 10.89167 km/h
3118 15-06-2015 17:00:00 21.13333 C 11.12 g/m*3 21.13 C 10.48333 km/h
3119 15-06-2015 18:00:00 21.275 C 10.7 g/m*3 21.28 C 10.625 km/h
3120 15-06-2015 19:00:00 20.925 C 10.53 g/m*3 20.93 C 8.46667 km/h
3121 15-06-2015 20:00:00 20.05833 C 10.1 g/m*3 20.06 C 7.525 km/h
3122 15-06-2015 21:00:00 18.63333 C 9.58 g/m*3 18.63 C 3.6 km/h
3123 15-06-2015 22:00:00 16.075 C 9.76 g/m*3 16.08 C 0.66667 km/h
3124 15-06-2015 23:00:00 15.34167 C 9.6 g/m*3 15.34 C 0.26667 km/h
3125 16-06-2015 00:00:00 14.625 C 9.49 g/m*3 14.63 C 0 km/h
Sensor: Nr:Datum:Temp:Abs-Feuchte:Windchill:Wind:
Aussen-T/F 3126 16-06-2015 01:00:00 14.00833 C 9.2 g/m*3 14.01 C 0.13333 km/h
3127 16-06-2015 02:00:00 12.925 C 8.85 g/m*3 12.93 C 0 km/h
3128 16-06-2015 03:00:00 11.9 C 8.62 g/m*3 11.9 C 0 km/h
3129 16-06-2015 04:00:00 12.425 C 8.51 g/m*3 12.43 C 1.46667 km/h
3130 16-06-2015 05:00:00 11.375 C 8.19 g/m*3 11.38 C 3.2 km/h
3131 16-06-2015 06:00:00 11.11667 C 8.19 g/m*3 11.12 C 1.46667 km/h
3132 16-06-2015 07:00:00 11.125 C 8.37 g/m*3 11.13 C 0.4 km/h
3133 16-06-2015 08:00:00 13.26667 C 8.79 g/m*3 13.27 C 3.61667 km/h
3134 16-06-2015 09:00:00 14.85 C 8.78 g/m*3 14.85 C 4.81667 km/h
3135 16-06-2015 10:00:00 16.675 C 8.89 g/m*3 16.68 C 7.65833 km/h
3136 16-06-2015 11:00:00 18.49167 C 8.76 g/m*3 18.49 C 8.06667 km/h
3137 16-06-2015 12:00:00 19.34167 C 8.23 g/m*3 19.34 C 11.96667 km/h
3138 16-06-2015 13:00:00 19.40833 C 8.12 g/m*3 19.41 C 11.83333 km/h
3139 16-06-2015 14:00:00 18.71667 C 8.24 g/m*3 18.72 C 13.43333 km/h
3140 16-06-2015 15:00:00 18.50833 C 8.06 g/m*3 18.51 C 11.83333 km/h
3141 16-06-2015 16:00:00 18.30833 C 8.2 g/m*3